<?xml version="1.0" encoding="UTF-8" standalone="no" ?>
<gpx xmlns="http://www.topografix.com/GPX/1/1" xmlns:xsi="http://www.w3.org/2001/XMLSchema-instance" xsi:schemaLocation="http://www.topografix.com/GPX/1/1 http://www.topografix.com/GPX/1/1/gpx.xsd" version="1.1" creator="VisuGPX - https://www.visugpx.com">
  <metadata>
    <name>La Chaumusse,Saint Laurent La Savine,La pierre percée.</name>
  </metadata>
  <trk>
    <name><![CDATA[La Chaumusse,Saint Laurent La Savine,La pierre percée._1]]></name>
    <trkseg>
      <trkpt lat="46.57445" lon="5.97449">
        <ele>876</ele>
        <time>2019-08-08T06:24:27Z</time>
      </trkpt>
      <trkpt lat="46.57442" lon="5.97454">
        <ele>875.3</ele>
        <time>2019-08-08T06:24:29Z</time>
      </trkpt>
      <trkpt lat="46.57442" lon="5.97451">
        <ele>875.5</ele>
        <time>2019-08-08T06:24:49Z</time>
      </trkpt>
      <trkpt lat="46.57438" lon="5.97457">
        <ele>877.5</ele>
        <time>2019-08-08T06:26:22Z</time>
      </trkpt>
      <trkpt lat="46.57435" lon="5.97462">
        <ele>877.5</ele>
        <time>2019-08-08T06:26:25Z</time>
      </trkpt>
      <trkpt lat="46.57431" lon="5.97468">
        <ele>877.5</ele>
        <time>2019-08-08T06:26:28Z</time>
      </trkpt>
      <trkpt lat="46.57426" lon="5.97476">
        <ele>877.6</ele>
        <time>2019-08-08T06:26:34Z</time>
      </trkpt>
      <trkpt lat="46.57422" lon="5.97481">
        <ele>877.8</ele>
        <time>2019-08-08T06:26:38Z</time>
      </trkpt>
      <trkpt lat="46.57416" lon="5.97477">
        <ele>878.2</ele>
        <time>2019-08-08T06:27:30Z</time>
      </trkpt>
      <trkpt lat="46.57411" lon="5.97472">
        <ele>878.4</ele>
        <time>2019-08-08T06:27:33Z</time>
      </trkpt>
      <trkpt lat="46.57407" lon="5.97469">
        <ele>878.6</ele>
        <time>2019-08-08T06:27:36Z</time>
      </trkpt>
      <trkpt lat="46.57402" lon="5.97466">
        <ele>878.7</ele>
        <time>2019-08-08T06:27:41Z</time>
      </trkpt>
      <trkpt lat="46.57396" lon="5.97465">
        <ele>878.7</ele>
        <time>2019-08-08T06:27:46Z</time>
      </trkpt>
      <trkpt lat="46.57392" lon="5.97465">
        <ele>878.7</ele>
        <time>2019-08-08T06:27:50Z</time>
      </trkpt>
      <trkpt lat="46.57387" lon="5.97463">
        <ele>878.8</ele>
        <time>2019-08-08T06:27:54Z</time>
      </trkpt>
      <trkpt lat="46.57383" lon="5.97462">
        <ele>878.9</ele>
        <time>2019-08-08T06:27:58Z</time>
      </trkpt>
      <trkpt lat="46.57378" lon="5.9746">
        <ele>879</ele>
        <time>2019-08-08T06:28:02Z</time>
      </trkpt>
      <trkpt lat="46.57373" lon="5.97458">
        <ele>879.1</ele>
        <time>2019-08-08T06:28:07Z</time>
      </trkpt>
      <trkpt lat="46.57369" lon="5.97455">
        <ele>879.2</ele>
        <time>2019-08-08T06:28:15Z</time>
      </trkpt>
      <trkpt lat="46.57364" lon="5.97455">
        <ele>879.2</ele>
        <time>2019-08-08T06:28:21Z</time>
      </trkpt>
      <trkpt lat="46.5736" lon="5.97453">
        <ele>878.9</ele>
        <time>2019-08-08T06:28:32Z</time>
      </trkpt>
      <trkpt lat="46.57355" lon="5.97453">
        <ele>878.6</ele>
        <time>2019-08-08T06:28:36Z</time>
      </trkpt>
      <trkpt lat="46.5735" lon="5.97451">
        <ele>878.2</ele>
        <time>2019-08-08T06:28:40Z</time>
      </trkpt>
      <trkpt lat="46.57345" lon="5.97451">
        <ele>877.8</ele>
        <time>2019-08-08T06:28:45Z</time>
      </trkpt>
      <trkpt lat="46.5734" lon="5.97451">
        <ele>877.3</ele>
        <time>2019-08-08T06:28:49Z</time>
      </trkpt>
      <trkpt lat="46.57336" lon="5.9745">
        <ele>876.9</ele>
        <time>2019-08-08T06:28:53Z</time>
      </trkpt>
      <trkpt lat="46.5733" lon="5.9745">
        <ele>876.2</ele>
        <time>2019-08-08T06:28:58Z</time>
      </trkpt>
      <trkpt lat="46.57318" lon="5.97445">
        <ele>872.8</ele>
        <time>2019-08-08T06:29:12Z</time>
      </trkpt>
      <trkpt lat="46.57312" lon="5.97446">
        <ele>872.3</ele>
        <time>2019-08-08T06:29:16Z</time>
      </trkpt>
      <trkpt lat="46.57308" lon="5.97449">
        <ele>871.6</ele>
        <time>2019-08-08T06:29:20Z</time>
      </trkpt>
      <trkpt lat="46.57303" lon="5.97452">
        <ele>870.8</ele>
        <time>2019-08-08T06:29:26Z</time>
      </trkpt>
      <trkpt lat="46.57297" lon="5.97451">
        <ele>870.6</ele>
        <time>2019-08-08T06:29:28Z</time>
      </trkpt>
      <trkpt lat="46.57291" lon="5.97449">
        <ele>870.4</ele>
        <time>2019-08-08T06:29:30Z</time>
      </trkpt>
      <trkpt lat="46.57285" lon="5.97448">
        <ele>870.4</ele>
        <time>2019-08-08T06:29:33Z</time>
      </trkpt>
      <trkpt lat="46.5728" lon="5.97446">
        <ele>870.7</ele>
        <time>2019-08-08T06:29:36Z</time>
      </trkpt>
      <trkpt lat="46.57274" lon="5.97444">
        <ele>871.8</ele>
        <time>2019-08-08T06:29:43Z</time>
      </trkpt>
      <trkpt lat="46.57267" lon="5.9744">
        <ele>873.8</ele>
        <time>2019-08-08T06:29:54Z</time>
      </trkpt>
      <trkpt lat="46.57254" lon="5.9743">
        <ele>875.9</ele>
        <time>2019-08-08T06:30:07Z</time>
      </trkpt>
      <trkpt lat="46.57249" lon="5.97427">
        <ele>876.2</ele>
        <time>2019-08-08T06:30:09Z</time>
      </trkpt>
      <trkpt lat="46.57244" lon="5.97425">
        <ele>876.7</ele>
        <time>2019-08-08T06:30:12Z</time>
      </trkpt>
      <trkpt lat="46.57239" lon="5.97424">
        <ele>878.1</ele>
        <time>2019-08-08T06:30:18Z</time>
      </trkpt>
      <trkpt lat="46.57232" lon="5.97415">
        <ele>881</ele>
        <time>2019-08-08T06:30:29Z</time>
      </trkpt>
      <trkpt lat="46.57219" lon="5.97391">
        <ele>885.8</ele>
        <time>2019-08-08T06:30:49Z</time>
      </trkpt>
      <trkpt lat="46.57216" lon="5.97384">
        <ele>886.2</ele>
        <time>2019-08-08T06:30:53Z</time>
      </trkpt>
      <trkpt lat="46.57213" lon="5.97379">
        <ele>886.7</ele>
        <time>2019-08-08T06:30:59Z</time>
      </trkpt>
      <trkpt lat="46.5721" lon="5.97373">
        <ele>887.1</ele>
        <time>2019-08-08T06:31:03Z</time>
      </trkpt>
      <trkpt lat="46.57199" lon="5.97333">
        <ele>888.5</ele>
        <time>2019-08-08T06:31:27Z</time>
      </trkpt>
      <trkpt lat="46.57198" lon="5.97325">
        <ele>888.2</ele>
        <time>2019-08-08T06:31:33Z</time>
      </trkpt>
      <trkpt lat="46.57197" lon="5.97318">
        <ele>887.8</ele>
        <time>2019-08-08T06:31:39Z</time>
      </trkpt>
      <trkpt lat="46.57197" lon="5.97311">
        <ele>887.4</ele>
        <time>2019-08-08T06:31:44Z</time>
      </trkpt>
      <trkpt lat="46.57197" lon="5.97303">
        <ele>887</ele>
        <time>2019-08-08T06:31:49Z</time>
      </trkpt>
      <trkpt lat="46.57197" lon="5.97295">
        <ele>886.5</ele>
        <time>2019-08-08T06:31:53Z</time>
      </trkpt>
      <trkpt lat="46.57197" lon="5.97288">
        <ele>886.1</ele>
        <time>2019-08-08T06:31:57Z</time>
      </trkpt>
      <trkpt lat="46.57196" lon="5.9728">
        <ele>885.7</ele>
        <time>2019-08-08T06:32:06Z</time>
      </trkpt>
      <trkpt lat="46.57194" lon="5.97274">
        <ele>885.8</ele>
        <time>2019-08-08T06:32:09Z</time>
      </trkpt>
      <trkpt lat="46.57192" lon="5.97237">
        <ele>884.9</ele>
        <time>2019-08-08T06:32:28Z</time>
      </trkpt>
      <trkpt lat="46.5719" lon="5.97229">
        <ele>884.9</ele>
        <time>2019-08-08T06:32:31Z</time>
      </trkpt>
      <trkpt lat="46.57187" lon="5.97221">
        <ele>885.1</ele>
        <time>2019-08-08T06:32:34Z</time>
      </trkpt>
      <trkpt lat="46.57184" lon="5.97216">
        <ele>885.4</ele>
        <time>2019-08-08T06:32:39Z</time>
      </trkpt>
      <trkpt lat="46.57181" lon="5.97205">
        <ele>885.6</ele>
        <time>2019-08-08T06:32:49Z</time>
      </trkpt>
      <trkpt lat="46.57183" lon="5.97189">
        <ele>886.1</ele>
        <time>2019-08-08T06:33:04Z</time>
      </trkpt>
      <trkpt lat="46.5718" lon="5.97183">
        <ele>885.9</ele>
        <time>2019-08-08T06:33:09Z</time>
      </trkpt>
      <trkpt lat="46.57176" lon="5.97171">
        <ele>886</ele>
        <time>2019-08-08T06:33:17Z</time>
      </trkpt>
      <trkpt lat="46.57153" lon="5.97131">
        <ele>889.4</ele>
        <time>2019-08-08T06:33:48Z</time>
      </trkpt>
      <trkpt lat="46.57148" lon="5.97117">
        <ele>890.1</ele>
        <time>2019-08-08T06:33:57Z</time>
      </trkpt>
      <trkpt lat="46.57144" lon="5.97112">
        <ele>890.4</ele>
        <time>2019-08-08T06:34:01Z</time>
      </trkpt>
      <trkpt lat="46.5714" lon="5.97108">
        <ele>890.6</ele>
        <time>2019-08-08T06:34:04Z</time>
      </trkpt>
      <trkpt lat="46.57137" lon="5.97101">
        <ele>890.8</ele>
        <time>2019-08-08T06:34:09Z</time>
      </trkpt>
      <trkpt lat="46.57132" lon="5.97097">
        <ele>890.8</ele>
        <time>2019-08-08T06:34:13Z</time>
      </trkpt>
      <trkpt lat="46.57129" lon="5.97091">
        <ele>890.8</ele>
        <time>2019-08-08T06:34:18Z</time>
      </trkpt>
      <trkpt lat="46.57127" lon="5.97085">
        <ele>890.7</ele>
        <time>2019-08-08T06:34:22Z</time>
      </trkpt>
      <trkpt lat="46.57124" lon="5.97079">
        <ele>890.7</ele>
        <time>2019-08-08T06:34:27Z</time>
      </trkpt>
      <trkpt lat="46.57122" lon="5.97073">
        <ele>890.5</ele>
        <time>2019-08-08T06:34:32Z</time>
      </trkpt>
      <trkpt lat="46.5712" lon="5.97067">
        <ele>890.3</ele>
        <time>2019-08-08T06:34:36Z</time>
      </trkpt>
      <trkpt lat="46.57118" lon="5.9706">
        <ele>889.7</ele>
        <time>2019-08-08T06:34:41Z</time>
      </trkpt>
      <trkpt lat="46.57115" lon="5.97054">
        <ele>889.2</ele>
        <time>2019-08-08T06:34:46Z</time>
      </trkpt>
      <trkpt lat="46.57113" lon="5.97047">
        <ele>888.7</ele>
        <time>2019-08-08T06:34:51Z</time>
      </trkpt>
      <trkpt lat="46.57112" lon="5.9704">
        <ele>888.4</ele>
        <time>2019-08-08T06:34:56Z</time>
      </trkpt>
      <trkpt lat="46.57111" lon="5.97033">
        <ele>888</ele>
        <time>2019-08-08T06:35:01Z</time>
      </trkpt>
      <trkpt lat="46.57111" lon="5.97025">
        <ele>887.4</ele>
        <time>2019-08-08T06:35:06Z</time>
      </trkpt>
      <trkpt lat="46.57113" lon="5.97018">
        <ele>886.9</ele>
        <time>2019-08-08T06:35:10Z</time>
      </trkpt>
      <trkpt lat="46.57113" lon="5.97011">
        <ele>886.3</ele>
        <time>2019-08-08T06:35:14Z</time>
      </trkpt>
      <trkpt lat="46.57113" lon="5.97003">
        <ele>885.6</ele>
        <time>2019-08-08T06:35:19Z</time>
      </trkpt>
      <trkpt lat="46.57117" lon="5.96985">
        <ele>884.9</ele>
        <time>2019-08-08T06:35:28Z</time>
      </trkpt>
      <trkpt lat="46.57117" lon="5.96978">
        <ele>885.4</ele>
        <time>2019-08-08T06:35:33Z</time>
      </trkpt>
      <trkpt lat="46.57119" lon="5.96969">
        <ele>887.2</ele>
        <time>2019-08-08T06:35:42Z</time>
      </trkpt>
      <trkpt lat="46.57119" lon="5.96962">
        <ele>887.9</ele>
        <time>2019-08-08T06:35:46Z</time>
      </trkpt>
      <trkpt lat="46.57119" lon="5.96953">
        <ele>888.8</ele>
        <time>2019-08-08T06:35:50Z</time>
      </trkpt>
      <trkpt lat="46.57121" lon="5.96947">
        <ele>890.9</ele>
        <time>2019-08-08T06:36:07Z</time>
      </trkpt>
      <trkpt lat="46.57113" lon="5.96945">
        <ele>894.1</ele>
        <time>2019-08-08T06:36:40Z</time>
      </trkpt>
      <trkpt lat="46.5711" lon="5.9694">
        <ele>894.3</ele>
        <time>2019-08-08T06:36:47Z</time>
      </trkpt>
      <trkpt lat="46.57106" lon="5.96936">
        <ele>895</ele>
        <time>2019-08-08T06:36:56Z</time>
      </trkpt>
      <trkpt lat="46.57102" lon="5.96931">
        <ele>895.4</ele>
        <time>2019-08-08T06:37:01Z</time>
      </trkpt>
      <trkpt lat="46.57098" lon="5.96927">
        <ele>895.6</ele>
        <time>2019-08-08T06:37:05Z</time>
      </trkpt>
      <trkpt lat="46.57093" lon="5.96925">
        <ele>895.8</ele>
        <time>2019-08-08T06:37:10Z</time>
      </trkpt>
      <trkpt lat="46.57089" lon="5.96923">
        <ele>895.9</ele>
        <time>2019-08-08T06:37:14Z</time>
      </trkpt>
      <trkpt lat="46.57085" lon="5.9692">
        <ele>896.1</ele>
        <time>2019-08-08T06:37:19Z</time>
      </trkpt>
      <trkpt lat="46.5708" lon="5.96917">
        <ele>896</ele>
        <time>2019-08-08T06:37:24Z</time>
      </trkpt>
      <trkpt lat="46.57075" lon="5.96913">
        <ele>895.7</ele>
        <time>2019-08-08T06:37:29Z</time>
      </trkpt>
      <trkpt lat="46.57071" lon="5.96911">
        <ele>895.1</ele>
        <time>2019-08-08T06:37:34Z</time>
      </trkpt>
      <trkpt lat="46.57066" lon="5.96909">
        <ele>894.4</ele>
        <time>2019-08-08T06:37:40Z</time>
      </trkpt>
      <trkpt lat="46.57061" lon="5.96905">
        <ele>893.9</ele>
        <time>2019-08-08T06:37:46Z</time>
      </trkpt>
      <trkpt lat="46.57056" lon="5.96902">
        <ele>893.6</ele>
        <time>2019-08-08T06:37:51Z</time>
      </trkpt>
      <trkpt lat="46.57051" lon="5.96899">
        <ele>892.9</ele>
        <time>2019-08-08T06:37:56Z</time>
      </trkpt>
      <trkpt lat="46.57047" lon="5.96895">
        <ele>892.1</ele>
        <time>2019-08-08T06:38:01Z</time>
      </trkpt>
      <trkpt lat="46.57042" lon="5.96893">
        <ele>891.4</ele>
        <time>2019-08-08T06:38:06Z</time>
      </trkpt>
      <trkpt lat="46.57037" lon="5.96889">
        <ele>890.7</ele>
        <time>2019-08-08T06:38:12Z</time>
      </trkpt>
      <trkpt lat="46.57032" lon="5.96887">
        <ele>890.3</ele>
        <time>2019-08-08T06:38:18Z</time>
      </trkpt>
      <trkpt lat="46.57027" lon="5.96888">
        <ele>890.2</ele>
        <time>2019-08-08T06:38:24Z</time>
      </trkpt>
      <trkpt lat="46.57023" lon="5.96888">
        <ele>890.4</ele>
        <time>2019-08-08T06:38:30Z</time>
      </trkpt>
      <trkpt lat="46.57018" lon="5.96885">
        <ele>890.7</ele>
        <time>2019-08-08T06:38:35Z</time>
      </trkpt>
      <trkpt lat="46.57014" lon="5.96884">
        <ele>891.6</ele>
        <time>2019-08-08T06:38:42Z</time>
      </trkpt>
      <trkpt lat="46.57008" lon="5.96884">
        <ele>893.3</ele>
        <time>2019-08-08T06:38:50Z</time>
      </trkpt>
      <trkpt lat="46.57003" lon="5.96884">
        <ele>894.5</ele>
        <time>2019-08-08T06:38:55Z</time>
      </trkpt>
      <trkpt lat="46.56999" lon="5.96884">
        <ele>895.3</ele>
        <time>2019-08-08T06:38:59Z</time>
      </trkpt>
      <trkpt lat="46.56993" lon="5.96885">
        <ele>896.4</ele>
        <time>2019-08-08T06:39:05Z</time>
      </trkpt>
      <trkpt lat="46.56987" lon="5.96884">
        <ele>897.1</ele>
        <time>2019-08-08T06:39:09Z</time>
      </trkpt>
      <trkpt lat="46.56982" lon="5.96884">
        <ele>897.6</ele>
        <time>2019-08-08T06:39:13Z</time>
      </trkpt>
      <trkpt lat="46.56978" lon="5.96884">
        <ele>898.2</ele>
        <time>2019-08-08T06:39:17Z</time>
      </trkpt>
      <trkpt lat="46.56973" lon="5.96882">
        <ele>898.8</ele>
        <time>2019-08-08T06:39:24Z</time>
      </trkpt>
      <trkpt lat="46.56968" lon="5.96883">
        <ele>898.8</ele>
        <time>2019-08-08T06:39:35Z</time>
      </trkpt>
      <trkpt lat="46.56963" lon="5.96884">
        <ele>898.9</ele>
        <time>2019-08-08T06:39:49Z</time>
      </trkpt>
      <trkpt lat="46.56963" lon="5.96891">
        <ele>899.4</ele>
        <time>2019-08-08T06:40:10Z</time>
      </trkpt>
      <trkpt lat="46.56959" lon="5.96896">
        <ele>899.8</ele>
        <time>2019-08-08T06:40:19Z</time>
      </trkpt>
      <trkpt lat="46.56957" lon="5.9691">
        <ele>900.9</ele>
        <time>2019-08-08T06:40:46Z</time>
      </trkpt>
      <trkpt lat="46.56912" lon="5.9692">
        <ele>903.8</ele>
        <time>2019-08-08T06:41:27Z</time>
      </trkpt>
      <trkpt lat="46.56908" lon="5.96915">
        <ele>904.2</ele>
        <time>2019-08-08T06:41:35Z</time>
      </trkpt>
      <trkpt lat="46.56908" lon="5.96907">
        <ele>904.4</ele>
        <time>2019-08-08T06:41:38Z</time>
      </trkpt>
      <trkpt lat="46.56908" lon="5.969">
        <ele>904.7</ele>
        <time>2019-08-08T06:41:41Z</time>
      </trkpt>
      <trkpt lat="46.56907" lon="5.96893">
        <ele>905.4</ele>
        <time>2019-08-08T06:41:47Z</time>
      </trkpt>
      <trkpt lat="46.56907" lon="5.96885">
        <ele>905.7</ele>
        <time>2019-08-08T06:41:50Z</time>
      </trkpt>
      <trkpt lat="46.56908" lon="5.96878">
        <ele>905.9</ele>
        <time>2019-08-08T06:41:55Z</time>
      </trkpt>
      <trkpt lat="46.56908" lon="5.9687">
        <ele>906.1</ele>
        <time>2019-08-08T06:42:01Z</time>
      </trkpt>
      <trkpt lat="46.56908" lon="5.96863">
        <ele>906.5</ele>
        <time>2019-08-08T06:42:08Z</time>
      </trkpt>
      <trkpt lat="46.56909" lon="5.96857">
        <ele>906.6</ele>
        <time>2019-08-08T06:42:12Z</time>
      </trkpt>
      <trkpt lat="46.56908" lon="5.9685">
        <ele>906.5</ele>
        <time>2019-08-08T06:42:16Z</time>
      </trkpt>
      <trkpt lat="46.56907" lon="5.96841">
        <ele>906.4</ele>
        <time>2019-08-08T06:42:20Z</time>
      </trkpt>
      <trkpt lat="46.56905" lon="5.96834">
        <ele>906.1</ele>
        <time>2019-08-08T06:42:24Z</time>
      </trkpt>
      <trkpt lat="46.56904" lon="5.96827">
        <ele>905.5</ele>
        <time>2019-08-08T06:42:29Z</time>
      </trkpt>
      <trkpt lat="46.56904" lon="5.9682">
        <ele>904.9</ele>
        <time>2019-08-08T06:42:34Z</time>
      </trkpt>
      <trkpt lat="46.56902" lon="5.96814">
        <ele>904.3</ele>
        <time>2019-08-08T06:42:40Z</time>
      </trkpt>
      <trkpt lat="46.56899" lon="5.96807">
        <ele>904.2</ele>
        <time>2019-08-08T06:42:46Z</time>
      </trkpt>
      <trkpt lat="46.56895" lon="5.96801">
        <ele>904.4</ele>
        <time>2019-08-08T06:42:49Z</time>
      </trkpt>
      <trkpt lat="46.56893" lon="5.96795">
        <ele>904.8</ele>
        <time>2019-08-08T06:42:53Z</time>
      </trkpt>
      <trkpt lat="46.5689" lon="5.96789">
        <ele>905.2</ele>
        <time>2019-08-08T06:42:59Z</time>
      </trkpt>
      <trkpt lat="46.56888" lon="5.96783">
        <ele>905.5</ele>
        <time>2019-08-08T06:43:05Z</time>
      </trkpt>
      <trkpt lat="46.56886" lon="5.96776">
        <ele>905.3</ele>
        <time>2019-08-08T06:43:13Z</time>
      </trkpt>
      <trkpt lat="46.56881" lon="5.96775">
        <ele>906.3</ele>
        <time>2019-08-08T06:43:31Z</time>
      </trkpt>
      <trkpt lat="46.56877" lon="5.96776">
        <ele>906.4</ele>
        <time>2019-08-08T06:43:41Z</time>
      </trkpt>
      <trkpt lat="46.56848" lon="5.968">
        <ele>904.8</ele>
        <time>2019-08-08T06:44:20Z</time>
      </trkpt>
      <trkpt lat="46.56841" lon="5.96809">
        <ele>902.7</ele>
        <time>2019-08-08T06:44:34Z</time>
      </trkpt>
      <trkpt lat="46.56838" lon="5.96814">
        <ele>902.7</ele>
        <time>2019-08-08T06:44:41Z</time>
      </trkpt>
      <trkpt lat="46.56834" lon="5.96819">
        <ele>902.9</ele>
        <time>2019-08-08T06:44:43Z</time>
      </trkpt>
      <trkpt lat="46.5683" lon="5.96824">
        <ele>903.2</ele>
        <time>2019-08-08T06:44:45Z</time>
      </trkpt>
      <trkpt lat="46.56826" lon="5.96829">
        <ele>904.1</ele>
        <time>2019-08-08T06:44:49Z</time>
      </trkpt>
      <trkpt lat="46.56822" lon="5.96833">
        <ele>905.2</ele>
        <time>2019-08-08T06:44:53Z</time>
      </trkpt>
      <trkpt lat="46.56818" lon="5.96838">
        <ele>906.6</ele>
        <time>2019-08-08T06:44:58Z</time>
      </trkpt>
      <trkpt lat="46.56814" lon="5.96841">
        <ele>908.2</ele>
        <time>2019-08-08T06:45:04Z</time>
      </trkpt>
      <trkpt lat="46.56809" lon="5.96846">
        <ele>909.7</ele>
        <time>2019-08-08T06:45:10Z</time>
      </trkpt>
      <trkpt lat="46.56805" lon="5.96848">
        <ele>910.9</ele>
        <time>2019-08-08T06:45:17Z</time>
      </trkpt>
      <trkpt lat="46.56799" lon="5.96851">
        <ele>911.4</ele>
        <time>2019-08-08T06:45:21Z</time>
      </trkpt>
      <trkpt lat="46.56795" lon="5.96857">
        <ele>911.7</ele>
        <time>2019-08-08T06:45:25Z</time>
      </trkpt>
      <trkpt lat="46.56786" lon="5.96867">
        <ele>911.7</ele>
        <time>2019-08-08T06:45:37Z</time>
      </trkpt>
      <trkpt lat="46.56775" lon="5.9688">
        <ele>912.5</ele>
        <time>2019-08-08T06:45:50Z</time>
      </trkpt>
      <trkpt lat="46.56771" lon="5.96886">
        <ele>912.9</ele>
        <time>2019-08-08T06:45:54Z</time>
      </trkpt>
      <trkpt lat="46.56767" lon="5.96891">
        <ele>914.1</ele>
        <time>2019-08-08T06:46:00Z</time>
      </trkpt>
      <trkpt lat="46.56763" lon="5.96897">
        <ele>916.9</ele>
        <time>2019-08-08T06:46:14Z</time>
      </trkpt>
      <trkpt lat="46.56758" lon="5.96896">
        <ele>916.8</ele>
        <time>2019-08-08T06:46:21Z</time>
      </trkpt>
      <trkpt lat="46.56752" lon="5.96899">
        <ele>916.8</ele>
        <time>2019-08-08T06:46:28Z</time>
      </trkpt>
      <trkpt lat="46.56748" lon="5.96903">
        <ele>917.1</ele>
        <time>2019-08-08T06:46:33Z</time>
      </trkpt>
      <trkpt lat="46.5674" lon="5.96911">
        <ele>919.2</ele>
        <time>2019-08-08T06:46:47Z</time>
      </trkpt>
      <trkpt lat="46.56735" lon="5.96914">
        <ele>919.8</ele>
        <time>2019-08-08T06:46:53Z</time>
      </trkpt>
      <trkpt lat="46.56733" lon="5.9692">
        <ele>920.8</ele>
        <time>2019-08-08T06:47:01Z</time>
      </trkpt>
      <trkpt lat="46.5673" lon="5.96927">
        <ele>921.2</ele>
        <time>2019-08-08T06:47:05Z</time>
      </trkpt>
      <trkpt lat="46.56724" lon="5.96944">
        <ele>921.7</ele>
        <time>2019-08-08T06:47:19Z</time>
      </trkpt>
      <trkpt lat="46.56724" lon="5.96951">
        <ele>924.2</ele>
        <time>2019-08-08T06:47:59Z</time>
      </trkpt>
      <trkpt lat="46.56726" lon="5.96959">
        <ele>925.9</ele>
        <time>2019-08-08T06:48:23Z</time>
      </trkpt>
      <trkpt lat="46.56722" lon="5.96963">
        <ele>926.2</ele>
        <time>2019-08-08T06:48:28Z</time>
      </trkpt>
      <trkpt lat="46.5672" lon="5.96969">
        <ele>926.4</ele>
        <time>2019-08-08T06:48:37Z</time>
      </trkpt>
      <trkpt lat="46.56721" lon="5.96986">
        <ele>925.7</ele>
        <time>2019-08-08T06:48:46Z</time>
      </trkpt>
      <trkpt lat="46.56722" lon="5.96993">
        <ele>925.8</ele>
        <time>2019-08-08T06:48:51Z</time>
      </trkpt>
      <trkpt lat="46.56723" lon="5.97">
        <ele>926</ele>
        <time>2019-08-08T06:48:55Z</time>
      </trkpt>
      <trkpt lat="46.56726" lon="5.97006">
        <ele>926.1</ele>
        <time>2019-08-08T06:48:58Z</time>
      </trkpt>
      <trkpt lat="46.56727" lon="5.97013">
        <ele>926.3</ele>
        <time>2019-08-08T06:49:03Z</time>
      </trkpt>
      <trkpt lat="46.56729" lon="5.9702">
        <ele>926.6</ele>
        <time>2019-08-08T06:49:09Z</time>
      </trkpt>
      <trkpt lat="46.56732" lon="5.97025">
        <ele>926.8</ele>
        <time>2019-08-08T06:49:14Z</time>
      </trkpt>
      <trkpt lat="46.56734" lon="5.97032">
        <ele>926.5</ele>
        <time>2019-08-08T06:49:20Z</time>
      </trkpt>
      <trkpt lat="46.56736" lon="5.97039">
        <ele>926.3</ele>
        <time>2019-08-08T06:49:25Z</time>
      </trkpt>
      <trkpt lat="46.56738" lon="5.97045">
        <ele>925.4</ele>
        <time>2019-08-08T06:49:47Z</time>
      </trkpt>
      <trkpt lat="46.56739" lon="5.97053">
        <ele>924.4</ele>
        <time>2019-08-08T06:49:52Z</time>
      </trkpt>
      <trkpt lat="46.56738" lon="5.9706">
        <ele>923.5</ele>
        <time>2019-08-08T06:49:56Z</time>
      </trkpt>
      <trkpt lat="46.56737" lon="5.97067">
        <ele>922.5</ele>
        <time>2019-08-08T06:50:01Z</time>
      </trkpt>
      <trkpt lat="46.56732" lon="5.97078">
        <ele>921.1</ele>
        <time>2019-08-08T06:50:11Z</time>
      </trkpt>
      <trkpt lat="46.56728" lon="5.97081">
        <ele>921.7</ele>
        <time>2019-08-08T06:50:17Z</time>
      </trkpt>
      <trkpt lat="46.56724" lon="5.97084">
        <ele>922.7</ele>
        <time>2019-08-08T06:50:25Z</time>
      </trkpt>
      <trkpt lat="46.56719" lon="5.97084">
        <ele>924.2</ele>
        <time>2019-08-08T06:50:37Z</time>
      </trkpt>
      <trkpt lat="46.56715" lon="5.97089">
        <ele>925.8</ele>
        <time>2019-08-08T06:50:47Z</time>
      </trkpt>
      <trkpt lat="46.56709" lon="5.97094">
        <ele>926.7</ele>
        <time>2019-08-08T06:50:51Z</time>
      </trkpt>
      <trkpt lat="46.56705" lon="5.97098">
        <ele>927.5</ele>
        <time>2019-08-08T06:50:54Z</time>
      </trkpt>
      <trkpt lat="46.56702" lon="5.97103">
        <ele>929.2</ele>
        <time>2019-08-08T06:51:00Z</time>
      </trkpt>
      <trkpt lat="46.56699" lon="5.9711">
        <ele>931.1</ele>
        <time>2019-08-08T06:51:06Z</time>
      </trkpt>
      <trkpt lat="46.56695" lon="5.97113">
        <ele>933.1</ele>
        <time>2019-08-08T06:51:14Z</time>
      </trkpt>
      <trkpt lat="46.56699" lon="5.97118">
        <ele>933.5</ele>
        <time>2019-08-08T06:51:28Z</time>
      </trkpt>
      <trkpt lat="46.56703" lon="5.97116">
        <ele>931.6</ele>
        <time>2019-08-08T06:51:39Z</time>
      </trkpt>
      <trkpt lat="46.56699" lon="5.97118">
        <ele>928.4</ele>
        <time>2019-08-08T06:52:19Z</time>
      </trkpt>
      <trkpt lat="46.56701" lon="5.97114">
        <ele>937.6</ele>
        <time>2019-08-08T06:53:03Z</time>
      </trkpt>
      <trkpt lat="46.56701" lon="5.97107">
        <ele>938.5</ele>
        <time>2019-08-08T06:53:08Z</time>
      </trkpt>
      <trkpt lat="46.56699" lon="5.971">
        <ele>938.6</ele>
        <time>2019-08-08T06:53:13Z</time>
      </trkpt>
      <trkpt lat="46.56702" lon="5.9709">
        <ele>935.7</ele>
        <time>2019-08-08T06:54:07Z</time>
      </trkpt>
      <trkpt lat="46.56706" lon="5.97087">
        <ele>934.4</ele>
        <time>2019-08-08T06:54:15Z</time>
      </trkpt>
      <trkpt lat="46.56711" lon="5.97085">
        <ele>933.8</ele>
        <time>2019-08-08T06:54:21Z</time>
      </trkpt>
      <trkpt lat="46.56715" lon="5.97081">
        <ele>933.7</ele>
        <time>2019-08-08T06:54:26Z</time>
      </trkpt>
      <trkpt lat="46.56719" lon="5.97078">
        <ele>933.5</ele>
        <time>2019-08-08T06:54:30Z</time>
      </trkpt>
      <trkpt lat="46.56724" lon="5.97075">
        <ele>933.3</ele>
        <time>2019-08-08T06:54:34Z</time>
      </trkpt>
      <trkpt lat="46.56729" lon="5.97073">
        <ele>932.8</ele>
        <time>2019-08-08T06:54:38Z</time>
      </trkpt>
      <trkpt lat="46.56733" lon="5.97069">
        <ele>932.1</ele>
        <time>2019-08-08T06:54:44Z</time>
      </trkpt>
      <trkpt lat="46.56737" lon="5.97063">
        <ele>931.3</ele>
        <time>2019-08-08T06:54:49Z</time>
      </trkpt>
      <trkpt lat="46.56741" lon="5.97056">
        <ele>930.8</ele>
        <time>2019-08-08T06:54:53Z</time>
      </trkpt>
      <trkpt lat="46.56742" lon="5.97049">
        <ele>930.2</ele>
        <time>2019-08-08T06:54:57Z</time>
      </trkpt>
      <trkpt lat="46.56741" lon="5.97042">
        <ele>929.5</ele>
        <time>2019-08-08T06:55:02Z</time>
      </trkpt>
      <trkpt lat="46.56737" lon="5.97037">
        <ele>928.8</ele>
        <time>2019-08-08T06:55:07Z</time>
      </trkpt>
      <trkpt lat="46.56733" lon="5.97033">
        <ele>928.3</ele>
        <time>2019-08-08T06:55:14Z</time>
      </trkpt>
      <trkpt lat="46.56728" lon="5.9703">
        <ele>928.4</ele>
        <time>2019-08-08T06:55:21Z</time>
      </trkpt>
      <trkpt lat="46.56724" lon="5.97025">
        <ele>928.7</ele>
        <time>2019-08-08T06:55:27Z</time>
      </trkpt>
      <trkpt lat="46.56721" lon="5.97019">
        <ele>929.1</ele>
        <time>2019-08-08T06:55:32Z</time>
      </trkpt>
      <trkpt lat="46.56718" lon="5.97013">
        <ele>929.2</ele>
        <time>2019-08-08T06:55:38Z</time>
      </trkpt>
      <trkpt lat="46.56715" lon="5.97008">
        <ele>928.8</ele>
        <time>2019-08-08T06:55:43Z</time>
      </trkpt>
      <trkpt lat="46.5671" lon="5.97004">
        <ele>928.5</ele>
        <time>2019-08-08T06:55:50Z</time>
      </trkpt>
      <trkpt lat="46.56706" lon="5.97001">
        <ele>928.1</ele>
        <time>2019-08-08T06:55:57Z</time>
      </trkpt>
      <trkpt lat="46.56703" lon="5.96996">
        <ele>927.4</ele>
        <time>2019-08-08T06:56:03Z</time>
      </trkpt>
      <trkpt lat="46.567" lon="5.9699">
        <ele>926.9</ele>
        <time>2019-08-08T06:56:08Z</time>
      </trkpt>
      <trkpt lat="46.56697" lon="5.96985">
        <ele>926.3</ele>
        <time>2019-08-08T06:56:14Z</time>
      </trkpt>
      <trkpt lat="46.56693" lon="5.96979">
        <ele>925.9</ele>
        <time>2019-08-08T06:56:19Z</time>
      </trkpt>
      <trkpt lat="46.56689" lon="5.96974">
        <ele>925.6</ele>
        <time>2019-08-08T06:56:23Z</time>
      </trkpt>
      <trkpt lat="46.56685" lon="5.9697">
        <ele>925.2</ele>
        <time>2019-08-08T06:56:27Z</time>
      </trkpt>
      <trkpt lat="46.56682" lon="5.96965">
        <ele>924.8</ele>
        <time>2019-08-08T06:56:31Z</time>
      </trkpt>
      <trkpt lat="46.56678" lon="5.96961">
        <ele>924.2</ele>
        <time>2019-08-08T06:56:36Z</time>
      </trkpt>
      <trkpt lat="46.56675" lon="5.96956">
        <ele>923.9</ele>
        <time>2019-08-08T06:56:41Z</time>
      </trkpt>
      <trkpt lat="46.5667" lon="5.96952">
        <ele>923.7</ele>
        <time>2019-08-08T06:56:45Z</time>
      </trkpt>
      <trkpt lat="46.56666" lon="5.96949">
        <ele>923.7</ele>
        <time>2019-08-08T06:56:49Z</time>
      </trkpt>
      <trkpt lat="46.56661" lon="5.96947">
        <ele>923.5</ele>
        <time>2019-08-08T06:56:53Z</time>
      </trkpt>
      <trkpt lat="46.56656" lon="5.96945">
        <ele>923.5</ele>
        <time>2019-08-08T06:56:57Z</time>
      </trkpt>
      <trkpt lat="46.56651" lon="5.96944">
        <ele>923.4</ele>
        <time>2019-08-08T06:57:06Z</time>
      </trkpt>
      <trkpt lat="46.56646" lon="5.96944">
        <ele>923</ele>
        <time>2019-08-08T06:57:13Z</time>
      </trkpt>
      <trkpt lat="46.56642" lon="5.96946">
        <ele>922.4</ele>
        <time>2019-08-08T06:57:18Z</time>
      </trkpt>
      <trkpt lat="46.56637" lon="5.96949">
        <ele>921.6</ele>
        <time>2019-08-08T06:57:23Z</time>
      </trkpt>
      <trkpt lat="46.56632" lon="5.96948">
        <ele>921</ele>
        <time>2019-08-08T06:57:27Z</time>
      </trkpt>
      <trkpt lat="46.56626" lon="5.96946">
        <ele>920.1</ele>
        <time>2019-08-08T06:57:33Z</time>
      </trkpt>
      <trkpt lat="46.56621" lon="5.96945">
        <ele>919.8</ele>
        <time>2019-08-08T06:57:38Z</time>
      </trkpt>
      <trkpt lat="46.56617" lon="5.96946">
        <ele>919.7</ele>
        <time>2019-08-08T06:57:43Z</time>
      </trkpt>
      <trkpt lat="46.56612" lon="5.96947">
        <ele>919.7</ele>
        <time>2019-08-08T06:57:48Z</time>
      </trkpt>
      <trkpt lat="46.56607" lon="5.96947">
        <ele>919.7</ele>
        <time>2019-08-08T06:57:55Z</time>
      </trkpt>
      <trkpt lat="46.56594" lon="5.96949">
        <ele>920.1</ele>
        <time>2019-08-08T06:58:10Z</time>
      </trkpt>
      <trkpt lat="46.56587" lon="5.96949">
        <ele>920.2</ele>
        <time>2019-08-08T06:58:14Z</time>
      </trkpt>
      <trkpt lat="46.56582" lon="5.96946">
        <ele>920.5</ele>
        <time>2019-08-08T06:58:17Z</time>
      </trkpt>
      <trkpt lat="46.56577" lon="5.96944">
        <ele>920.7</ele>
        <time>2019-08-08T06:58:20Z</time>
      </trkpt>
      <trkpt lat="46.56572" lon="5.96944">
        <ele>921</ele>
        <time>2019-08-08T06:58:24Z</time>
      </trkpt>
      <trkpt lat="46.56567" lon="5.96945">
        <ele>921.5</ele>
        <time>2019-08-08T06:58:28Z</time>
      </trkpt>
      <trkpt lat="46.56556" lon="5.9695">
        <ele>922.9</ele>
        <time>2019-08-08T06:58:37Z</time>
      </trkpt>
      <trkpt lat="46.56552" lon="5.96954">
        <ele>923.6</ele>
        <time>2019-08-08T06:58:44Z</time>
      </trkpt>
      <trkpt lat="46.56506" lon="5.96934">
        <ele>934.2</ele>
        <time>2019-08-08T06:59:49Z</time>
      </trkpt>
      <trkpt lat="46.56501" lon="5.96933">
        <ele>933.9</ele>
        <time>2019-08-08T06:59:53Z</time>
      </trkpt>
      <trkpt lat="46.56497" lon="5.96936">
        <ele>933.6</ele>
        <time>2019-08-08T06:59:57Z</time>
      </trkpt>
      <trkpt lat="46.56492" lon="5.96936">
        <ele>933.6</ele>
        <time>2019-08-08T07:00:03Z</time>
      </trkpt>
      <trkpt lat="46.56486" lon="5.96935">
        <ele>933.9</ele>
        <time>2019-08-08T07:00:07Z</time>
      </trkpt>
      <trkpt lat="46.56481" lon="5.96936">
        <ele>934.5</ele>
        <time>2019-08-08T07:00:11Z</time>
      </trkpt>
      <trkpt lat="46.56476" lon="5.96937">
        <ele>935</ele>
        <time>2019-08-08T07:00:15Z</time>
      </trkpt>
      <trkpt lat="46.56472" lon="5.96939">
        <ele>935.7</ele>
        <time>2019-08-08T07:00:19Z</time>
      </trkpt>
      <trkpt lat="46.56466" lon="5.9694">
        <ele>936.9</ele>
        <time>2019-08-08T07:00:24Z</time>
      </trkpt>
      <trkpt lat="46.56461" lon="5.96941">
        <ele>938.5</ele>
        <time>2019-08-08T07:00:29Z</time>
      </trkpt>
      <trkpt lat="46.56456" lon="5.96944">
        <ele>939.8</ele>
        <time>2019-08-08T07:00:34Z</time>
      </trkpt>
      <trkpt lat="46.56451" lon="5.96943">
        <ele>941.8</ele>
        <time>2019-08-08T07:00:42Z</time>
      </trkpt>
      <trkpt lat="46.56446" lon="5.9694">
        <ele>943.6</ele>
        <time>2019-08-08T07:00:48Z</time>
      </trkpt>
      <trkpt lat="46.56441" lon="5.96937">
        <ele>945.1</ele>
        <time>2019-08-08T07:00:53Z</time>
      </trkpt>
      <trkpt lat="46.56437" lon="5.96933">
        <ele>945.9</ele>
        <time>2019-08-08T07:00:56Z</time>
      </trkpt>
      <trkpt lat="46.56433" lon="5.96928">
        <ele>946.6</ele>
        <time>2019-08-08T07:01:00Z</time>
      </trkpt>
      <trkpt lat="46.5643" lon="5.96922">
        <ele>947.5</ele>
        <time>2019-08-08T07:01:07Z</time>
      </trkpt>
      <trkpt lat="46.56428" lon="5.96915">
        <ele>948.2</ele>
        <time>2019-08-08T07:01:18Z</time>
      </trkpt>
      <trkpt lat="46.56425" lon="5.9691">
        <ele>948.6</ele>
        <time>2019-08-08T07:01:23Z</time>
      </trkpt>
      <trkpt lat="46.56423" lon="5.96903">
        <ele>949.2</ele>
        <time>2019-08-08T07:01:27Z</time>
      </trkpt>
      <trkpt lat="46.56421" lon="5.96897">
        <ele>949.9</ele>
        <time>2019-08-08T07:01:31Z</time>
      </trkpt>
      <trkpt lat="46.56417" lon="5.96893">
        <ele>950.5</ele>
        <time>2019-08-08T07:01:36Z</time>
      </trkpt>
      <trkpt lat="46.56412" lon="5.96891">
        <ele>951.1</ele>
        <time>2019-08-08T07:01:41Z</time>
      </trkpt>
      <trkpt lat="46.56398" lon="5.96875">
        <ele>950.9</ele>
        <time>2019-08-08T07:02:03Z</time>
      </trkpt>
      <trkpt lat="46.56394" lon="5.9687">
        <ele>950.2</ele>
        <time>2019-08-08T07:02:09Z</time>
      </trkpt>
      <trkpt lat="46.5639" lon="5.96866">
        <ele>949.9</ele>
        <time>2019-08-08T07:02:13Z</time>
      </trkpt>
      <trkpt lat="46.56386" lon="5.96862">
        <ele>949.6</ele>
        <time>2019-08-08T07:02:19Z</time>
      </trkpt>
      <trkpt lat="46.56381" lon="5.96857">
        <ele>949.7</ele>
        <time>2019-08-08T07:02:23Z</time>
      </trkpt>
      <trkpt lat="46.56377" lon="5.96854">
        <ele>950.1</ele>
        <time>2019-08-08T07:02:26Z</time>
      </trkpt>
      <trkpt lat="46.56373" lon="5.96849">
        <ele>950.7</ele>
        <time>2019-08-08T07:02:32Z</time>
      </trkpt>
      <trkpt lat="46.56368" lon="5.96845">
        <ele>950.5</ele>
        <time>2019-08-08T07:02:38Z</time>
      </trkpt>
      <trkpt lat="46.56365" lon="5.96841">
        <ele>949.7</ele>
        <time>2019-08-08T07:02:43Z</time>
      </trkpt>
      <trkpt lat="46.56361" lon="5.96837">
        <ele>948.6</ele>
        <time>2019-08-08T07:02:49Z</time>
      </trkpt>
      <trkpt lat="46.56359" lon="5.96831">
        <ele>947.8</ele>
        <time>2019-08-08T07:02:55Z</time>
      </trkpt>
      <trkpt lat="46.56355" lon="5.96827">
        <ele>947.5</ele>
        <time>2019-08-08T07:03:01Z</time>
      </trkpt>
      <trkpt lat="46.5635" lon="5.96822">
        <ele>947.5</ele>
        <time>2019-08-08T07:03:05Z</time>
      </trkpt>
      <trkpt lat="46.56341" lon="5.96813">
        <ele>947.6</ele>
        <time>2019-08-08T07:03:14Z</time>
      </trkpt>
      <trkpt lat="46.56336" lon="5.9681">
        <ele>947.6</ele>
        <time>2019-08-08T07:03:19Z</time>
      </trkpt>
      <trkpt lat="46.56331" lon="5.9681">
        <ele>947.3</ele>
        <time>2019-08-08T07:03:25Z</time>
      </trkpt>
      <trkpt lat="46.56314" lon="5.96812">
        <ele>948.5</ele>
        <time>2019-08-08T07:03:42Z</time>
      </trkpt>
      <trkpt lat="46.56308" lon="5.96812">
        <ele>948.8</ele>
        <time>2019-08-08T07:03:45Z</time>
      </trkpt>
      <trkpt lat="46.56304" lon="5.96813">
        <ele>949.7</ele>
        <time>2019-08-08T07:03:51Z</time>
      </trkpt>
      <trkpt lat="46.56299" lon="5.96811">
        <ele>950.5</ele>
        <time>2019-08-08T07:03:58Z</time>
      </trkpt>
      <trkpt lat="46.56295" lon="5.96807">
        <ele>951</ele>
        <time>2019-08-08T07:04:07Z</time>
      </trkpt>
      <trkpt lat="46.5629" lon="5.96804">
        <ele>950.7</ele>
        <time>2019-08-08T07:04:14Z</time>
      </trkpt>
      <trkpt lat="46.56285" lon="5.96804">
        <ele>950.4</ele>
        <time>2019-08-08T07:04:20Z</time>
      </trkpt>
      <trkpt lat="46.5628" lon="5.96803">
        <ele>950</ele>
        <time>2019-08-08T07:04:25Z</time>
      </trkpt>
      <trkpt lat="46.56274" lon="5.96802">
        <ele>949.5</ele>
        <time>2019-08-08T07:04:30Z</time>
      </trkpt>
      <trkpt lat="46.56269" lon="5.96801">
        <ele>948.4</ele>
        <time>2019-08-08T07:04:38Z</time>
      </trkpt>
      <trkpt lat="46.56264" lon="5.96799">
        <ele>947.8</ele>
        <time>2019-08-08T07:04:43Z</time>
      </trkpt>
      <trkpt lat="46.5626" lon="5.96799">
        <ele>948.1</ele>
        <time>2019-08-08T07:04:49Z</time>
      </trkpt>
      <trkpt lat="46.56255" lon="5.96799">
        <ele>948.7</ele>
        <time>2019-08-08T07:04:53Z</time>
      </trkpt>
      <trkpt lat="46.56249" lon="5.96797">
        <ele>949.3</ele>
        <time>2019-08-08T07:04:58Z</time>
      </trkpt>
      <trkpt lat="46.56244" lon="5.96797">
        <ele>949.8</ele>
        <time>2019-08-08T07:05:03Z</time>
      </trkpt>
      <trkpt lat="46.56239" lon="5.96797">
        <ele>950.2</ele>
        <time>2019-08-08T07:05:07Z</time>
      </trkpt>
      <trkpt lat="46.56234" lon="5.96797">
        <ele>950.7</ele>
        <time>2019-08-08T07:05:12Z</time>
      </trkpt>
      <trkpt lat="46.56229" lon="5.96798">
        <ele>951</ele>
        <time>2019-08-08T07:05:17Z</time>
      </trkpt>
      <trkpt lat="46.56224" lon="5.96797">
        <ele>950.8</ele>
        <time>2019-08-08T07:05:24Z</time>
      </trkpt>
      <trkpt lat="46.5622" lon="5.96793">
        <ele>950.3</ele>
        <time>2019-08-08T07:05:29Z</time>
      </trkpt>
      <trkpt lat="46.56215" lon="5.96791">
        <ele>949.9</ele>
        <time>2019-08-08T07:05:34Z</time>
      </trkpt>
      <trkpt lat="46.5621" lon="5.96788">
        <ele>949.7</ele>
        <time>2019-08-08T07:05:40Z</time>
      </trkpt>
      <trkpt lat="46.56206" lon="5.96784">
        <ele>949.7</ele>
        <time>2019-08-08T07:05:45Z</time>
      </trkpt>
      <trkpt lat="46.56197" lon="5.96775">
        <ele>950.7</ele>
        <time>2019-08-08T07:05:58Z</time>
      </trkpt>
      <trkpt lat="46.56193" lon="5.96771">
        <ele>951</ele>
        <time>2019-08-08T07:06:00Z</time>
      </trkpt>
      <trkpt lat="46.56189" lon="5.96765">
        <ele>951.6</ele>
        <time>2019-08-08T07:06:03Z</time>
      </trkpt>
      <trkpt lat="46.56185" lon="5.96759">
        <ele>952.6</ele>
        <time>2019-08-08T07:06:07Z</time>
      </trkpt>
      <trkpt lat="46.56181" lon="5.96755">
        <ele>953.5</ele>
        <time>2019-08-08T07:06:11Z</time>
      </trkpt>
      <trkpt lat="46.56178" lon="5.96749">
        <ele>954.4</ele>
        <time>2019-08-08T07:06:18Z</time>
      </trkpt>
      <trkpt lat="46.56174" lon="5.96743">
        <ele>954.8</ele>
        <time>2019-08-08T07:06:30Z</time>
      </trkpt>
      <trkpt lat="46.5617" lon="5.96738">
        <ele>955.3</ele>
        <time>2019-08-08T07:06:34Z</time>
      </trkpt>
      <trkpt lat="46.56167" lon="5.96732">
        <ele>955.8</ele>
        <time>2019-08-08T07:06:37Z</time>
      </trkpt>
      <trkpt lat="46.56163" lon="5.96727">
        <ele>957</ele>
        <time>2019-08-08T07:06:44Z</time>
      </trkpt>
      <trkpt lat="46.56159" lon="5.96722">
        <ele>958.1</ele>
        <time>2019-08-08T07:06:52Z</time>
      </trkpt>
      <trkpt lat="46.56155" lon="5.96718">
        <ele>958.6</ele>
        <time>2019-08-08T07:06:57Z</time>
      </trkpt>
      <trkpt lat="46.56151" lon="5.96715">
        <ele>958.8</ele>
        <time>2019-08-08T07:07:01Z</time>
      </trkpt>
      <trkpt lat="46.56146" lon="5.96713">
        <ele>958.9</ele>
        <time>2019-08-08T07:07:05Z</time>
      </trkpt>
      <trkpt lat="46.56142" lon="5.96712">
        <ele>959.2</ele>
        <time>2019-08-08T07:07:10Z</time>
      </trkpt>
      <trkpt lat="46.56137" lon="5.96711">
        <ele>959.6</ele>
        <time>2019-08-08T07:07:16Z</time>
      </trkpt>
      <trkpt lat="46.56132" lon="5.96712">
        <ele>959.6</ele>
        <time>2019-08-08T07:07:21Z</time>
      </trkpt>
      <trkpt lat="46.56127" lon="5.96713">
        <ele>959.3</ele>
        <time>2019-08-08T07:07:27Z</time>
      </trkpt>
      <trkpt lat="46.56122" lon="5.96717">
        <ele>959.4</ele>
        <time>2019-08-08T07:07:31Z</time>
      </trkpt>
      <trkpt lat="46.56118" lon="5.96721">
        <ele>959.5</ele>
        <time>2019-08-08T07:07:37Z</time>
      </trkpt>
      <trkpt lat="46.56114" lon="5.96726">
        <ele>959.8</ele>
        <time>2019-08-08T07:07:47Z</time>
      </trkpt>
      <trkpt lat="46.5611" lon="5.96728">
        <ele>960.3</ele>
        <time>2019-08-08T07:07:55Z</time>
      </trkpt>
      <trkpt lat="46.56105" lon="5.96732">
        <ele>960.7</ele>
        <time>2019-08-08T07:08:00Z</time>
      </trkpt>
      <trkpt lat="46.56101" lon="5.96735">
        <ele>961.1</ele>
        <time>2019-08-08T07:08:04Z</time>
      </trkpt>
      <trkpt lat="46.56097" lon="5.96739">
        <ele>961.3</ele>
        <time>2019-08-08T07:08:09Z</time>
      </trkpt>
      <trkpt lat="46.56092" lon="5.96742">
        <ele>961.1</ele>
        <time>2019-08-08T07:08:15Z</time>
      </trkpt>
      <trkpt lat="46.5609" lon="5.96749">
        <ele>961.3</ele>
        <time>2019-08-08T07:08:21Z</time>
      </trkpt>
      <trkpt lat="46.56086" lon="5.96754">
        <ele>961.6</ele>
        <time>2019-08-08T07:08:27Z</time>
      </trkpt>
      <trkpt lat="46.56068" lon="5.96766">
        <ele>965.2</ele>
        <time>2019-08-08T07:08:55Z</time>
      </trkpt>
      <trkpt lat="46.56063" lon="5.96772">
        <ele>966.3</ele>
        <time>2019-08-08T07:09:02Z</time>
      </trkpt>
      <trkpt lat="46.56054" lon="5.96785">
        <ele>967.1</ele>
        <time>2019-08-08T07:09:19Z</time>
      </trkpt>
      <trkpt lat="46.5605" lon="5.96789">
        <ele>967</ele>
        <time>2019-08-08T07:09:26Z</time>
      </trkpt>
      <trkpt lat="46.56048" lon="5.96796">
        <ele>967.2</ele>
        <time>2019-08-08T07:09:30Z</time>
      </trkpt>
      <trkpt lat="46.56035" lon="5.96814">
        <ele>971.4</ele>
        <time>2019-08-08T07:09:55Z</time>
      </trkpt>
      <trkpt lat="46.56031" lon="5.96819">
        <ele>971.7</ele>
        <time>2019-08-08T07:10:01Z</time>
      </trkpt>
      <trkpt lat="46.56027" lon="5.96828">
        <ele>972.2</ele>
        <time>2019-08-08T07:10:11Z</time>
      </trkpt>
      <trkpt lat="46.56017" lon="5.96837">
        <ele>972</ele>
        <time>2019-08-08T07:10:30Z</time>
      </trkpt>
      <trkpt lat="46.56012" lon="5.96839">
        <ele>973.2</ele>
        <time>2019-08-08T07:10:36Z</time>
      </trkpt>
      <trkpt lat="46.56007" lon="5.96842">
        <ele>974.7</ele>
        <time>2019-08-08T07:10:42Z</time>
      </trkpt>
      <trkpt lat="46.56003" lon="5.96849">
        <ele>975.7</ele>
        <time>2019-08-08T07:10:45Z</time>
      </trkpt>
      <trkpt lat="46.55999" lon="5.96857">
        <ele>976.4</ele>
        <time>2019-08-08T07:10:47Z</time>
      </trkpt>
      <trkpt lat="46.55995" lon="5.96863">
        <ele>977.5</ele>
        <time>2019-08-08T07:10:50Z</time>
      </trkpt>
      <trkpt lat="46.55991" lon="5.96872">
        <ele>979.9</ele>
        <time>2019-08-08T07:11:12Z</time>
      </trkpt>
      <trkpt lat="46.55989" lon="5.96878">
        <ele>979.1</ele>
        <time>2019-08-08T07:11:16Z</time>
      </trkpt>
      <trkpt lat="46.55987" lon="5.96886">
        <ele>978.5</ele>
        <time>2019-08-08T07:11:19Z</time>
      </trkpt>
      <trkpt lat="46.55986" lon="5.96892">
        <ele>977.8</ele>
        <time>2019-08-08T07:11:23Z</time>
      </trkpt>
      <trkpt lat="46.55973" lon="5.96947">
        <ele>977.1</ele>
        <time>2019-08-08T07:12:14Z</time>
      </trkpt>
      <trkpt lat="46.5597" lon="5.96953">
        <ele>977.4</ele>
        <time>2019-08-08T07:12:20Z</time>
      </trkpt>
      <trkpt lat="46.55969" lon="5.96963">
        <ele>977.4</ele>
        <time>2019-08-08T07:12:23Z</time>
      </trkpt>
      <trkpt lat="46.55967" lon="5.9697">
        <ele>977.4</ele>
        <time>2019-08-08T07:12:26Z</time>
      </trkpt>
      <trkpt lat="46.55961" lon="5.96983">
        <ele>978.4</ele>
        <time>2019-08-08T07:12:45Z</time>
      </trkpt>
      <trkpt lat="46.55952" lon="5.97008">
        <ele>979.3</ele>
        <time>2019-08-08T07:13:02Z</time>
      </trkpt>
      <trkpt lat="46.5595" lon="5.97014">
        <ele>979.7</ele>
        <time>2019-08-08T07:13:07Z</time>
      </trkpt>
      <trkpt lat="46.5595" lon="5.97022">
        <ele>980</ele>
        <time>2019-08-08T07:13:12Z</time>
      </trkpt>
      <trkpt lat="46.55948" lon="5.97029">
        <ele>980.7</ele>
        <time>2019-08-08T07:13:23Z</time>
      </trkpt>
      <trkpt lat="46.55947" lon="5.97037">
        <ele>981.6</ele>
        <time>2019-08-08T07:13:32Z</time>
      </trkpt>
      <trkpt lat="46.55948" lon="5.97044">
        <ele>981.9</ele>
        <time>2019-08-08T07:13:34Z</time>
      </trkpt>
      <trkpt lat="46.55949" lon="5.97051">
        <ele>982.3</ele>
        <time>2019-08-08T07:13:38Z</time>
      </trkpt>
      <trkpt lat="46.55943" lon="5.97097">
        <ele>985.9</ele>
        <time>2019-08-08T07:14:15Z</time>
      </trkpt>
      <trkpt lat="46.55942" lon="5.97106">
        <ele>985.8</ele>
        <time>2019-08-08T07:14:17Z</time>
      </trkpt>
      <trkpt lat="46.55936" lon="5.97121">
        <ele>984.9</ele>
        <time>2019-08-08T07:14:31Z</time>
      </trkpt>
      <trkpt lat="46.55928" lon="5.97134">
        <ele>984.9</ele>
        <time>2019-08-08T07:14:48Z</time>
      </trkpt>
      <trkpt lat="46.55925" lon="5.9714">
        <ele>986.3</ele>
        <time>2019-08-08T07:14:57Z</time>
      </trkpt>
      <trkpt lat="46.55925" lon="5.97148">
        <ele>986.7</ele>
        <time>2019-08-08T07:15:03Z</time>
      </trkpt>
      <trkpt lat="46.55924" lon="5.97154">
        <ele>986.9</ele>
        <time>2019-08-08T07:15:08Z</time>
      </trkpt>
      <trkpt lat="46.55918" lon="5.97157">
        <ele>987.2</ele>
        <time>2019-08-08T07:15:11Z</time>
      </trkpt>
      <trkpt lat="46.55914" lon="5.97159">
        <ele>987.5</ele>
        <time>2019-08-08T07:15:13Z</time>
      </trkpt>
      <trkpt lat="46.55898" lon="5.97167">
        <ele>992.9</ele>
        <time>2019-08-08T07:15:34Z</time>
      </trkpt>
      <trkpt lat="46.55892" lon="5.97174">
        <ele>994.5</ele>
        <time>2019-08-08T07:15:43Z</time>
      </trkpt>
      <trkpt lat="46.55888" lon="5.97181">
        <ele>995</ele>
        <time>2019-08-08T07:15:46Z</time>
      </trkpt>
      <trkpt lat="46.55885" lon="5.97187">
        <ele>995.7</ele>
        <time>2019-08-08T07:15:50Z</time>
      </trkpt>
      <trkpt lat="46.55879" lon="5.97196">
        <ele>998.8</ele>
        <time>2019-08-08T07:16:03Z</time>
      </trkpt>
      <trkpt lat="46.55876" lon="5.97203">
        <ele>999.5</ele>
        <time>2019-08-08T07:16:07Z</time>
      </trkpt>
      <trkpt lat="46.55874" lon="5.97208">
        <ele>1000.1</ele>
        <time>2019-08-08T07:16:12Z</time>
      </trkpt>
      <trkpt lat="46.55871" lon="5.97214">
        <ele>1000.4</ele>
        <time>2019-08-08T07:16:23Z</time>
      </trkpt>
      <trkpt lat="46.55862" lon="5.97251">
        <ele>1000.4</ele>
        <time>2019-08-08T07:16:57Z</time>
      </trkpt>
      <trkpt lat="46.55862" lon="5.97262">
        <ele>1000.5</ele>
        <time>2019-08-08T07:16:59Z</time>
      </trkpt>
      <trkpt lat="46.55862" lon="5.9727">
        <ele>1000.6</ele>
        <time>2019-08-08T07:17:01Z</time>
      </trkpt>
      <trkpt lat="46.55861" lon="5.97277">
        <ele>1000.6</ele>
        <time>2019-08-08T07:17:03Z</time>
      </trkpt>
      <trkpt lat="46.55861" lon="5.97284">
        <ele>1000.6</ele>
        <time>2019-08-08T07:17:06Z</time>
      </trkpt>
      <trkpt lat="46.55861" lon="5.97292">
        <ele>1000.4</ele>
        <time>2019-08-08T07:17:12Z</time>
      </trkpt>
      <trkpt lat="46.55862" lon="5.97299">
        <ele>1000.2</ele>
        <time>2019-08-08T07:17:17Z</time>
      </trkpt>
      <trkpt lat="46.55861" lon="5.97318">
        <ele>1001.1</ele>
        <time>2019-08-08T07:17:36Z</time>
      </trkpt>
      <trkpt lat="46.55861" lon="5.97325">
        <ele>1000.9</ele>
        <time>2019-08-08T07:17:41Z</time>
      </trkpt>
      <trkpt lat="46.5586" lon="5.9734">
        <ele>999.8</ele>
        <time>2019-08-08T07:17:51Z</time>
      </trkpt>
      <trkpt lat="46.5586" lon="5.97346">
        <ele>999.4</ele>
        <time>2019-08-08T07:17:56Z</time>
      </trkpt>
      <trkpt lat="46.55862" lon="5.97352">
        <ele>999.2</ele>
        <time>2019-08-08T07:18:05Z</time>
      </trkpt>
      <trkpt lat="46.55864" lon="5.97359">
        <ele>999.6</ele>
        <time>2019-08-08T07:18:10Z</time>
      </trkpt>
      <trkpt lat="46.55863" lon="5.97365">
        <ele>1001.3</ele>
        <time>2019-08-08T07:18:20Z</time>
      </trkpt>
      <trkpt lat="46.55862" lon="5.97381">
        <ele>1005.3</ele>
        <time>2019-08-08T07:18:42Z</time>
      </trkpt>
      <trkpt lat="46.5586" lon="5.97387">
        <ele>1005.5</ele>
        <time>2019-08-08T07:18:44Z</time>
      </trkpt>
      <trkpt lat="46.55859" lon="5.97394">
        <ele>1005.8</ele>
        <time>2019-08-08T07:18:46Z</time>
      </trkpt>
      <trkpt lat="46.55859" lon="5.97401">
        <ele>1006</ele>
        <time>2019-08-08T07:18:49Z</time>
      </trkpt>
      <trkpt lat="46.55857" lon="5.97409">
        <ele>1006.1</ele>
        <time>2019-08-08T07:18:52Z</time>
      </trkpt>
      <trkpt lat="46.55856" lon="5.97416">
        <ele>1006</ele>
        <time>2019-08-08T07:18:55Z</time>
      </trkpt>
      <trkpt lat="46.55854" lon="5.97421">
        <ele>1005.8</ele>
        <time>2019-08-08T07:19:03Z</time>
      </trkpt>
      <trkpt lat="46.55853" lon="5.97428">
        <ele>1005.6</ele>
        <time>2019-08-08T07:19:06Z</time>
      </trkpt>
      <trkpt lat="46.5585" lon="5.97434">
        <ele>1005.4</ele>
        <time>2019-08-08T07:19:09Z</time>
      </trkpt>
      <trkpt lat="46.55847" lon="5.9744">
        <ele>1005.2</ele>
        <time>2019-08-08T07:19:11Z</time>
      </trkpt>
      <trkpt lat="46.55832" lon="5.97473">
        <ele>1001.4</ele>
        <time>2019-08-08T07:19:41Z</time>
      </trkpt>
      <trkpt lat="46.55828" lon="5.97478">
        <ele>1001.3</ele>
        <time>2019-08-08T07:19:44Z</time>
      </trkpt>
      <trkpt lat="46.55824" lon="5.97483">
        <ele>1001.2</ele>
        <time>2019-08-08T07:19:48Z</time>
      </trkpt>
      <trkpt lat="46.55815" lon="5.97495">
        <ele>1001.1</ele>
        <time>2019-08-08T07:19:58Z</time>
      </trkpt>
      <trkpt lat="46.55812" lon="5.975">
        <ele>1001.4</ele>
        <time>2019-08-08T07:20:02Z</time>
      </trkpt>
      <trkpt lat="46.55808" lon="5.97504">
        <ele>1002.3</ele>
        <time>2019-08-08T07:20:07Z</time>
      </trkpt>
      <trkpt lat="46.55795" lon="5.97515">
        <ele>1005.8</ele>
        <time>2019-08-08T07:20:18Z</time>
      </trkpt>
      <trkpt lat="46.55791" lon="5.97519">
        <ele>1007.5</ele>
        <time>2019-08-08T07:20:27Z</time>
      </trkpt>
      <trkpt lat="46.55786" lon="5.97521">
        <ele>1008.5</ele>
        <time>2019-08-08T07:20:31Z</time>
      </trkpt>
      <trkpt lat="46.55781" lon="5.97524">
        <ele>1010.1</ele>
        <time>2019-08-08T07:20:37Z</time>
      </trkpt>
      <trkpt lat="46.55777" lon="5.97529">
        <ele>1011.3</ele>
        <time>2019-08-08T07:20:43Z</time>
      </trkpt>
      <trkpt lat="46.55773" lon="5.97531">
        <ele>1011.7</ele>
        <time>2019-08-08T07:20:53Z</time>
      </trkpt>
      <trkpt lat="46.55767" lon="5.97532">
        <ele>1012</ele>
        <time>2019-08-08T07:20:57Z</time>
      </trkpt>
      <trkpt lat="46.55762" lon="5.97534">
        <ele>1012.3</ele>
        <time>2019-08-08T07:21:01Z</time>
      </trkpt>
      <trkpt lat="46.55758" lon="5.97531">
        <ele>1014.7</ele>
        <time>2019-08-08T07:21:33Z</time>
      </trkpt>
      <trkpt lat="46.55754" lon="5.97527">
        <ele>1014.8</ele>
        <time>2019-08-08T07:21:37Z</time>
      </trkpt>
      <trkpt lat="46.55747" lon="5.97534">
        <ele>1013.4</ele>
        <time>2019-08-08T07:23:11Z</time>
      </trkpt>
      <trkpt lat="46.55747" lon="5.97523">
        <ele>1013.5</ele>
        <time>2019-08-08T07:23:30Z</time>
      </trkpt>
      <trkpt lat="46.55746" lon="5.97516">
        <ele>1013</ele>
        <time>2019-08-08T07:23:34Z</time>
      </trkpt>
      <trkpt lat="46.55746" lon="5.9751">
        <ele>1012.3</ele>
        <time>2019-08-08T07:23:39Z</time>
      </trkpt>
      <trkpt lat="46.55746" lon="5.97503">
        <ele>1010.7</ele>
        <time>2019-08-08T07:23:46Z</time>
      </trkpt>
      <trkpt lat="46.55754" lon="5.97501">
        <ele>1008.9</ele>
        <time>2019-08-08T07:24:03Z</time>
      </trkpt>
      <trkpt lat="46.55757" lon="5.97499">
        <ele>1005.8</ele>
        <time>2019-08-08T07:28:27Z</time>
      </trkpt>
      <trkpt lat="46.55743" lon="5.97492">
        <ele>1011.3</ele>
        <time>2019-08-08T07:29:37Z</time>
      </trkpt>
      <trkpt lat="46.55739" lon="5.9748">
        <ele>1012.6</ele>
        <time>2019-08-08T07:29:45Z</time>
      </trkpt>
      <trkpt lat="46.55731" lon="5.97465">
        <ele>1014.9</ele>
        <time>2019-08-08T07:30:00Z</time>
      </trkpt>
      <trkpt lat="46.55729" lon="5.97458">
        <ele>1016</ele>
        <time>2019-08-08T07:30:09Z</time>
      </trkpt>
      <trkpt lat="46.55725" lon="5.97453">
        <ele>1017.5</ele>
        <time>2019-08-08T07:30:26Z</time>
      </trkpt>
      <trkpt lat="46.5572" lon="5.97451">
        <ele>1018.5</ele>
        <time>2019-08-08T07:30:35Z</time>
      </trkpt>
      <trkpt lat="46.55716" lon="5.9745">
        <ele>1018.6</ele>
        <time>2019-08-08T07:30:38Z</time>
      </trkpt>
      <trkpt lat="46.5571" lon="5.9745">
        <ele>1018.8</ele>
        <time>2019-08-08T07:30:41Z</time>
      </trkpt>
      <trkpt lat="46.55705" lon="5.97449">
        <ele>1018.8</ele>
        <time>2019-08-08T07:30:47Z</time>
      </trkpt>
      <trkpt lat="46.55698" lon="5.97438">
        <ele>1015.3</ele>
        <time>2019-08-08T07:31:12Z</time>
      </trkpt>
      <trkpt lat="46.55694" lon="5.97434">
        <ele>1014.5</ele>
        <time>2019-08-08T07:31:15Z</time>
      </trkpt>
      <trkpt lat="46.55691" lon="5.97429">
        <ele>1013.7</ele>
        <time>2019-08-08T07:31:21Z</time>
      </trkpt>
      <trkpt lat="46.55687" lon="5.97423">
        <ele>1014.8</ele>
        <time>2019-08-08T07:31:32Z</time>
      </trkpt>
      <trkpt lat="46.55678" lon="5.97401">
        <ele>1014.7</ele>
        <time>2019-08-08T07:32:11Z</time>
      </trkpt>
      <trkpt lat="46.55667" lon="5.97377">
        <ele>1004</ele>
        <time>2019-08-08T07:32:47Z</time>
      </trkpt>
      <trkpt lat="46.55663" lon="5.9737">
        <ele>1004</ele>
        <time>2019-08-08T07:32:51Z</time>
      </trkpt>
      <trkpt lat="46.55658" lon="5.97365">
        <ele>1003.9</ele>
        <time>2019-08-08T07:32:58Z</time>
      </trkpt>
      <trkpt lat="46.55654" lon="5.97361">
        <ele>1004.3</ele>
        <time>2019-08-08T07:33:05Z</time>
      </trkpt>
      <trkpt lat="46.55651" lon="5.97357">
        <ele>1004.6</ele>
        <time>2019-08-08T07:33:11Z</time>
      </trkpt>
      <trkpt lat="46.55647" lon="5.97351">
        <ele>1004.8</ele>
        <time>2019-08-08T07:33:18Z</time>
      </trkpt>
      <trkpt lat="46.55644" lon="5.97347">
        <ele>1004.7</ele>
        <time>2019-08-08T07:33:22Z</time>
      </trkpt>
      <trkpt lat="46.55639" lon="5.97342">
        <ele>1004.3</ele>
        <time>2019-08-08T07:33:26Z</time>
      </trkpt>
      <trkpt lat="46.55634" lon="5.97337">
        <ele>1003.4</ele>
        <time>2019-08-08T07:33:30Z</time>
      </trkpt>
      <trkpt lat="46.55629" lon="5.97333">
        <ele>1002.8</ele>
        <time>2019-08-08T07:33:32Z</time>
      </trkpt>
      <trkpt lat="46.55623" lon="5.97328">
        <ele>1002.1</ele>
        <time>2019-08-08T07:33:34Z</time>
      </trkpt>
      <trkpt lat="46.55618" lon="5.97321">
        <ele>1001.4</ele>
        <time>2019-08-08T07:33:36Z</time>
      </trkpt>
      <trkpt lat="46.55614" lon="5.97317">
        <ele>1000.4</ele>
        <time>2019-08-08T07:33:39Z</time>
      </trkpt>
      <trkpt lat="46.55607" lon="5.97305">
        <ele>996.3</ele>
        <time>2019-08-08T07:34:16Z</time>
      </trkpt>
      <trkpt lat="46.55604" lon="5.973">
        <ele>995.1</ele>
        <time>2019-08-08T07:34:22Z</time>
      </trkpt>
      <trkpt lat="46.55603" lon="5.97293">
        <ele>993.5</ele>
        <time>2019-08-08T07:34:29Z</time>
      </trkpt>
      <trkpt lat="46.55602" lon="5.97287">
        <ele>991.1</ele>
        <time>2019-08-08T07:34:44Z</time>
      </trkpt>
      <trkpt lat="46.556" lon="5.97281">
        <ele>991.2</ele>
        <time>2019-08-08T07:34:56Z</time>
      </trkpt>
      <trkpt lat="46.55597" lon="5.97268">
        <ele>993.7</ele>
        <time>2019-08-08T07:35:14Z</time>
      </trkpt>
      <trkpt lat="46.55596" lon="5.97259">
        <ele>993.7</ele>
        <time>2019-08-08T07:35:16Z</time>
      </trkpt>
      <trkpt lat="46.55593" lon="5.9725">
        <ele>993.7</ele>
        <time>2019-08-08T07:35:18Z</time>
      </trkpt>
      <trkpt lat="46.55591" lon="5.97243">
        <ele>993.6</ele>
        <time>2019-08-08T07:35:21Z</time>
      </trkpt>
      <trkpt lat="46.55582" lon="5.97223">
        <ele>994.5</ele>
        <time>2019-08-08T07:35:40Z</time>
      </trkpt>
      <trkpt lat="46.55575" lon="5.97209">
        <ele>974.7</ele>
        <time>2019-08-08T07:37:49Z</time>
      </trkpt>
      <trkpt lat="46.55575" lon="5.97216">
        <ele>974.2</ele>
        <time>2019-08-08T07:37:53Z</time>
      </trkpt>
      <trkpt lat="46.55567" lon="5.97267">
        <ele>972.8</ele>
        <time>2019-08-08T07:38:32Z</time>
      </trkpt>
      <trkpt lat="46.55567" lon="5.97273">
        <ele>973.3</ele>
        <time>2019-08-08T07:38:48Z</time>
      </trkpt>
      <trkpt lat="46.55563" lon="5.97278">
        <ele>973.6</ele>
        <time>2019-08-08T07:38:55Z</time>
      </trkpt>
      <trkpt lat="46.55561" lon="5.97284">
        <ele>973.9</ele>
        <time>2019-08-08T07:39:02Z</time>
      </trkpt>
      <trkpt lat="46.5556" lon="5.97292">
        <ele>973.9</ele>
        <time>2019-08-08T07:39:07Z</time>
      </trkpt>
      <trkpt lat="46.55559" lon="5.97299">
        <ele>973.9</ele>
        <time>2019-08-08T07:39:12Z</time>
      </trkpt>
      <trkpt lat="46.55559" lon="5.97308">
        <ele>973.9</ele>
        <time>2019-08-08T07:39:15Z</time>
      </trkpt>
      <trkpt lat="46.55559" lon="5.97316">
        <ele>973.9</ele>
        <time>2019-08-08T07:39:18Z</time>
      </trkpt>
      <trkpt lat="46.55559" lon="5.97347">
        <ele>974.8</ele>
        <time>2019-08-08T07:39:36Z</time>
      </trkpt>
      <trkpt lat="46.55558" lon="5.97355">
        <ele>975.4</ele>
        <time>2019-08-08T07:39:40Z</time>
      </trkpt>
      <trkpt lat="46.55557" lon="5.97362">
        <ele>975.7</ele>
        <time>2019-08-08T07:39:42Z</time>
      </trkpt>
      <trkpt lat="46.55558" lon="5.97382">
        <ele>978</ele>
        <time>2019-08-08T07:39:55Z</time>
      </trkpt>
      <trkpt lat="46.55558" lon="5.97391">
        <ele>978.2</ele>
        <time>2019-08-08T07:39:57Z</time>
      </trkpt>
      <trkpt lat="46.55558" lon="5.97398">
        <ele>978.9</ele>
        <time>2019-08-08T07:40:01Z</time>
      </trkpt>
      <trkpt lat="46.55557" lon="5.97404">
        <ele>979.5</ele>
        <time>2019-08-08T07:40:06Z</time>
      </trkpt>
      <trkpt lat="46.55555" lon="5.9741">
        <ele>980.3</ele>
        <time>2019-08-08T07:40:11Z</time>
      </trkpt>
      <trkpt lat="46.55553" lon="5.97416">
        <ele>980.7</ele>
        <time>2019-08-08T07:40:14Z</time>
      </trkpt>
      <trkpt lat="46.5555" lon="5.97421">
        <ele>981</ele>
        <time>2019-08-08T07:40:18Z</time>
      </trkpt>
      <trkpt lat="46.55545" lon="5.97426">
        <ele>981.4</ele>
        <time>2019-08-08T07:40:22Z</time>
      </trkpt>
      <trkpt lat="46.5553" lon="5.97442">
        <ele>982.4</ele>
        <time>2019-08-08T07:40:32Z</time>
      </trkpt>
      <trkpt lat="46.55527" lon="5.97446">
        <ele>982.6</ele>
        <time>2019-08-08T07:40:37Z</time>
      </trkpt>
      <trkpt lat="46.55512" lon="5.97456">
        <ele>981.6</ele>
        <time>2019-08-08T07:40:58Z</time>
      </trkpt>
      <trkpt lat="46.55507" lon="5.97458">
        <ele>981.2</ele>
        <time>2019-08-08T07:41:00Z</time>
      </trkpt>
      <trkpt lat="46.55502" lon="5.9746">
        <ele>980.4</ele>
        <time>2019-08-08T07:41:04Z</time>
      </trkpt>
      <trkpt lat="46.5548" lon="5.97471">
        <ele>978.1</ele>
        <time>2019-08-08T07:41:34Z</time>
      </trkpt>
      <trkpt lat="46.55475" lon="5.97476">
        <ele>978</ele>
        <time>2019-08-08T07:41:36Z</time>
      </trkpt>
      <trkpt lat="46.55471" lon="5.97478">
        <ele>977.9</ele>
        <time>2019-08-08T07:41:38Z</time>
      </trkpt>
      <trkpt lat="46.55452" lon="5.97483">
        <ele>976.4</ele>
        <time>2019-08-08T07:41:58Z</time>
      </trkpt>
      <trkpt lat="46.55445" lon="5.97483">
        <ele>976.8</ele>
        <time>2019-08-08T07:42:08Z</time>
      </trkpt>
      <trkpt lat="46.5544" lon="5.9748">
        <ele>977.1</ele>
        <time>2019-08-08T07:42:11Z</time>
      </trkpt>
      <trkpt lat="46.5543" lon="5.97454">
        <ele>978</ele>
        <time>2019-08-08T07:42:26Z</time>
      </trkpt>
      <trkpt lat="46.55427" lon="5.97449">
        <ele>977.8</ele>
        <time>2019-08-08T07:42:28Z</time>
      </trkpt>
      <trkpt lat="46.55417" lon="5.97432">
        <ele>975.2</ele>
        <time>2019-08-08T07:42:42Z</time>
      </trkpt>
      <trkpt lat="46.55413" lon="5.97429">
        <ele>974.9</ele>
        <time>2019-08-08T07:42:46Z</time>
      </trkpt>
      <trkpt lat="46.55408" lon="5.97427">
        <ele>974.5</ele>
        <time>2019-08-08T07:42:52Z</time>
      </trkpt>
      <trkpt lat="46.55404" lon="5.97425">
        <ele>974.4</ele>
        <time>2019-08-08T07:42:55Z</time>
      </trkpt>
      <trkpt lat="46.55391" lon="5.97427">
        <ele>974.4</ele>
        <time>2019-08-08T07:43:07Z</time>
      </trkpt>
      <trkpt lat="46.55387" lon="5.97428">
        <ele>975.9</ele>
        <time>2019-08-08T07:43:15Z</time>
      </trkpt>
      <trkpt lat="46.55382" lon="5.97429">
        <ele>976.9</ele>
        <time>2019-08-08T07:43:21Z</time>
      </trkpt>
      <trkpt lat="46.55362" lon="5.97457">
        <ele>990.7</ele>
        <time>2019-08-08T07:43:54Z</time>
      </trkpt>
      <trkpt lat="46.55359" lon="5.97463">
        <ele>991.6</ele>
        <time>2019-08-08T07:43:59Z</time>
      </trkpt>
      <trkpt lat="46.55356" lon="5.97469">
        <ele>992.7</ele>
        <time>2019-08-08T07:44:05Z</time>
      </trkpt>
      <trkpt lat="46.55353" lon="5.97474">
        <ele>993.3</ele>
        <time>2019-08-08T07:44:10Z</time>
      </trkpt>
      <trkpt lat="46.55352" lon="5.97481">
        <ele>993.4</ele>
        <time>2019-08-08T07:44:13Z</time>
      </trkpt>
      <trkpt lat="46.55341" lon="5.97498">
        <ele>994.3</ele>
        <time>2019-08-08T07:44:36Z</time>
      </trkpt>
      <trkpt lat="46.55338" lon="5.97505">
        <ele>994.1</ele>
        <time>2019-08-08T07:44:40Z</time>
      </trkpt>
      <trkpt lat="46.55334" lon="5.97509">
        <ele>993.5</ele>
        <time>2019-08-08T07:44:45Z</time>
      </trkpt>
      <trkpt lat="46.55318" lon="5.97519">
        <ele>993.3</ele>
        <time>2019-08-08T07:45:08Z</time>
      </trkpt>
      <trkpt lat="46.5528" lon="5.97526">
        <ele>1004.5</ele>
        <time>2019-08-08T07:45:39Z</time>
      </trkpt>
      <trkpt lat="46.55275" lon="5.97528">
        <ele>1006.1</ele>
        <time>2019-08-08T07:45:45Z</time>
      </trkpt>
      <trkpt lat="46.55251" lon="5.97522">
        <ele>1012.6</ele>
        <time>2019-08-08T07:46:14Z</time>
      </trkpt>
      <trkpt lat="46.55241" lon="5.97519">
        <ele>1016.8</ele>
        <time>2019-08-08T07:46:27Z</time>
      </trkpt>
      <trkpt lat="46.55231" lon="5.97506">
        <ele>1021.2</ele>
        <time>2019-08-08T07:46:41Z</time>
      </trkpt>
      <trkpt lat="46.55215" lon="5.97483">
        <ele>1021.7</ele>
        <time>2019-08-08T07:46:52Z</time>
      </trkpt>
      <trkpt lat="46.55168" lon="5.97471">
        <ele>1026.2</ele>
        <time>2019-08-08T07:47:51Z</time>
      </trkpt>
      <trkpt lat="46.55161" lon="5.97468">
        <ele>1026.1</ele>
        <time>2019-08-08T07:47:54Z</time>
      </trkpt>
      <trkpt lat="46.55156" lon="5.97467">
        <ele>1026</ele>
        <time>2019-08-08T07:47:57Z</time>
      </trkpt>
      <trkpt lat="46.55151" lon="5.97469">
        <ele>1025.8</ele>
        <time>2019-08-08T07:48:01Z</time>
      </trkpt>
      <trkpt lat="46.55146" lon="5.97473">
        <ele>1025.5</ele>
        <time>2019-08-08T07:48:10Z</time>
      </trkpt>
      <trkpt lat="46.55141" lon="5.97476">
        <ele>1026</ele>
        <time>2019-08-08T07:48:17Z</time>
      </trkpt>
      <trkpt lat="46.55136" lon="5.97477">
        <ele>1026.2</ele>
        <time>2019-08-08T07:48:19Z</time>
      </trkpt>
      <trkpt lat="46.55131" lon="5.97478">
        <ele>1026.8</ele>
        <time>2019-08-08T07:48:26Z</time>
      </trkpt>
      <trkpt lat="46.5513" lon="5.97487">
        <ele>1026</ele>
        <time>2019-08-08T07:48:49Z</time>
      </trkpt>
      <trkpt lat="46.55128" lon="5.97493">
        <ele>1025.9</ele>
        <time>2019-08-08T07:49:10Z</time>
      </trkpt>
      <trkpt lat="46.55118" lon="5.97508">
        <ele>1024.9</ele>
        <time>2019-08-08T07:49:55Z</time>
      </trkpt>
      <trkpt lat="46.55079" lon="5.97541">
        <ele>1030.9</ele>
        <time>2019-08-08T07:51:14Z</time>
      </trkpt>
      <trkpt lat="46.55061" lon="5.97549">
        <ele>1033.7</ele>
        <time>2019-08-08T07:51:42Z</time>
      </trkpt>
      <trkpt lat="46.55056" lon="5.97552">
        <ele>1035.3</ele>
        <time>2019-08-08T07:51:54Z</time>
      </trkpt>
      <trkpt lat="46.55043" lon="5.97568">
        <ele>1042.1</ele>
        <time>2019-08-08T07:52:18Z</time>
      </trkpt>
      <trkpt lat="46.5504" lon="5.97573">
        <ele>1042.3</ele>
        <time>2019-08-08T07:52:20Z</time>
      </trkpt>
      <trkpt lat="46.55037" lon="5.97579">
        <ele>1042.8</ele>
        <time>2019-08-08T07:52:25Z</time>
      </trkpt>
      <trkpt lat="46.5503" lon="5.97591">
        <ele>1043.6</ele>
        <time>2019-08-08T07:52:45Z</time>
      </trkpt>
      <trkpt lat="46.55023" lon="5.97607">
        <ele>1045.2</ele>
        <time>2019-08-08T07:53:01Z</time>
      </trkpt>
      <trkpt lat="46.55024" lon="5.97613">
        <ele>1045.6</ele>
        <time>2019-08-08T07:53:05Z</time>
      </trkpt>
      <trkpt lat="46.5502" lon="5.97629">
        <ele>1047</ele>
        <time>2019-08-08T07:53:22Z</time>
      </trkpt>
      <trkpt lat="46.55012" lon="5.9764">
        <ele>1045.6</ele>
        <time>2019-08-08T07:53:49Z</time>
      </trkpt>
      <trkpt lat="46.55008" lon="5.97645">
        <ele>1045.5</ele>
        <time>2019-08-08T07:53:51Z</time>
      </trkpt>
      <trkpt lat="46.55004" lon="5.97649">
        <ele>1044.8</ele>
        <time>2019-08-08T07:54:00Z</time>
      </trkpt>
      <trkpt lat="46.54994" lon="5.97672">
        <ele>1041.5</ele>
        <time>2019-08-08T07:54:38Z</time>
      </trkpt>
      <trkpt lat="46.5499" lon="5.97675">
        <ele>1041.5</ele>
        <time>2019-08-08T07:54:45Z</time>
      </trkpt>
      <trkpt lat="46.54974" lon="5.97696">
        <ele>1042.5</ele>
        <time>2019-08-08T07:55:05Z</time>
      </trkpt>
      <trkpt lat="46.54971" lon="5.97703">
        <ele>1042.4</ele>
        <time>2019-08-08T07:55:08Z</time>
      </trkpt>
      <trkpt lat="46.5497" lon="5.9771">
        <ele>1042.1</ele>
        <time>2019-08-08T07:55:13Z</time>
      </trkpt>
      <trkpt lat="46.54968" lon="5.97717">
        <ele>1041.9</ele>
        <time>2019-08-08T07:55:17Z</time>
      </trkpt>
      <trkpt lat="46.54965" lon="5.97723">
        <ele>1041.8</ele>
        <time>2019-08-08T07:55:22Z</time>
      </trkpt>
      <trkpt lat="46.54963" lon="5.97729">
        <ele>1041.8</ele>
        <time>2019-08-08T07:55:29Z</time>
      </trkpt>
      <trkpt lat="46.54959" lon="5.97742">
        <ele>1041.2</ele>
        <time>2019-08-08T07:55:47Z</time>
      </trkpt>
      <trkpt lat="46.54954" lon="5.97745">
        <ele>1040.8</ele>
        <time>2019-08-08T07:55:55Z</time>
      </trkpt>
      <trkpt lat="46.54951" lon="5.97749">
        <ele>1040.6</ele>
        <time>2019-08-08T07:56:00Z</time>
      </trkpt>
      <trkpt lat="46.54947" lon="5.97753">
        <ele>1039.8</ele>
        <time>2019-08-08T07:56:12Z</time>
      </trkpt>
      <trkpt lat="46.54942" lon="5.97756">
        <ele>1039</ele>
        <time>2019-08-08T07:56:21Z</time>
      </trkpt>
      <trkpt lat="46.54937" lon="5.9776">
        <ele>1038.5</ele>
        <time>2019-08-08T07:56:25Z</time>
      </trkpt>
      <trkpt lat="46.54934" lon="5.97766">
        <ele>1038.2</ele>
        <time>2019-08-08T07:56:27Z</time>
      </trkpt>
      <trkpt lat="46.54931" lon="5.97772">
        <ele>1037.4</ele>
        <time>2019-08-08T07:56:32Z</time>
      </trkpt>
      <trkpt lat="46.54928" lon="5.97778">
        <ele>1036.7</ele>
        <time>2019-08-08T07:56:36Z</time>
      </trkpt>
      <trkpt lat="46.54925" lon="5.97784">
        <ele>1036</ele>
        <time>2019-08-08T07:56:43Z</time>
      </trkpt>
      <trkpt lat="46.54921" lon="5.97788">
        <ele>1035.3</ele>
        <time>2019-08-08T07:56:52Z</time>
      </trkpt>
      <trkpt lat="46.54911" lon="5.97802">
        <ele>1035.7</ele>
        <time>2019-08-08T07:57:08Z</time>
      </trkpt>
      <trkpt lat="46.54899" lon="5.97847">
        <ele>1021.4</ele>
        <time>2019-08-08T07:59:44Z</time>
      </trkpt>
      <trkpt lat="46.549" lon="5.97853">
        <ele>1021.4</ele>
        <time>2019-08-08T07:59:47Z</time>
      </trkpt>
      <trkpt lat="46.54899" lon="5.97868">
        <ele>1021.6</ele>
        <time>2019-08-08T08:00:00Z</time>
      </trkpt>
      <trkpt lat="46.54899" lon="5.97874">
        <ele>1021.7</ele>
        <time>2019-08-08T08:00:04Z</time>
      </trkpt>
      <trkpt lat="46.549" lon="5.97881">
        <ele>1021.8</ele>
        <time>2019-08-08T08:00:07Z</time>
      </trkpt>
      <trkpt lat="46.54902" lon="5.97889">
        <ele>1021.9</ele>
        <time>2019-08-08T08:00:10Z</time>
      </trkpt>
      <trkpt lat="46.54905" lon="5.97908">
        <ele>1023.5</ele>
        <time>2019-08-08T08:00:23Z</time>
      </trkpt>
      <trkpt lat="46.54907" lon="5.97915">
        <ele>1024</ele>
        <time>2019-08-08T08:00:28Z</time>
      </trkpt>
      <trkpt lat="46.54913" lon="5.97925">
        <ele>1024.9</ele>
        <time>2019-08-08T08:00:37Z</time>
      </trkpt>
      <trkpt lat="46.54916" lon="5.97932">
        <ele>1025</ele>
        <time>2019-08-08T08:00:44Z</time>
      </trkpt>
      <trkpt lat="46.54919" lon="5.97943">
        <ele>1024.9</ele>
        <time>2019-08-08T08:00:56Z</time>
      </trkpt>
      <trkpt lat="46.54921" lon="5.97949">
        <ele>1024.9</ele>
        <time>2019-08-08T08:00:59Z</time>
      </trkpt>
      <trkpt lat="46.54924" lon="5.97969">
        <ele>1025.4</ele>
        <time>2019-08-08T08:01:10Z</time>
      </trkpt>
      <trkpt lat="46.54925" lon="5.97976">
        <ele>1025.8</ele>
        <time>2019-08-08T08:01:14Z</time>
      </trkpt>
      <trkpt lat="46.54926" lon="5.97983">
        <ele>1026.3</ele>
        <time>2019-08-08T08:01:18Z</time>
      </trkpt>
      <trkpt lat="46.54927" lon="5.9799">
        <ele>1027.1</ele>
        <time>2019-08-08T08:01:24Z</time>
      </trkpt>
      <trkpt lat="46.5493" lon="5.97995">
        <ele>1027.8</ele>
        <time>2019-08-08T08:01:29Z</time>
      </trkpt>
      <trkpt lat="46.54932" lon="5.98002">
        <ele>1028.7</ele>
        <time>2019-08-08T08:01:36Z</time>
      </trkpt>
      <trkpt lat="46.54933" lon="5.98012">
        <ele>1029.3</ele>
        <time>2019-08-08T08:01:43Z</time>
      </trkpt>
      <trkpt lat="46.54934" lon="5.98021">
        <ele>1029.5</ele>
        <time>2019-08-08T08:01:47Z</time>
      </trkpt>
      <trkpt lat="46.54934" lon="5.98028">
        <ele>1029.7</ele>
        <time>2019-08-08T08:01:50Z</time>
      </trkpt>
      <trkpt lat="46.54933" lon="5.98036">
        <ele>1029.9</ele>
        <time>2019-08-08T08:01:53Z</time>
      </trkpt>
      <trkpt lat="46.54943" lon="5.98056">
        <ele>1030.5</ele>
        <time>2019-08-08T08:02:17Z</time>
      </trkpt>
      <trkpt lat="46.54946" lon="5.98062">
        <ele>1030.6</ele>
        <time>2019-08-08T08:02:22Z</time>
      </trkpt>
      <trkpt lat="46.5495" lon="5.98067">
        <ele>1030.6</ele>
        <time>2019-08-08T08:02:28Z</time>
      </trkpt>
      <trkpt lat="46.54954" lon="5.98071">
        <ele>1030.2</ele>
        <time>2019-08-08T08:02:34Z</time>
      </trkpt>
      <trkpt lat="46.54958" lon="5.98075">
        <ele>1029.7</ele>
        <time>2019-08-08T08:02:38Z</time>
      </trkpt>
      <trkpt lat="46.54962" lon="5.98079">
        <ele>1028.9</ele>
        <time>2019-08-08T08:02:43Z</time>
      </trkpt>
      <trkpt lat="46.54966" lon="5.98084">
        <ele>1027.9</ele>
        <time>2019-08-08T08:02:51Z</time>
      </trkpt>
      <trkpt lat="46.54968" lon="5.98091">
        <ele>1027.4</ele>
        <time>2019-08-08T08:02:56Z</time>
      </trkpt>
      <trkpt lat="46.5497" lon="5.98099">
        <ele>1027.2</ele>
        <time>2019-08-08T08:02:59Z</time>
      </trkpt>
      <trkpt lat="46.54974" lon="5.98104">
        <ele>1027</ele>
        <time>2019-08-08T08:03:02Z</time>
      </trkpt>
      <trkpt lat="46.54977" lon="5.98109">
        <ele>1026.7</ele>
        <time>2019-08-08T08:03:07Z</time>
      </trkpt>
      <trkpt lat="46.54979" lon="5.98115">
        <ele>1026.6</ele>
        <time>2019-08-08T08:03:12Z</time>
      </trkpt>
      <trkpt lat="46.54981" lon="5.98122">
        <ele>1026.5</ele>
        <time>2019-08-08T08:03:18Z</time>
      </trkpt>
      <trkpt lat="46.54984" lon="5.98129">
        <ele>1026.4</ele>
        <time>2019-08-08T08:03:23Z</time>
      </trkpt>
      <trkpt lat="46.54988" lon="5.98135">
        <ele>1026.4</ele>
        <time>2019-08-08T08:03:26Z</time>
      </trkpt>
      <trkpt lat="46.54992" lon="5.98141">
        <ele>1026.7</ele>
        <time>2019-08-08T08:03:31Z</time>
      </trkpt>
      <trkpt lat="46.54997" lon="5.98146">
        <ele>1026.9</ele>
        <time>2019-08-08T08:03:34Z</time>
      </trkpt>
      <trkpt lat="46.55006" lon="5.98157">
        <ele>1028.3</ele>
        <time>2019-08-08T08:03:44Z</time>
      </trkpt>
      <trkpt lat="46.5501" lon="5.98162">
        <ele>1028.8</ele>
        <time>2019-08-08T08:03:49Z</time>
      </trkpt>
      <trkpt lat="46.55012" lon="5.98168">
        <ele>1029.1</ele>
        <time>2019-08-08T08:03:53Z</time>
      </trkpt>
      <trkpt lat="46.55014" lon="5.98181">
        <ele>1030.2</ele>
        <time>2019-08-08T08:04:03Z</time>
      </trkpt>
      <trkpt lat="46.55015" lon="5.98188">
        <ele>1031.2</ele>
        <time>2019-08-08T08:04:08Z</time>
      </trkpt>
      <trkpt lat="46.55018" lon="5.98195">
        <ele>1032.2</ele>
        <time>2019-08-08T08:04:13Z</time>
      </trkpt>
      <trkpt lat="46.5502" lon="5.98202">
        <ele>1033</ele>
        <time>2019-08-08T08:04:18Z</time>
      </trkpt>
      <trkpt lat="46.55023" lon="5.98208">
        <ele>1033.8</ele>
        <time>2019-08-08T08:04:24Z</time>
      </trkpt>
      <trkpt lat="46.55023" lon="5.98215">
        <ele>1034.3</ele>
        <time>2019-08-08T08:04:28Z</time>
      </trkpt>
      <trkpt lat="46.55025" lon="5.98223">
        <ele>1034.6</ele>
        <time>2019-08-08T08:04:31Z</time>
      </trkpt>
      <trkpt lat="46.55032" lon="5.98228">
        <ele>1035.1</ele>
        <time>2019-08-08T08:04:34Z</time>
      </trkpt>
      <trkpt lat="46.55036" lon="5.98232">
        <ele>1035.5</ele>
        <time>2019-08-08T08:04:37Z</time>
      </trkpt>
      <trkpt lat="46.55038" lon="5.98238">
        <ele>1036.9</ele>
        <time>2019-08-08T08:04:44Z</time>
      </trkpt>
      <trkpt lat="46.55042" lon="5.98243">
        <ele>1038.4</ele>
        <time>2019-08-08T08:04:53Z</time>
      </trkpt>
      <trkpt lat="46.55048" lon="5.98265">
        <ele>1038.9</ele>
        <time>2019-08-08T08:05:06Z</time>
      </trkpt>
      <trkpt lat="46.55049" lon="5.98273">
        <ele>1039.1</ele>
        <time>2019-08-08T08:05:11Z</time>
      </trkpt>
      <trkpt lat="46.5505" lon="5.98281">
        <ele>1039.4</ele>
        <time>2019-08-08T08:05:16Z</time>
      </trkpt>
      <trkpt lat="46.55051" lon="5.98288">
        <ele>1039.7</ele>
        <time>2019-08-08T08:05:22Z</time>
      </trkpt>
      <trkpt lat="46.5505" lon="5.98295">
        <ele>1040.1</ele>
        <time>2019-08-08T08:05:26Z</time>
      </trkpt>
      <trkpt lat="46.55048" lon="5.98301">
        <ele>1040.6</ele>
        <time>2019-08-08T08:05:30Z</time>
      </trkpt>
      <trkpt lat="46.55048" lon="5.98308">
        <ele>1040.9</ele>
        <time>2019-08-08T08:05:33Z</time>
      </trkpt>
      <trkpt lat="46.55048" lon="5.98315">
        <ele>1041.3</ele>
        <time>2019-08-08T08:05:38Z</time>
      </trkpt>
      <trkpt lat="46.55046" lon="5.98322">
        <ele>1041.2</ele>
        <time>2019-08-08T08:05:44Z</time>
      </trkpt>
      <trkpt lat="46.55044" lon="5.98328">
        <ele>1040.8</ele>
        <time>2019-08-08T08:05:48Z</time>
      </trkpt>
      <trkpt lat="46.55042" lon="5.98334">
        <ele>1040.3</ele>
        <time>2019-08-08T08:05:52Z</time>
      </trkpt>
      <trkpt lat="46.5504" lon="5.98342">
        <ele>1039.7</ele>
        <time>2019-08-08T08:05:56Z</time>
      </trkpt>
      <trkpt lat="46.55038" lon="5.98349">
        <ele>1038.9</ele>
        <time>2019-08-08T08:06:00Z</time>
      </trkpt>
      <trkpt lat="46.55036" lon="5.98356">
        <ele>1037.5</ele>
        <time>2019-08-08T08:06:06Z</time>
      </trkpt>
      <trkpt lat="46.55034" lon="5.98363">
        <ele>1036.1</ele>
        <time>2019-08-08T08:06:12Z</time>
      </trkpt>
      <trkpt lat="46.55037" lon="5.98386">
        <ele>1033.1</ele>
        <time>2019-08-08T08:06:23Z</time>
      </trkpt>
      <trkpt lat="46.55037" lon="5.98392">
        <ele>1032.7</ele>
        <time>2019-08-08T08:06:28Z</time>
      </trkpt>
      <trkpt lat="46.55038" lon="5.98417">
        <ele>1032.4</ele>
        <time>2019-08-08T08:06:39Z</time>
      </trkpt>
      <trkpt lat="46.55042" lon="5.98448">
        <ele>1033</ele>
        <time>2019-08-08T08:07:00Z</time>
      </trkpt>
      <trkpt lat="46.55044" lon="5.98456">
        <ele>1033</ele>
        <time>2019-08-08T08:07:04Z</time>
      </trkpt>
      <trkpt lat="46.55044" lon="5.98463">
        <ele>1033.2</ele>
        <time>2019-08-08T08:07:08Z</time>
      </trkpt>
      <trkpt lat="46.55044" lon="5.9847">
        <ele>1033.5</ele>
        <time>2019-08-08T08:07:13Z</time>
      </trkpt>
      <trkpt lat="46.55045" lon="5.98477">
        <ele>1034</ele>
        <time>2019-08-08T08:07:18Z</time>
      </trkpt>
      <trkpt lat="46.55045" lon="5.98485">
        <ele>1034.5</ele>
        <time>2019-08-08T08:07:25Z</time>
      </trkpt>
      <trkpt lat="46.55047" lon="5.98492">
        <ele>1034.8</ele>
        <time>2019-08-08T08:07:31Z</time>
      </trkpt>
      <trkpt lat="46.55048" lon="5.985">
        <ele>1034.7</ele>
        <time>2019-08-08T08:07:35Z</time>
      </trkpt>
      <trkpt lat="46.55048" lon="5.98507">
        <ele>1034.6</ele>
        <time>2019-08-08T08:07:40Z</time>
      </trkpt>
      <trkpt lat="46.55049" lon="5.98514">
        <ele>1034.6</ele>
        <time>2019-08-08T08:07:44Z</time>
      </trkpt>
      <trkpt lat="46.5505" lon="5.98521">
        <ele>1034.6</ele>
        <time>2019-08-08T08:07:47Z</time>
      </trkpt>
      <trkpt lat="46.5505" lon="5.98528">
        <ele>1034.6</ele>
        <time>2019-08-08T08:07:52Z</time>
      </trkpt>
      <trkpt lat="46.55051" lon="5.98534">
        <ele>1034.5</ele>
        <time>2019-08-08T08:07:55Z</time>
      </trkpt>
      <trkpt lat="46.55052" lon="5.98542">
        <ele>1034.6</ele>
        <time>2019-08-08T08:07:59Z</time>
      </trkpt>
      <trkpt lat="46.55053" lon="5.98549">
        <ele>1034.8</ele>
        <time>2019-08-08T08:08:03Z</time>
      </trkpt>
      <trkpt lat="46.55058" lon="5.98565">
        <ele>1035.7</ele>
        <time>2019-08-08T08:08:15Z</time>
      </trkpt>
      <trkpt lat="46.55057" lon="5.98572">
        <ele>1035.9</ele>
        <time>2019-08-08T08:08:20Z</time>
      </trkpt>
      <trkpt lat="46.55057" lon="5.98579">
        <ele>1036.4</ele>
        <time>2019-08-08T08:08:24Z</time>
      </trkpt>
      <trkpt lat="46.55059" lon="5.98586">
        <ele>1037.1</ele>
        <time>2019-08-08T08:08:28Z</time>
      </trkpt>
      <trkpt lat="46.55062" lon="5.98593">
        <ele>1038</ele>
        <time>2019-08-08T08:08:32Z</time>
      </trkpt>
      <trkpt lat="46.55064" lon="5.986">
        <ele>1039</ele>
        <time>2019-08-08T08:08:36Z</time>
      </trkpt>
      <trkpt lat="46.55065" lon="5.98606">
        <ele>1040.2</ele>
        <time>2019-08-08T08:08:41Z</time>
      </trkpt>
      <trkpt lat="46.55066" lon="5.98614">
        <ele>1041.2</ele>
        <time>2019-08-08T08:08:46Z</time>
      </trkpt>
      <trkpt lat="46.55066" lon="5.98621">
        <ele>1041.9</ele>
        <time>2019-08-08T08:08:52Z</time>
      </trkpt>
      <trkpt lat="46.55065" lon="5.98637">
        <ele>1049.9</ele>
        <time>2019-08-08T08:09:50Z</time>
      </trkpt>
      <trkpt lat="46.55067" lon="5.98651">
        <ele>1050.2</ele>
        <time>2019-08-08T08:10:01Z</time>
      </trkpt>
      <trkpt lat="46.55069" lon="5.98659">
        <ele>1050.4</ele>
        <time>2019-08-08T08:10:06Z</time>
      </trkpt>
      <trkpt lat="46.55071" lon="5.98666">
        <ele>1050.6</ele>
        <time>2019-08-08T08:10:09Z</time>
      </trkpt>
      <trkpt lat="46.55072" lon="5.98688">
        <ele>1051.3</ele>
        <time>2019-08-08T08:10:27Z</time>
      </trkpt>
      <trkpt lat="46.55078" lon="5.98708">
        <ele>1053.7</ele>
        <time>2019-08-08T08:10:42Z</time>
      </trkpt>
      <trkpt lat="46.55078" lon="5.98715">
        <ele>1054.2</ele>
        <time>2019-08-08T08:10:48Z</time>
      </trkpt>
      <trkpt lat="46.55079" lon="5.98723">
        <ele>1054.4</ele>
        <time>2019-08-08T08:10:53Z</time>
      </trkpt>
      <trkpt lat="46.55087" lon="5.98736">
        <ele>1055.2</ele>
        <time>2019-08-08T08:11:04Z</time>
      </trkpt>
      <trkpt lat="46.55092" lon="5.98751">
        <ele>1055.1</ele>
        <time>2019-08-08T08:11:27Z</time>
      </trkpt>
      <trkpt lat="46.55088" lon="5.98755">
        <ele>1054.2</ele>
        <time>2019-08-08T08:11:31Z</time>
      </trkpt>
      <trkpt lat="46.55083" lon="5.98757">
        <ele>1053.1</ele>
        <time>2019-08-08T08:11:36Z</time>
      </trkpt>
      <trkpt lat="46.55079" lon="5.98761">
        <ele>1050.4</ele>
        <time>2019-08-08T08:11:43Z</time>
      </trkpt>
      <trkpt lat="46.55075" lon="5.98766">
        <ele>1048.5</ele>
        <time>2019-08-08T08:11:48Z</time>
      </trkpt>
      <trkpt lat="46.55069" lon="5.98778">
        <ele>1044.9</ele>
        <time>2019-08-08T08:12:03Z</time>
      </trkpt>
      <trkpt lat="46.55067" lon="5.98785">
        <ele>1044.6</ele>
        <time>2019-08-08T08:12:07Z</time>
      </trkpt>
      <trkpt lat="46.55065" lon="5.98791">
        <ele>1044.2</ele>
        <time>2019-08-08T08:12:12Z</time>
      </trkpt>
      <trkpt lat="46.55065" lon="5.98811">
        <ele>1042.6</ele>
        <time>2019-08-08T08:12:23Z</time>
      </trkpt>
      <trkpt lat="46.55066" lon="5.98818">
        <ele>1042.1</ele>
        <time>2019-08-08T08:12:27Z</time>
      </trkpt>
      <trkpt lat="46.55064" lon="5.98825">
        <ele>1041.7</ele>
        <time>2019-08-08T08:12:31Z</time>
      </trkpt>
      <trkpt lat="46.55063" lon="5.98831">
        <ele>1041.4</ele>
        <time>2019-08-08T08:12:33Z</time>
      </trkpt>
      <trkpt lat="46.55061" lon="5.98837">
        <ele>1041.3</ele>
        <time>2019-08-08T08:12:35Z</time>
      </trkpt>
      <trkpt lat="46.55059" lon="5.98845">
        <ele>1041</ele>
        <time>2019-08-08T08:12:41Z</time>
      </trkpt>
      <trkpt lat="46.55057" lon="5.98851">
        <ele>1040.9</ele>
        <time>2019-08-08T08:12:44Z</time>
      </trkpt>
      <trkpt lat="46.55054" lon="5.98856">
        <ele>1040.9</ele>
        <time>2019-08-08T08:12:48Z</time>
      </trkpt>
      <trkpt lat="46.5505" lon="5.98862">
        <ele>1040.8</ele>
        <time>2019-08-08T08:12:55Z</time>
      </trkpt>
      <trkpt lat="46.55046" lon="5.98875">
        <ele>1040.3</ele>
        <time>2019-08-08T08:13:11Z</time>
      </trkpt>
      <trkpt lat="46.55047" lon="5.98882">
        <ele>1040.2</ele>
        <time>2019-08-08T08:13:14Z</time>
      </trkpt>
      <trkpt lat="46.55047" lon="5.98889">
        <ele>1040.6</ele>
        <time>2019-08-08T08:13:22Z</time>
      </trkpt>
      <trkpt lat="46.55045" lon="5.98895">
        <ele>1041</ele>
        <time>2019-08-08T08:13:27Z</time>
      </trkpt>
      <trkpt lat="46.55045" lon="5.98911">
        <ele>1041.6</ele>
        <time>2019-08-08T08:13:35Z</time>
      </trkpt>
      <trkpt lat="46.55045" lon="5.98918">
        <ele>1041</ele>
        <time>2019-08-08T08:13:41Z</time>
      </trkpt>
      <trkpt lat="46.55044" lon="5.98924">
        <ele>1039.9</ele>
        <time>2019-08-08T08:13:47Z</time>
      </trkpt>
      <trkpt lat="46.55043" lon="5.98932">
        <ele>1038.2</ele>
        <time>2019-08-08T08:13:55Z</time>
      </trkpt>
      <trkpt lat="46.55037" lon="5.98946">
        <ele>1035.6</ele>
        <time>2019-08-08T08:14:07Z</time>
      </trkpt>
      <trkpt lat="46.55034" lon="5.98953">
        <ele>1035.4</ele>
        <time>2019-08-08T08:14:11Z</time>
      </trkpt>
      <trkpt lat="46.55032" lon="5.98959">
        <ele>1035.5</ele>
        <time>2019-08-08T08:14:14Z</time>
      </trkpt>
      <trkpt lat="46.5503" lon="5.98965">
        <ele>1035.7</ele>
        <time>2019-08-08T08:14:19Z</time>
      </trkpt>
      <trkpt lat="46.55025" lon="5.98983">
        <ele>1037.8</ele>
        <time>2019-08-08T08:14:34Z</time>
      </trkpt>
      <trkpt lat="46.55023" lon="5.98991">
        <ele>1038.1</ele>
        <time>2019-08-08T08:14:36Z</time>
      </trkpt>
      <trkpt lat="46.55018" lon="5.98998">
        <ele>1038.2</ele>
        <time>2019-08-08T08:14:38Z</time>
      </trkpt>
      <trkpt lat="46.55015" lon="5.99004">
        <ele>1038.5</ele>
        <time>2019-08-08T08:14:43Z</time>
      </trkpt>
      <trkpt lat="46.55006" lon="5.99005">
        <ele>1037.7</ele>
        <time>2019-08-08T08:14:58Z</time>
      </trkpt>
      <trkpt lat="46.55001" lon="5.99007">
        <ele>1037.4</ele>
        <time>2019-08-08T08:15:01Z</time>
      </trkpt>
      <trkpt lat="46.54998" lon="5.99012">
        <ele>1036.8</ele>
        <time>2019-08-08T08:15:07Z</time>
      </trkpt>
      <trkpt lat="46.54991" lon="5.99027">
        <ele>1034.4</ele>
        <time>2019-08-08T08:15:24Z</time>
      </trkpt>
      <trkpt lat="46.54988" lon="5.99033">
        <ele>1034.2</ele>
        <time>2019-08-08T08:15:29Z</time>
      </trkpt>
      <trkpt lat="46.54986" lon="5.9904">
        <ele>1034.2</ele>
        <time>2019-08-08T08:15:35Z</time>
      </trkpt>
      <trkpt lat="46.54983" lon="5.99046">
        <ele>1034.1</ele>
        <time>2019-08-08T08:15:40Z</time>
      </trkpt>
      <trkpt lat="46.5498" lon="5.99051">
        <ele>1033.7</ele>
        <time>2019-08-08T08:15:45Z</time>
      </trkpt>
      <trkpt lat="46.54977" lon="5.99058">
        <ele>1033.5</ele>
        <time>2019-08-08T08:15:48Z</time>
      </trkpt>
      <trkpt lat="46.54973" lon="5.99072">
        <ele>1033.2</ele>
        <time>2019-08-08T08:16:02Z</time>
      </trkpt>
      <trkpt lat="46.54956" lon="5.99186">
        <ele>1031.7</ele>
        <time>2019-08-08T08:17:22Z</time>
      </trkpt>
      <trkpt lat="46.54953" lon="5.99192">
        <ele>1031.4</ele>
        <time>2019-08-08T08:17:25Z</time>
      </trkpt>
      <trkpt lat="46.54951" lon="5.99206">
        <ele>1030.4</ele>
        <time>2019-08-08T08:17:35Z</time>
      </trkpt>
      <trkpt lat="46.5495" lon="5.99212">
        <ele>1031.5</ele>
        <time>2019-08-08T08:17:44Z</time>
      </trkpt>
      <trkpt lat="46.54948" lon="5.99218">
        <ele>1032.2</ele>
        <time>2019-08-08T08:17:48Z</time>
      </trkpt>
      <trkpt lat="46.54943" lon="5.99227">
        <ele>1032.8</ele>
        <time>2019-08-08T08:18:03Z</time>
      </trkpt>
      <trkpt lat="46.54939" lon="5.99233">
        <ele>1032.5</ele>
        <time>2019-08-08T08:18:07Z</time>
      </trkpt>
      <trkpt lat="46.54936" lon="5.99238">
        <ele>1032.6</ele>
        <time>2019-08-08T08:18:15Z</time>
      </trkpt>
      <trkpt lat="46.54924" lon="5.99265">
        <ele>1033.8</ele>
        <time>2019-08-08T08:18:27Z</time>
      </trkpt>
      <trkpt lat="46.54922" lon="5.99273">
        <ele>1034.1</ele>
        <time>2019-08-08T08:18:30Z</time>
      </trkpt>
      <trkpt lat="46.54921" lon="5.99279">
        <ele>1034.7</ele>
        <time>2019-08-08T08:18:35Z</time>
      </trkpt>
      <trkpt lat="46.54911" lon="5.99308">
        <ele>1035.4</ele>
        <time>2019-08-08T08:18:55Z</time>
      </trkpt>
      <trkpt lat="46.54885" lon="5.99331">
        <ele>1035.3</ele>
        <time>2019-08-08T08:19:29Z</time>
      </trkpt>
      <trkpt lat="46.54881" lon="5.99335">
        <ele>1035.3</ele>
        <time>2019-08-08T08:19:33Z</time>
      </trkpt>
      <trkpt lat="46.54877" lon="5.9934">
        <ele>1035</ele>
        <time>2019-08-08T08:19:41Z</time>
      </trkpt>
      <trkpt lat="46.54873" lon="5.99345">
        <ele>1034.7</ele>
        <time>2019-08-08T08:19:44Z</time>
      </trkpt>
      <trkpt lat="46.54867" lon="5.99351">
        <ele>1034.4</ele>
        <time>2019-08-08T08:19:47Z</time>
      </trkpt>
      <trkpt lat="46.54863" lon="5.99356">
        <ele>1033.9</ele>
        <time>2019-08-08T08:19:51Z</time>
      </trkpt>
      <trkpt lat="46.5486" lon="5.99362">
        <ele>1032.8</ele>
        <time>2019-08-08T08:19:56Z</time>
      </trkpt>
      <trkpt lat="46.5486" lon="5.9937">
        <ele>1030.5</ele>
        <time>2019-08-08T08:20:07Z</time>
      </trkpt>
      <trkpt lat="46.5486" lon="5.9938">
        <ele>1029.5</ele>
        <time>2019-08-08T08:20:11Z</time>
      </trkpt>
      <trkpt lat="46.54859" lon="5.99388">
        <ele>1028.8</ele>
        <time>2019-08-08T08:20:14Z</time>
      </trkpt>
      <trkpt lat="46.54857" lon="5.99395">
        <ele>1028.2</ele>
        <time>2019-08-08T08:20:18Z</time>
      </trkpt>
      <trkpt lat="46.54855" lon="5.99399">
        <ele>1031.4</ele>
        <time>2019-08-08T08:22:57Z</time>
      </trkpt>
      <trkpt lat="46.54856" lon="5.9941">
        <ele>1028.5</ele>
        <time>2019-08-08T08:23:13Z</time>
      </trkpt>
      <trkpt lat="46.54859" lon="5.99416">
        <ele>1027.3</ele>
        <time>2019-08-08T08:23:18Z</time>
      </trkpt>
      <trkpt lat="46.54864" lon="5.99423">
        <ele>1026.2</ele>
        <time>2019-08-08T08:23:23Z</time>
      </trkpt>
      <trkpt lat="46.54868" lon="5.99426">
        <ele>1025.2</ele>
        <time>2019-08-08T08:23:29Z</time>
      </trkpt>
      <trkpt lat="46.54877" lon="5.99427">
        <ele>1023.8</ele>
        <time>2019-08-08T08:23:44Z</time>
      </trkpt>
      <trkpt lat="46.54883" lon="5.99424">
        <ele>1023.9</ele>
        <time>2019-08-08T08:23:47Z</time>
      </trkpt>
      <trkpt lat="46.54891" lon="5.99425">
        <ele>1024.5</ele>
        <time>2019-08-08T08:24:04Z</time>
      </trkpt>
      <trkpt lat="46.54898" lon="5.99428">
        <ele>1029.9</ele>
        <time>2019-08-08T08:24:39Z</time>
      </trkpt>
      <trkpt lat="46.54901" lon="5.99433">
        <ele>1030.7</ele>
        <time>2019-08-08T08:24:44Z</time>
      </trkpt>
      <trkpt lat="46.54906" lon="5.99436">
        <ele>1031.3</ele>
        <time>2019-08-08T08:24:48Z</time>
      </trkpt>
      <trkpt lat="46.54912" lon="5.99439">
        <ele>1032.9</ele>
        <time>2019-08-08T08:24:57Z</time>
      </trkpt>
      <trkpt lat="46.54915" lon="5.99443">
        <ele>1033.3</ele>
        <time>2019-08-08T08:24:59Z</time>
      </trkpt>
      <trkpt lat="46.54918" lon="5.99449">
        <ele>1033.7</ele>
        <time>2019-08-08T08:25:01Z</time>
      </trkpt>
      <trkpt lat="46.54936" lon="5.99461">
        <ele>1035.3</ele>
        <time>2019-08-08T08:25:52Z</time>
      </trkpt>
      <trkpt lat="46.54941" lon="5.99465">
        <ele>1034.8</ele>
        <time>2019-08-08T08:25:57Z</time>
      </trkpt>
      <trkpt lat="46.54944" lon="5.99471">
        <ele>1034.4</ele>
        <time>2019-08-08T08:26:00Z</time>
      </trkpt>
      <trkpt lat="46.54952" lon="5.99479">
        <ele>1031.3</ele>
        <time>2019-08-08T08:26:23Z</time>
      </trkpt>
      <trkpt lat="46.54965" lon="5.99522">
        <ele>1029.1</ele>
        <time>2019-08-08T08:27:11Z</time>
      </trkpt>
      <trkpt lat="46.54967" lon="5.99529">
        <ele>1029.1</ele>
        <time>2019-08-08T08:27:13Z</time>
      </trkpt>
      <trkpt lat="46.54972" lon="5.99539">
        <ele>1025.8</ele>
        <time>2019-08-08T08:27:43Z</time>
      </trkpt>
      <trkpt lat="46.54977" lon="5.99544">
        <ele>1025.9</ele>
        <time>2019-08-08T08:27:45Z</time>
      </trkpt>
      <trkpt lat="46.5499" lon="5.99566">
        <ele>1029</ele>
        <time>2019-08-08T08:28:09Z</time>
      </trkpt>
      <trkpt lat="46.55006" lon="5.99583">
        <ele>1030.8</ele>
        <time>2019-08-08T08:28:31Z</time>
      </trkpt>
      <trkpt lat="46.55011" lon="5.99585">
        <ele>1031.4</ele>
        <time>2019-08-08T08:28:36Z</time>
      </trkpt>
      <trkpt lat="46.55012" lon="5.99592">
        <ele>1031.3</ele>
        <time>2019-08-08T08:28:55Z</time>
      </trkpt>
      <trkpt lat="46.5501" lon="5.99619">
        <ele>1028.6</ele>
        <time>2019-08-08T08:29:18Z</time>
      </trkpt>
      <trkpt lat="46.55004" lon="5.99655">
        <ele>1033.7</ele>
        <time>2019-08-08T08:31:24Z</time>
      </trkpt>
      <trkpt lat="46.55" lon="5.99672">
        <ele>1034.4</ele>
        <time>2019-08-08T08:31:43Z</time>
      </trkpt>
      <trkpt lat="46.54971" lon="5.99714">
        <ele>1032.3</ele>
        <time>2019-08-08T08:33:15Z</time>
      </trkpt>
      <trkpt lat="46.54989" lon="5.99783">
        <ele>1026.8</ele>
        <time>2019-08-08T08:34:26Z</time>
      </trkpt>
      <trkpt lat="46.54988" lon="5.9979">
        <ele>1025.8</ele>
        <time>2019-08-08T08:34:32Z</time>
      </trkpt>
      <trkpt lat="46.54999" lon="5.99814">
        <ele>1025.8</ele>
        <time>2019-08-08T08:34:41Z</time>
      </trkpt>
      <trkpt lat="46.55002" lon="5.9982">
        <ele>1026.2</ele>
        <time>2019-08-08T08:34:46Z</time>
      </trkpt>
      <trkpt lat="46.55006" lon="5.99823">
        <ele>1027.7</ele>
        <time>2019-08-08T08:34:58Z</time>
      </trkpt>
      <trkpt lat="46.55022" lon="5.99887">
        <ele>1031.6</ele>
        <time>2019-08-08T08:35:54Z</time>
      </trkpt>
      <trkpt lat="46.55025" lon="5.99899">
        <ele>1030.9</ele>
        <time>2019-08-08T08:36:10Z</time>
      </trkpt>
      <trkpt lat="46.55026" lon="5.99913">
        <ele>1031.9</ele>
        <time>2019-08-08T08:36:24Z</time>
      </trkpt>
      <trkpt lat="46.55029" lon="5.99922">
        <ele>1032</ele>
        <time>2019-08-08T08:36:27Z</time>
      </trkpt>
      <trkpt lat="46.55047" lon="5.99951">
        <ele>1034.7</ele>
        <time>2019-08-08T08:36:48Z</time>
      </trkpt>
      <trkpt lat="46.55041" lon="5.99991">
        <ele>1033.3</ele>
        <time>2019-08-08T08:37:12Z</time>
      </trkpt>
      <trkpt lat="46.55049" lon="6.00014">
        <ele>1035.6</ele>
        <time>2019-08-08T08:37:32Z</time>
      </trkpt>
      <trkpt lat="46.55049" lon="6.00025">
        <ele>1035.9</ele>
        <time>2019-08-08T08:37:44Z</time>
      </trkpt>
      <trkpt lat="46.55046" lon="6.00043">
        <ele>1034.6</ele>
        <time>2019-08-08T08:37:58Z</time>
      </trkpt>
      <trkpt lat="46.55046" lon="6.0005">
        <ele>1034.5</ele>
        <time>2019-08-08T08:38:02Z</time>
      </trkpt>
      <trkpt lat="46.5505" lon="6.00063">
        <ele>1034.3</ele>
        <time>2019-08-08T08:38:19Z</time>
      </trkpt>
      <trkpt lat="46.55057" lon="6.00088">
        <ele>1033</ele>
        <time>2019-08-08T08:38:53Z</time>
      </trkpt>
      <trkpt lat="46.55064" lon="6.001">
        <ele>1030.4</ele>
        <time>2019-08-08T08:39:08Z</time>
      </trkpt>
      <trkpt lat="46.55069" lon="6.00102">
        <ele>1030.2</ele>
        <time>2019-08-08T08:39:10Z</time>
      </trkpt>
      <trkpt lat="46.55074" lon="6.00102">
        <ele>1029.9</ele>
        <time>2019-08-08T08:39:13Z</time>
      </trkpt>
      <trkpt lat="46.55079" lon="6.00101">
        <ele>1029.2</ele>
        <time>2019-08-08T08:39:19Z</time>
      </trkpt>
      <trkpt lat="46.55084" lon="6.00099">
        <ele>1028.7</ele>
        <time>2019-08-08T08:39:27Z</time>
      </trkpt>
      <trkpt lat="46.55088" lon="6.00102">
        <ele>1028</ele>
        <time>2019-08-08T08:39:49Z</time>
      </trkpt>
      <trkpt lat="46.55095" lon="6.0011">
        <ele>1027.2</ele>
        <time>2019-08-08T08:41:58Z</time>
      </trkpt>
      <trkpt lat="46.55098" lon="6.00116">
        <ele>1026.7</ele>
        <time>2019-08-08T08:42:00Z</time>
      </trkpt>
      <trkpt lat="46.55101" lon="6.00136">
        <ele>1024.5</ele>
        <time>2019-08-08T08:42:14Z</time>
      </trkpt>
      <trkpt lat="46.55106" lon="6.00144">
        <ele>1021.2</ele>
        <time>2019-08-08T08:42:36Z</time>
      </trkpt>
      <trkpt lat="46.55111" lon="6.00143">
        <ele>1020.9</ele>
        <time>2019-08-08T08:42:39Z</time>
      </trkpt>
      <trkpt lat="46.55113" lon="6.00153">
        <ele>1022.3</ele>
        <time>2019-08-08T08:43:08Z</time>
      </trkpt>
      <trkpt lat="46.55114" lon="6.00159">
        <ele>1023.2</ele>
        <time>2019-08-08T08:43:13Z</time>
      </trkpt>
      <trkpt lat="46.55116" lon="6.00166">
        <ele>1023.7</ele>
        <time>2019-08-08T08:43:19Z</time>
      </trkpt>
      <trkpt lat="46.55118" lon="6.00172">
        <ele>1023.7</ele>
        <time>2019-08-08T08:43:25Z</time>
      </trkpt>
      <trkpt lat="46.55123" lon="6.00176">
        <ele>1023.7</ele>
        <time>2019-08-08T08:43:29Z</time>
      </trkpt>
      <trkpt lat="46.55127" lon="6.00182">
        <ele>1023.8</ele>
        <time>2019-08-08T08:43:32Z</time>
      </trkpt>
      <trkpt lat="46.55131" lon="6.00187">
        <ele>1023.9</ele>
        <time>2019-08-08T08:43:35Z</time>
      </trkpt>
      <trkpt lat="46.55134" lon="6.00192">
        <ele>1023.9</ele>
        <time>2019-08-08T08:43:38Z</time>
      </trkpt>
      <trkpt lat="46.55138" lon="6.00199">
        <ele>1023.8</ele>
        <time>2019-08-08T08:43:42Z</time>
      </trkpt>
      <trkpt lat="46.55142" lon="6.00204">
        <ele>1023.5</ele>
        <time>2019-08-08T08:43:47Z</time>
      </trkpt>
      <trkpt lat="46.55144" lon="6.0021">
        <ele>1023.5</ele>
        <time>2019-08-08T08:43:52Z</time>
      </trkpt>
      <trkpt lat="46.55146" lon="6.00216">
        <ele>1023.6</ele>
        <time>2019-08-08T08:43:56Z</time>
      </trkpt>
      <trkpt lat="46.55144" lon="6.00229">
        <ele>1023.1</ele>
        <time>2019-08-08T08:44:08Z</time>
      </trkpt>
      <trkpt lat="46.55142" lon="6.00237">
        <ele>1022.8</ele>
        <time>2019-08-08T08:44:12Z</time>
      </trkpt>
      <trkpt lat="46.55142" lon="6.00244">
        <ele>1023.3</ele>
        <time>2019-08-08T08:44:21Z</time>
      </trkpt>
      <trkpt lat="46.55141" lon="6.00251">
        <ele>1024.1</ele>
        <time>2019-08-08T08:44:29Z</time>
      </trkpt>
      <trkpt lat="46.55142" lon="6.00258">
        <ele>1024.1</ele>
        <time>2019-08-08T08:44:35Z</time>
      </trkpt>
      <trkpt lat="46.55142" lon="6.00266">
        <ele>1023.3</ele>
        <time>2019-08-08T08:44:43Z</time>
      </trkpt>
      <trkpt lat="46.55143" lon="6.00272">
        <ele>1023</ele>
        <time>2019-08-08T08:44:46Z</time>
      </trkpt>
      <trkpt lat="46.55145" lon="6.00279">
        <ele>1022.6</ele>
        <time>2019-08-08T08:44:51Z</time>
      </trkpt>
      <trkpt lat="46.55147" lon="6.00286">
        <ele>1022.1</ele>
        <time>2019-08-08T08:44:56Z</time>
      </trkpt>
      <trkpt lat="46.55156" lon="6.0031">
        <ele>1020.3</ele>
        <time>2019-08-08T08:45:19Z</time>
      </trkpt>
      <trkpt lat="46.5517" lon="6.00347">
        <ele>1024.8</ele>
        <time>2019-08-08T08:45:56Z</time>
      </trkpt>
      <trkpt lat="46.55175" lon="6.00354">
        <ele>1025.2</ele>
        <time>2019-08-08T08:46:00Z</time>
      </trkpt>
      <trkpt lat="46.5518" lon="6.0036">
        <ele>1025.5</ele>
        <time>2019-08-08T08:46:03Z</time>
      </trkpt>
      <trkpt lat="46.55182" lon="6.00366">
        <ele>1025.6</ele>
        <time>2019-08-08T08:46:07Z</time>
      </trkpt>
      <trkpt lat="46.55184" lon="6.00372">
        <ele>1025.5</ele>
        <time>2019-08-08T08:46:11Z</time>
      </trkpt>
      <trkpt lat="46.55189" lon="6.00381">
        <ele>1024</ele>
        <time>2019-08-08T08:46:24Z</time>
      </trkpt>
      <trkpt lat="46.55193" lon="6.00386">
        <ele>1023.6</ele>
        <time>2019-08-08T08:46:28Z</time>
      </trkpt>
      <trkpt lat="46.55198" lon="6.00389">
        <ele>1023.4</ele>
        <time>2019-08-08T08:46:30Z</time>
      </trkpt>
      <trkpt lat="46.55202" lon="6.00393">
        <ele>1022.8</ele>
        <time>2019-08-08T08:46:34Z</time>
      </trkpt>
      <trkpt lat="46.55207" lon="6.00396">
        <ele>1021.9</ele>
        <time>2019-08-08T08:46:39Z</time>
      </trkpt>
      <trkpt lat="46.55211" lon="6.00397">
        <ele>1020.8</ele>
        <time>2019-08-08T08:47:00Z</time>
      </trkpt>
      <trkpt lat="46.55216" lon="6.00399">
        <ele>1019</ele>
        <time>2019-08-08T08:47:09Z</time>
      </trkpt>
      <trkpt lat="46.55227" lon="6.00406">
        <ele>1013.2</ele>
        <time>2019-08-08T08:47:28Z</time>
      </trkpt>
      <trkpt lat="46.55231" lon="6.00411">
        <ele>1012.8</ele>
        <time>2019-08-08T08:47:32Z</time>
      </trkpt>
      <trkpt lat="46.55234" lon="6.00416">
        <ele>1012.5</ele>
        <time>2019-08-08T08:47:35Z</time>
      </trkpt>
      <trkpt lat="46.55236" lon="6.00424">
        <ele>1012.1</ele>
        <time>2019-08-08T08:47:39Z</time>
      </trkpt>
      <trkpt lat="46.55239" lon="6.0045">
        <ele>1010</ele>
        <time>2019-08-08T08:47:58Z</time>
      </trkpt>
      <trkpt lat="46.55239" lon="6.00457">
        <ele>1009.2</ele>
        <time>2019-08-08T08:48:03Z</time>
      </trkpt>
      <trkpt lat="46.5524" lon="6.00463">
        <ele>1008.3</ele>
        <time>2019-08-08T08:48:06Z</time>
      </trkpt>
      <trkpt lat="46.55241" lon="6.00472">
        <ele>1005.2</ele>
        <time>2019-08-08T08:48:14Z</time>
      </trkpt>
      <trkpt lat="46.55243" lon="6.00479">
        <ele>1003</ele>
        <time>2019-08-08T08:48:22Z</time>
      </trkpt>
      <trkpt lat="46.55246" lon="6.00485">
        <ele>1002.7</ele>
        <time>2019-08-08T08:48:24Z</time>
      </trkpt>
      <trkpt lat="46.5525" lon="6.00489">
        <ele>1001.8</ele>
        <time>2019-08-08T08:48:30Z</time>
      </trkpt>
      <trkpt lat="46.55255" lon="6.00489">
        <ele>1001.4</ele>
        <time>2019-08-08T08:48:34Z</time>
      </trkpt>
      <trkpt lat="46.5526" lon="6.00486">
        <ele>1001.4</ele>
        <time>2019-08-08T08:48:37Z</time>
      </trkpt>
      <trkpt lat="46.55264" lon="6.00483">
        <ele>1001.5</ele>
        <time>2019-08-08T08:48:42Z</time>
      </trkpt>
      <trkpt lat="46.55279" lon="6.00468">
        <ele>1001.8</ele>
        <time>2019-08-08T08:48:54Z</time>
      </trkpt>
      <trkpt lat="46.55283" lon="6.00465">
        <ele>1001.9</ele>
        <time>2019-08-08T08:48:58Z</time>
      </trkpt>
      <trkpt lat="46.55288" lon="6.00465">
        <ele>1002.1</ele>
        <time>2019-08-08T08:49:02Z</time>
      </trkpt>
      <trkpt lat="46.55292" lon="6.00464">
        <ele>1002.4</ele>
        <time>2019-08-08T08:49:08Z</time>
      </trkpt>
      <trkpt lat="46.55297" lon="6.00463">
        <ele>1002.6</ele>
        <time>2019-08-08T08:49:13Z</time>
      </trkpt>
      <trkpt lat="46.55302" lon="6.00461">
        <ele>1003.3</ele>
        <time>2019-08-08T08:49:20Z</time>
      </trkpt>
      <trkpt lat="46.55307" lon="6.00462">
        <ele>1004.1</ele>
        <time>2019-08-08T08:49:26Z</time>
      </trkpt>
      <trkpt lat="46.55312" lon="6.00462">
        <ele>1005.2</ele>
        <time>2019-08-08T08:49:34Z</time>
      </trkpt>
      <trkpt lat="46.55317" lon="6.00462">
        <ele>1005.7</ele>
        <time>2019-08-08T08:49:39Z</time>
      </trkpt>
      <trkpt lat="46.55321" lon="6.0046">
        <ele>1005.9</ele>
        <time>2019-08-08T08:49:43Z</time>
      </trkpt>
      <trkpt lat="46.55326" lon="6.00459">
        <ele>1006.1</ele>
        <time>2019-08-08T08:49:54Z</time>
      </trkpt>
      <trkpt lat="46.55331" lon="6.00458">
        <ele>1005.9</ele>
        <time>2019-08-08T08:49:57Z</time>
      </trkpt>
      <trkpt lat="46.55336" lon="6.00456">
        <ele>1005.2</ele>
        <time>2019-08-08T08:50:03Z</time>
      </trkpt>
      <trkpt lat="46.55349" lon="6.0045">
        <ele>1004.5</ele>
        <time>2019-08-08T08:50:17Z</time>
      </trkpt>
      <trkpt lat="46.55352" lon="6.00445">
        <ele>1004.7</ele>
        <time>2019-08-08T08:50:23Z</time>
      </trkpt>
      <trkpt lat="46.55358" lon="6.00445">
        <ele>1004.8</ele>
        <time>2019-08-08T08:50:25Z</time>
      </trkpt>
      <trkpt lat="46.55362" lon="6.00444">
        <ele>1004.9</ele>
        <time>2019-08-08T08:50:27Z</time>
      </trkpt>
      <trkpt lat="46.55367" lon="6.00443">
        <ele>1005.1</ele>
        <time>2019-08-08T08:50:33Z</time>
      </trkpt>
      <trkpt lat="46.55372" lon="6.00443">
        <ele>1005.2</ele>
        <time>2019-08-08T08:50:38Z</time>
      </trkpt>
      <trkpt lat="46.55392" lon="6.00438">
        <ele>1006.3</ele>
        <time>2019-08-08T08:50:51Z</time>
      </trkpt>
      <trkpt lat="46.55396" lon="6.00434">
        <ele>1006.8</ele>
        <time>2019-08-08T08:50:55Z</time>
      </trkpt>
      <trkpt lat="46.55402" lon="6.00428">
        <ele>1007.8</ele>
        <time>2019-08-08T08:51:01Z</time>
      </trkpt>
      <trkpt lat="46.55406" lon="6.00423">
        <ele>1008.2</ele>
        <time>2019-08-08T08:51:03Z</time>
      </trkpt>
      <trkpt lat="46.5541" lon="6.00419">
        <ele>1009.1</ele>
        <time>2019-08-08T08:51:07Z</time>
      </trkpt>
      <trkpt lat="46.55414" lon="6.00415">
        <ele>1010.6</ele>
        <time>2019-08-08T08:51:13Z</time>
      </trkpt>
      <trkpt lat="46.5542" lon="6.00411">
        <ele>1011.7</ele>
        <time>2019-08-08T08:51:19Z</time>
      </trkpt>
      <trkpt lat="46.55424" lon="6.00408">
        <ele>1013</ele>
        <time>2019-08-08T08:51:27Z</time>
      </trkpt>
      <trkpt lat="46.55427" lon="6.00404">
        <ele>1013.7</ele>
        <time>2019-08-08T08:51:32Z</time>
      </trkpt>
      <trkpt lat="46.55433" lon="6.00402">
        <ele>1014</ele>
        <time>2019-08-08T08:51:35Z</time>
      </trkpt>
      <trkpt lat="46.5544" lon="6.00387">
        <ele>1013.3</ele>
        <time>2019-08-08T08:51:45Z</time>
      </trkpt>
      <trkpt lat="46.55444" lon="6.00382">
        <ele>1012.9</ele>
        <time>2019-08-08T08:51:51Z</time>
      </trkpt>
      <trkpt lat="46.55447" lon="6.00377">
        <ele>1012.8</ele>
        <time>2019-08-08T08:51:57Z</time>
      </trkpt>
      <trkpt lat="46.55455" lon="6.00355">
        <ele>1013.6</ele>
        <time>2019-08-08T08:52:10Z</time>
      </trkpt>
      <trkpt lat="46.55459" lon="6.00352">
        <ele>1014.1</ele>
        <time>2019-08-08T08:52:16Z</time>
      </trkpt>
      <trkpt lat="46.55485" lon="6.00324">
        <ele>1016.9</ele>
        <time>2019-08-08T08:52:43Z</time>
      </trkpt>
      <trkpt lat="46.55486" lon="6.00318">
        <ele>1017</ele>
        <time>2019-08-08T08:52:49Z</time>
      </trkpt>
      <trkpt lat="46.5549" lon="6.00289">
        <ele>1017.7</ele>
        <time>2019-08-08T08:53:01Z</time>
      </trkpt>
      <trkpt lat="46.55493" lon="6.00283">
        <ele>1018.1</ele>
        <time>2019-08-08T08:53:05Z</time>
      </trkpt>
      <trkpt lat="46.55496" lon="6.00278">
        <ele>1019.1</ele>
        <time>2019-08-08T08:53:12Z</time>
      </trkpt>
      <trkpt lat="46.55498" lon="6.00272">
        <ele>1020.1</ele>
        <time>2019-08-08T08:53:18Z</time>
      </trkpt>
      <trkpt lat="46.55501" lon="6.00266">
        <ele>1021</ele>
        <time>2019-08-08T08:53:24Z</time>
      </trkpt>
      <trkpt lat="46.55504" lon="6.00261">
        <ele>1021.3</ele>
        <time>2019-08-08T08:53:28Z</time>
      </trkpt>
      <trkpt lat="46.55507" lon="6.00255">
        <ele>1021.8</ele>
        <time>2019-08-08T08:53:34Z</time>
      </trkpt>
      <trkpt lat="46.55512" lon="6.0025">
        <ele>1022.5</ele>
        <time>2019-08-08T08:53:38Z</time>
      </trkpt>
      <trkpt lat="46.55517" lon="6.00247">
        <ele>1023.2</ele>
        <time>2019-08-08T08:53:42Z</time>
      </trkpt>
      <trkpt lat="46.55522" lon="6.00245">
        <ele>1024.1</ele>
        <time>2019-08-08T08:53:46Z</time>
      </trkpt>
      <trkpt lat="46.55527" lon="6.00243">
        <ele>1025</ele>
        <time>2019-08-08T08:53:51Z</time>
      </trkpt>
      <trkpt lat="46.55532" lon="6.00241">
        <ele>1026</ele>
        <time>2019-08-08T08:53:56Z</time>
      </trkpt>
      <trkpt lat="46.55537" lon="6.0024">
        <ele>1026.6</ele>
        <time>2019-08-08T08:54:01Z</time>
      </trkpt>
      <trkpt lat="46.55542" lon="6.0024">
        <ele>1027</ele>
        <time>2019-08-08T08:54:06Z</time>
      </trkpt>
      <trkpt lat="46.55547" lon="6.0024">
        <ele>1026.9</ele>
        <time>2019-08-08T08:54:12Z</time>
      </trkpt>
      <trkpt lat="46.55551" lon="6.00237">
        <ele>1026.5</ele>
        <time>2019-08-08T08:54:17Z</time>
      </trkpt>
      <trkpt lat="46.55555" lon="6.00233">
        <ele>1026.1</ele>
        <time>2019-08-08T08:54:23Z</time>
      </trkpt>
      <trkpt lat="46.5556" lon="6.00231">
        <ele>1026</ele>
        <time>2019-08-08T08:54:26Z</time>
      </trkpt>
      <trkpt lat="46.55565" lon="6.00228">
        <ele>1025.9</ele>
        <time>2019-08-08T08:54:29Z</time>
      </trkpt>
      <trkpt lat="46.5557" lon="6.00225">
        <ele>1025.9</ele>
        <time>2019-08-08T08:54:31Z</time>
      </trkpt>
      <trkpt lat="46.55575" lon="6.00223">
        <ele>1025.8</ele>
        <time>2019-08-08T08:54:34Z</time>
      </trkpt>
      <trkpt lat="46.55579" lon="6.00219">
        <ele>1025.8</ele>
        <time>2019-08-08T08:54:38Z</time>
      </trkpt>
      <trkpt lat="46.55582" lon="6.00214">
        <ele>1025.5</ele>
        <time>2019-08-08T08:54:42Z</time>
      </trkpt>
      <trkpt lat="46.55585" lon="6.00209">
        <ele>1025.3</ele>
        <time>2019-08-08T08:54:47Z</time>
      </trkpt>
      <trkpt lat="46.55589" lon="6.00206">
        <ele>1025.2</ele>
        <time>2019-08-08T08:54:51Z</time>
      </trkpt>
      <trkpt lat="46.55593" lon="6.00203">
        <ele>1025</ele>
        <time>2019-08-08T08:54:57Z</time>
      </trkpt>
      <trkpt lat="46.55597" lon="6.00197">
        <ele>1024.6</ele>
        <time>2019-08-08T08:55:04Z</time>
      </trkpt>
      <trkpt lat="46.55598" lon="6.0019">
        <ele>1024.5</ele>
        <time>2019-08-08T08:55:08Z</time>
      </trkpt>
      <trkpt lat="46.55607" lon="6.00179">
        <ele>1025.5</ele>
        <time>2019-08-08T08:55:24Z</time>
      </trkpt>
      <trkpt lat="46.55609" lon="6.00173">
        <ele>1025.6</ele>
        <time>2019-08-08T08:55:26Z</time>
      </trkpt>
      <trkpt lat="46.55612" lon="6.00166">
        <ele>1025.7</ele>
        <time>2019-08-08T08:55:29Z</time>
      </trkpt>
      <trkpt lat="46.55616" lon="6.0016">
        <ele>1025.8</ele>
        <time>2019-08-08T08:55:33Z</time>
      </trkpt>
      <trkpt lat="46.5562" lon="6.00157">
        <ele>1025.8</ele>
        <time>2019-08-08T08:55:37Z</time>
      </trkpt>
      <trkpt lat="46.55624" lon="6.00152">
        <ele>1025.7</ele>
        <time>2019-08-08T08:55:43Z</time>
      </trkpt>
      <trkpt lat="46.55627" lon="6.00146">
        <ele>1025.5</ele>
        <time>2019-08-08T08:55:48Z</time>
      </trkpt>
      <trkpt lat="46.5563" lon="6.00139">
        <ele>1025.3</ele>
        <time>2019-08-08T08:55:54Z</time>
      </trkpt>
      <trkpt lat="46.55634" lon="6.00135">
        <ele>1025.1</ele>
        <time>2019-08-08T08:55:58Z</time>
      </trkpt>
      <trkpt lat="46.55638" lon="6.0013">
        <ele>1024.7</ele>
        <time>2019-08-08T08:56:05Z</time>
      </trkpt>
      <trkpt lat="46.55642" lon="6.00131">
        <ele>1021.8</ele>
        <time>2019-08-08T08:56:52Z</time>
      </trkpt>
      <trkpt lat="46.55646" lon="6.00127">
        <ele>1022.1</ele>
        <time>2019-08-08T08:56:59Z</time>
      </trkpt>
      <trkpt lat="46.55652" lon="6.00112">
        <ele>1023.1</ele>
        <time>2019-08-08T08:57:10Z</time>
      </trkpt>
      <trkpt lat="46.55653" lon="6.00105">
        <ele>1023.3</ele>
        <time>2019-08-08T08:57:12Z</time>
      </trkpt>
      <trkpt lat="46.55654" lon="6.00097">
        <ele>1023.7</ele>
        <time>2019-08-08T08:57:16Z</time>
      </trkpt>
      <trkpt lat="46.55649" lon="6.00084">
        <ele>1024.8</ele>
        <time>2019-08-08T08:57:30Z</time>
      </trkpt>
      <trkpt lat="46.55647" lon="6.00072">
        <ele>1023.1</ele>
        <time>2019-08-08T08:57:45Z</time>
      </trkpt>
      <trkpt lat="46.55645" lon="6.00066">
        <ele>1022.8</ele>
        <time>2019-08-08T08:57:50Z</time>
      </trkpt>
      <trkpt lat="46.55645" lon="6.00059">
        <ele>1023.2</ele>
        <time>2019-08-08T08:58:00Z</time>
      </trkpt>
      <trkpt lat="46.55644" lon="6.00052">
        <ele>1023.9</ele>
        <time>2019-08-08T08:58:06Z</time>
      </trkpt>
      <trkpt lat="46.55647" lon="6.00045">
        <ele>1024</ele>
        <time>2019-08-08T08:58:12Z</time>
      </trkpt>
      <trkpt lat="46.55651" lon="6.0004">
        <ele>1023.9</ele>
        <time>2019-08-08T08:58:16Z</time>
      </trkpt>
      <trkpt lat="46.55655" lon="6.00038">
        <ele>1024.1</ele>
        <time>2019-08-08T08:58:22Z</time>
      </trkpt>
      <trkpt lat="46.5566" lon="6.00039">
        <ele>1025.2</ele>
        <time>2019-08-08T08:58:32Z</time>
      </trkpt>
      <trkpt lat="46.55664" lon="6.00039">
        <ele>1025.4</ele>
        <time>2019-08-08T08:58:35Z</time>
      </trkpt>
      <trkpt lat="46.5567" lon="6.00037">
        <ele>1025.2</ele>
        <time>2019-08-08T08:58:42Z</time>
      </trkpt>
      <trkpt lat="46.5568" lon="6.00033">
        <ele>1022.8</ele>
        <time>2019-08-08T08:59:02Z</time>
      </trkpt>
      <trkpt lat="46.55686" lon="6.00029">
        <ele>1022.5</ele>
        <time>2019-08-08T08:59:04Z</time>
      </trkpt>
      <trkpt lat="46.5569" lon="6.00025">
        <ele>1022.2</ele>
        <time>2019-08-08T08:59:07Z</time>
      </trkpt>
      <trkpt lat="46.55695" lon="6.00021">
        <ele>1022</ele>
        <time>2019-08-08T08:59:09Z</time>
      </trkpt>
      <trkpt lat="46.55697" lon="6.00012">
        <ele>1022</ele>
        <time>2019-08-08T08:59:12Z</time>
      </trkpt>
      <trkpt lat="46.55698" lon="6.00005">
        <ele>1022.2</ele>
        <time>2019-08-08T08:59:15Z</time>
      </trkpt>
      <trkpt lat="46.55701" lon="5.99999">
        <ele>1022.7</ele>
        <time>2019-08-08T08:59:20Z</time>
      </trkpt>
      <trkpt lat="46.55711" lon="5.99986">
        <ele>1025.4</ele>
        <time>2019-08-08T08:59:30Z</time>
      </trkpt>
      <trkpt lat="46.55714" lon="5.99978">
        <ele>1026.1</ele>
        <time>2019-08-08T08:59:34Z</time>
      </trkpt>
      <trkpt lat="46.55724" lon="5.99965">
        <ele>1032.8</ele>
        <time>2019-08-08T08:59:59Z</time>
      </trkpt>
      <trkpt lat="46.55727" lon="5.9996">
        <ele>1032.8</ele>
        <time>2019-08-08T09:00:03Z</time>
      </trkpt>
      <trkpt lat="46.5573" lon="5.99956">
        <ele>1032.8</ele>
        <time>2019-08-08T09:00:07Z</time>
      </trkpt>
      <trkpt lat="46.55734" lon="5.99951">
        <ele>1032.8</ele>
        <time>2019-08-08T09:00:12Z</time>
      </trkpt>
      <trkpt lat="46.55743" lon="5.9993">
        <ele>1035.1</ele>
        <time>2019-08-08T09:00:38Z</time>
      </trkpt>
      <trkpt lat="46.55746" lon="5.99922">
        <ele>1035.3</ele>
        <time>2019-08-08T09:00:41Z</time>
      </trkpt>
      <trkpt lat="46.55748" lon="5.99916">
        <ele>1035.5</ele>
        <time>2019-08-08T09:00:45Z</time>
      </trkpt>
      <trkpt lat="46.55752" lon="5.99909">
        <ele>1036</ele>
        <time>2019-08-08T09:00:53Z</time>
      </trkpt>
      <trkpt lat="46.55756" lon="5.99904">
        <ele>1036.2</ele>
        <time>2019-08-08T09:00:57Z</time>
      </trkpt>
      <trkpt lat="46.55765" lon="5.99889">
        <ele>1036.8</ele>
        <time>2019-08-08T09:01:07Z</time>
      </trkpt>
      <trkpt lat="46.55765" lon="5.99882">
        <ele>1037</ele>
        <time>2019-08-08T09:01:09Z</time>
      </trkpt>
      <trkpt lat="46.55765" lon="5.99874">
        <ele>1037.6</ele>
        <time>2019-08-08T09:01:13Z</time>
      </trkpt>
      <trkpt lat="46.55768" lon="5.99868">
        <ele>1038.1</ele>
        <time>2019-08-08T09:01:17Z</time>
      </trkpt>
      <trkpt lat="46.55771" lon="5.99863">
        <ele>1038.8</ele>
        <time>2019-08-08T09:01:24Z</time>
      </trkpt>
      <trkpt lat="46.55774" lon="5.99854">
        <ele>1039.1</ele>
        <time>2019-08-08T09:01:32Z</time>
      </trkpt>
      <trkpt lat="46.55778" lon="5.99849">
        <ele>1039.6</ele>
        <time>2019-08-08T09:01:36Z</time>
      </trkpt>
      <trkpt lat="46.55783" lon="5.99826">
        <ele>1043</ele>
        <time>2019-08-08T09:01:47Z</time>
      </trkpt>
      <trkpt lat="46.55792" lon="5.9981">
        <ele>1044.7</ele>
        <time>2019-08-08T09:02:03Z</time>
      </trkpt>
      <trkpt lat="46.55794" lon="5.99802">
        <ele>1044.7</ele>
        <time>2019-08-08T09:02:08Z</time>
      </trkpt>
      <trkpt lat="46.55793" lon="5.99795">
        <ele>1044.8</ele>
        <time>2019-08-08T09:02:12Z</time>
      </trkpt>
      <trkpt lat="46.55792" lon="5.99787">
        <ele>1044.8</ele>
        <time>2019-08-08T09:02:15Z</time>
      </trkpt>
      <trkpt lat="46.55792" lon="5.99778">
        <ele>1044.9</ele>
        <time>2019-08-08T09:02:19Z</time>
      </trkpt>
      <trkpt lat="46.55793" lon="5.99772">
        <ele>1044.9</ele>
        <time>2019-08-08T09:02:23Z</time>
      </trkpt>
      <trkpt lat="46.55793" lon="5.99765">
        <ele>1044.7</ele>
        <time>2019-08-08T09:02:31Z</time>
      </trkpt>
      <trkpt lat="46.55794" lon="5.99758">
        <ele>1043.9</ele>
        <time>2019-08-08T09:02:38Z</time>
      </trkpt>
      <trkpt lat="46.55795" lon="5.99752">
        <ele>1043.1</ele>
        <time>2019-08-08T09:02:43Z</time>
      </trkpt>
      <trkpt lat="46.55796" lon="5.99745">
        <ele>1041</ele>
        <time>2019-08-08T09:02:58Z</time>
      </trkpt>
      <trkpt lat="46.558" lon="5.9974">
        <ele>1038.9</ele>
        <time>2019-08-08T09:03:10Z</time>
      </trkpt>
      <trkpt lat="46.558" lon="5.99733">
        <ele>1036.2</ele>
        <time>2019-08-08T09:03:23Z</time>
      </trkpt>
      <trkpt lat="46.55802" lon="5.99708">
        <ele>1031.3</ele>
        <time>2019-08-08T09:04:02Z</time>
      </trkpt>
      <trkpt lat="46.558" lon="5.99701">
        <ele>1031.2</ele>
        <time>2019-08-08T09:04:05Z</time>
      </trkpt>
      <trkpt lat="46.55801" lon="5.99694">
        <ele>1030.8</ele>
        <time>2019-08-08T09:04:10Z</time>
      </trkpt>
      <trkpt lat="46.55802" lon="5.99687">
        <ele>1030.2</ele>
        <time>2019-08-08T09:04:16Z</time>
      </trkpt>
      <trkpt lat="46.55803" lon="5.9968">
        <ele>1029.6</ele>
        <time>2019-08-08T09:04:24Z</time>
      </trkpt>
      <trkpt lat="46.55804" lon="5.99672">
        <ele>1029.5</ele>
        <time>2019-08-08T09:04:27Z</time>
      </trkpt>
      <trkpt lat="46.55812" lon="5.99645">
        <ele>1029.1</ele>
        <time>2019-08-08T09:04:44Z</time>
      </trkpt>
      <trkpt lat="46.55815" lon="5.99641">
        <ele>1029.2</ele>
        <time>2019-08-08T09:04:49Z</time>
      </trkpt>
      <trkpt lat="46.55836" lon="5.996">
        <ele>1032.2</ele>
        <time>2019-08-08T09:05:21Z</time>
      </trkpt>
      <trkpt lat="46.5584" lon="5.99596">
        <ele>1032.8</ele>
        <time>2019-08-08T09:05:26Z</time>
      </trkpt>
      <trkpt lat="46.5585" lon="5.99577">
        <ele>1033.5</ele>
        <time>2019-08-08T09:05:42Z</time>
      </trkpt>
      <trkpt lat="46.55854" lon="5.99573">
        <ele>1033.4</ele>
        <time>2019-08-08T09:05:47Z</time>
      </trkpt>
      <trkpt lat="46.55858" lon="5.99568">
        <ele>1033</ele>
        <time>2019-08-08T09:05:51Z</time>
      </trkpt>
      <trkpt lat="46.5586" lon="5.99562">
        <ele>1032.2</ele>
        <time>2019-08-08T09:05:57Z</time>
      </trkpt>
      <trkpt lat="46.55864" lon="5.99558">
        <ele>1031.2</ele>
        <time>2019-08-08T09:06:02Z</time>
      </trkpt>
      <trkpt lat="46.55869" lon="5.99553">
        <ele>1030.4</ele>
        <time>2019-08-08T09:06:06Z</time>
      </trkpt>
      <trkpt lat="46.55872" lon="5.99549">
        <ele>1029.9</ele>
        <time>2019-08-08T09:06:09Z</time>
      </trkpt>
      <trkpt lat="46.55876" lon="5.99545">
        <ele>1029.2</ele>
        <time>2019-08-08T09:06:13Z</time>
      </trkpt>
      <trkpt lat="46.55881" lon="5.99541">
        <ele>1028.6</ele>
        <time>2019-08-08T09:06:17Z</time>
      </trkpt>
      <trkpt lat="46.55884" lon="5.99536">
        <ele>1028</ele>
        <time>2019-08-08T09:06:22Z</time>
      </trkpt>
      <trkpt lat="46.55888" lon="5.99531">
        <ele>1027.3</ele>
        <time>2019-08-08T09:06:28Z</time>
      </trkpt>
      <trkpt lat="46.55891" lon="5.99526">
        <ele>1026.9</ele>
        <time>2019-08-08T09:06:33Z</time>
      </trkpt>
      <trkpt lat="46.55895" lon="5.99522">
        <ele>1026.5</ele>
        <time>2019-08-08T09:06:40Z</time>
      </trkpt>
      <trkpt lat="46.55905" lon="5.99514">
        <ele>1026.3</ele>
        <time>2019-08-08T09:06:52Z</time>
      </trkpt>
      <trkpt lat="46.55909" lon="5.99512">
        <ele>1026.5</ele>
        <time>2019-08-08T09:06:58Z</time>
      </trkpt>
      <trkpt lat="46.55914" lon="5.99507">
        <ele>1026.7</ele>
        <time>2019-08-08T09:07:05Z</time>
      </trkpt>
      <trkpt lat="46.55917" lon="5.99502">
        <ele>1026.8</ele>
        <time>2019-08-08T09:07:08Z</time>
      </trkpt>
      <trkpt lat="46.55922" lon="5.99499">
        <ele>1026.8</ele>
        <time>2019-08-08T09:07:11Z</time>
      </trkpt>
      <trkpt lat="46.55924" lon="5.99492">
        <ele>1026.8</ele>
        <time>2019-08-08T09:07:15Z</time>
      </trkpt>
      <trkpt lat="46.55924" lon="5.99484">
        <ele>1026.7</ele>
        <time>2019-08-08T09:07:18Z</time>
      </trkpt>
      <trkpt lat="46.55926" lon="5.99477">
        <ele>1026.5</ele>
        <time>2019-08-08T09:07:22Z</time>
      </trkpt>
      <trkpt lat="46.5593" lon="5.99473">
        <ele>1026.4</ele>
        <time>2019-08-08T09:07:26Z</time>
      </trkpt>
      <trkpt lat="46.55935" lon="5.99471">
        <ele>1026.3</ele>
        <time>2019-08-08T09:07:30Z</time>
      </trkpt>
      <trkpt lat="46.55939" lon="5.9947">
        <ele>1026.3</ele>
        <time>2019-08-08T09:07:37Z</time>
      </trkpt>
      <trkpt lat="46.55944" lon="5.99468">
        <ele>1026.7</ele>
        <time>2019-08-08T09:07:43Z</time>
      </trkpt>
      <trkpt lat="46.55953" lon="5.99461">
        <ele>1028.1</ele>
        <time>2019-08-08T09:08:01Z</time>
      </trkpt>
      <trkpt lat="46.55957" lon="5.99461">
        <ele>1029.2</ele>
        <time>2019-08-08T09:08:12Z</time>
      </trkpt>
      <trkpt lat="46.55962" lon="5.99461">
        <ele>1029.5</ele>
        <time>2019-08-08T09:08:18Z</time>
      </trkpt>
      <trkpt lat="46.55966" lon="5.99458">
        <ele>1028.8</ele>
        <time>2019-08-08T09:08:27Z</time>
      </trkpt>
      <trkpt lat="46.55973" lon="5.99457">
        <ele>1028.6</ele>
        <time>2019-08-08T09:08:34Z</time>
      </trkpt>
      <trkpt lat="46.55978" lon="5.99455">
        <ele>1028.7</ele>
        <time>2019-08-08T09:08:38Z</time>
      </trkpt>
      <trkpt lat="46.55983" lon="5.99453">
        <ele>1028.8</ele>
        <time>2019-08-08T09:08:41Z</time>
      </trkpt>
      <trkpt lat="46.55987" lon="5.99457">
        <ele>1028.7</ele>
        <time>2019-08-08T09:08:47Z</time>
      </trkpt>
      <trkpt lat="46.55997" lon="5.99459">
        <ele>1026.8</ele>
        <time>2019-08-08T09:08:59Z</time>
      </trkpt>
      <trkpt lat="46.56002" lon="5.9946">
        <ele>1026.5</ele>
        <time>2019-08-08T09:09:01Z</time>
      </trkpt>
      <trkpt lat="46.56007" lon="5.99461">
        <ele>1026.1</ele>
        <time>2019-08-08T09:09:05Z</time>
      </trkpt>
      <trkpt lat="46.56023" lon="5.99451">
        <ele>1025.7</ele>
        <time>2019-08-08T09:09:42Z</time>
      </trkpt>
      <trkpt lat="46.56029" lon="5.99452">
        <ele>1026</ele>
        <time>2019-08-08T09:09:44Z</time>
      </trkpt>
      <trkpt lat="46.56055" lon="5.99451">
        <ele>1027.2</ele>
        <time>2019-08-08T09:09:58Z</time>
      </trkpt>
      <trkpt lat="46.56062" lon="5.99436">
        <ele>1027.2</ele>
        <time>2019-08-08T09:10:14Z</time>
      </trkpt>
      <trkpt lat="46.56066" lon="5.99433">
        <ele>1027.4</ele>
        <time>2019-08-08T09:10:18Z</time>
      </trkpt>
      <trkpt lat="46.56069" lon="5.99428">
        <ele>1028.5</ele>
        <time>2019-08-08T09:10:27Z</time>
      </trkpt>
      <trkpt lat="46.56073" lon="5.99424">
        <ele>1030.2</ele>
        <time>2019-08-08T09:10:36Z</time>
      </trkpt>
      <trkpt lat="46.56078" lon="5.99421">
        <ele>1030.9</ele>
        <time>2019-08-08T09:10:44Z</time>
      </trkpt>
      <trkpt lat="46.56082" lon="5.99419">
        <ele>1030.8</ele>
        <time>2019-08-08T09:10:50Z</time>
      </trkpt>
      <trkpt lat="46.56086" lon="5.99418">
        <ele>1030.6</ele>
        <time>2019-08-08T09:10:56Z</time>
      </trkpt>
      <trkpt lat="46.56092" lon="5.99416">
        <ele>1030.5</ele>
        <time>2019-08-08T09:11:03Z</time>
      </trkpt>
      <trkpt lat="46.56096" lon="5.99419">
        <ele>1030.6</ele>
        <time>2019-08-08T09:11:08Z</time>
      </trkpt>
      <trkpt lat="46.56099" lon="5.99425">
        <ele>1030.8</ele>
        <time>2019-08-08T09:11:13Z</time>
      </trkpt>
      <trkpt lat="46.56102" lon="5.9943">
        <ele>1030.8</ele>
        <time>2019-08-08T09:11:16Z</time>
      </trkpt>
      <trkpt lat="46.56112" lon="5.99444">
        <ele>1029.8</ele>
        <time>2019-08-08T09:11:26Z</time>
      </trkpt>
      <trkpt lat="46.56114" lon="5.99451">
        <ele>1029.3</ele>
        <time>2019-08-08T09:11:31Z</time>
      </trkpt>
      <trkpt lat="46.56115" lon="5.99459">
        <ele>1028.7</ele>
        <time>2019-08-08T09:11:36Z</time>
      </trkpt>
      <trkpt lat="46.56119" lon="5.99483">
        <ele>1026.4</ele>
        <time>2019-08-08T09:11:55Z</time>
      </trkpt>
      <trkpt lat="46.56123" lon="5.99487">
        <ele>1026.4</ele>
        <time>2019-08-08T09:11:57Z</time>
      </trkpt>
      <trkpt lat="46.56127" lon="5.99492">
        <ele>1026.3</ele>
        <time>2019-08-08T09:11:59Z</time>
      </trkpt>
      <trkpt lat="46.56131" lon="5.99498">
        <ele>1026</ele>
        <time>2019-08-08T09:12:04Z</time>
      </trkpt>
      <trkpt lat="46.56148" lon="5.99512">
        <ele>1020.8</ele>
        <time>2019-08-08T09:12:28Z</time>
      </trkpt>
      <trkpt lat="46.56152" lon="5.99517">
        <ele>1020.5</ele>
        <time>2019-08-08T09:12:31Z</time>
      </trkpt>
      <trkpt lat="46.56164" lon="5.99545">
        <ele>1016</ele>
        <time>2019-08-08T09:12:53Z</time>
      </trkpt>
      <trkpt lat="46.56164" lon="5.99551">
        <ele>1015.2</ele>
        <time>2019-08-08T09:12:58Z</time>
      </trkpt>
      <trkpt lat="46.56165" lon="5.99572">
        <ele>1011.9</ele>
        <time>2019-08-08T09:13:15Z</time>
      </trkpt>
      <trkpt lat="46.5617" lon="5.99586">
        <ele>1005.2</ele>
        <time>2019-08-08T09:13:40Z</time>
      </trkpt>
      <trkpt lat="46.56173" lon="5.99607">
        <ele>1003.5</ele>
        <time>2019-08-08T09:13:57Z</time>
      </trkpt>
      <trkpt lat="46.56173" lon="5.99615">
        <ele>1003.1</ele>
        <time>2019-08-08T09:14:02Z</time>
      </trkpt>
      <trkpt lat="46.56175" lon="5.99622">
        <ele>1002.1</ele>
        <time>2019-08-08T09:14:08Z</time>
      </trkpt>
      <trkpt lat="46.56177" lon="5.99627">
        <ele>999.7</ele>
        <time>2019-08-08T09:14:18Z</time>
      </trkpt>
      <trkpt lat="46.56179" lon="5.99634">
        <ele>998.7</ele>
        <time>2019-08-08T09:14:23Z</time>
      </trkpt>
      <trkpt lat="46.5618" lon="5.9964">
        <ele>994.1</ele>
        <time>2019-08-08T09:14:39Z</time>
      </trkpt>
      <trkpt lat="46.56184" lon="5.99648">
        <ele>989.8</ele>
        <time>2019-08-08T09:15:00Z</time>
      </trkpt>
      <trkpt lat="46.56189" lon="5.99649">
        <ele>989.6</ele>
        <time>2019-08-08T09:15:02Z</time>
      </trkpt>
      <trkpt lat="46.56195" lon="5.99652">
        <ele>989.4</ele>
        <time>2019-08-08T09:15:04Z</time>
      </trkpt>
      <trkpt lat="46.56199" lon="5.99656">
        <ele>989.3</ele>
        <time>2019-08-08T09:15:07Z</time>
      </trkpt>
      <trkpt lat="46.56203" lon="5.9966">
        <ele>989.2</ele>
        <time>2019-08-08T09:15:10Z</time>
      </trkpt>
      <trkpt lat="46.56211" lon="5.99669">
        <ele>990</ele>
        <time>2019-08-08T09:15:21Z</time>
      </trkpt>
      <trkpt lat="46.56214" lon="5.9969">
        <ele>992.1</ele>
        <time>2019-08-08T09:15:38Z</time>
      </trkpt>
      <trkpt lat="46.56217" lon="5.99696">
        <ele>992</ele>
        <time>2019-08-08T09:15:43Z</time>
      </trkpt>
      <trkpt lat="46.56221" lon="5.99705">
        <ele>992.7</ele>
        <time>2019-08-08T09:15:57Z</time>
      </trkpt>
      <trkpt lat="46.56224" lon="5.9971">
        <ele>993.3</ele>
        <time>2019-08-08T09:16:02Z</time>
      </trkpt>
      <trkpt lat="46.56227" lon="5.99716">
        <ele>993.9</ele>
        <time>2019-08-08T09:16:09Z</time>
      </trkpt>
      <trkpt lat="46.56238" lon="5.99756">
        <ele>992.3</ele>
        <time>2019-08-08T09:16:35Z</time>
      </trkpt>
      <trkpt lat="46.56241" lon="5.99778">
        <ele>990.3</ele>
        <time>2019-08-08T09:16:54Z</time>
      </trkpt>
      <trkpt lat="46.5624" lon="5.99818">
        <ele>993.8</ele>
        <time>2019-08-08T09:17:16Z</time>
      </trkpt>
      <trkpt lat="46.56238" lon="5.99824">
        <ele>994.4</ele>
        <time>2019-08-08T09:17:22Z</time>
      </trkpt>
      <trkpt lat="46.56231" lon="5.9984">
        <ele>994.4</ele>
        <time>2019-08-08T09:17:37Z</time>
      </trkpt>
      <trkpt lat="46.56229" lon="5.99847">
        <ele>994</ele>
        <time>2019-08-08T09:17:42Z</time>
      </trkpt>
      <trkpt lat="46.56227" lon="5.99855">
        <ele>993.5</ele>
        <time>2019-08-08T09:17:46Z</time>
      </trkpt>
      <trkpt lat="46.56225" lon="5.99862">
        <ele>992.4</ele>
        <time>2019-08-08T09:17:52Z</time>
      </trkpt>
      <trkpt lat="46.56223" lon="5.99868">
        <ele>991.4</ele>
        <time>2019-08-08T09:17:56Z</time>
      </trkpt>
      <trkpt lat="46.56223" lon="5.99876">
        <ele>990.2</ele>
        <time>2019-08-08T09:18:00Z</time>
      </trkpt>
      <trkpt lat="46.56223" lon="5.99884">
        <ele>988.7</ele>
        <time>2019-08-08T09:18:04Z</time>
      </trkpt>
      <trkpt lat="46.56221" lon="5.99892">
        <ele>986.7</ele>
        <time>2019-08-08T09:18:09Z</time>
      </trkpt>
      <trkpt lat="46.56219" lon="5.99898">
        <ele>985.3</ele>
        <time>2019-08-08T09:18:13Z</time>
      </trkpt>
      <trkpt lat="46.56217" lon="5.99906">
        <ele>983.5</ele>
        <time>2019-08-08T09:18:18Z</time>
      </trkpt>
      <trkpt lat="46.56217" lon="5.99913">
        <ele>982.3</ele>
        <time>2019-08-08T09:18:22Z</time>
      </trkpt>
      <trkpt lat="46.56217" lon="5.99919">
        <ele>981.1</ele>
        <time>2019-08-08T09:18:26Z</time>
      </trkpt>
      <trkpt lat="46.56218" lon="5.99926">
        <ele>980.1</ele>
        <time>2019-08-08T09:18:30Z</time>
      </trkpt>
      <trkpt lat="46.56221" lon="5.99933">
        <ele>979.2</ele>
        <time>2019-08-08T09:18:34Z</time>
      </trkpt>
      <trkpt lat="46.56222" lon="5.9994">
        <ele>978.6</ele>
        <time>2019-08-08T09:18:38Z</time>
      </trkpt>
      <trkpt lat="46.56223" lon="5.99947">
        <ele>978</ele>
        <time>2019-08-08T09:18:44Z</time>
      </trkpt>
      <trkpt lat="46.56225" lon="5.99953">
        <ele>978.2</ele>
        <time>2019-08-08T09:18:50Z</time>
      </trkpt>
      <trkpt lat="46.56227" lon="5.99959">
        <ele>979</ele>
        <time>2019-08-08T09:18:58Z</time>
      </trkpt>
      <trkpt lat="46.56231" lon="5.99964">
        <ele>979.8</ele>
        <time>2019-08-08T09:19:06Z</time>
      </trkpt>
      <trkpt lat="46.56234" lon="5.9997">
        <ele>979.9</ele>
        <time>2019-08-08T09:19:10Z</time>
      </trkpt>
      <trkpt lat="46.56236" lon="5.99976">
        <ele>979.8</ele>
        <time>2019-08-08T09:19:15Z</time>
      </trkpt>
      <trkpt lat="46.56237" lon="5.99983">
        <ele>979.7</ele>
        <time>2019-08-08T09:19:22Z</time>
      </trkpt>
      <trkpt lat="46.56241" lon="5.99987">
        <ele>979.8</ele>
        <time>2019-08-08T09:19:29Z</time>
      </trkpt>
      <trkpt lat="46.56243" lon="5.99993">
        <ele>980.1</ele>
        <time>2019-08-08T09:19:34Z</time>
      </trkpt>
      <trkpt lat="46.56238" lon="6.00022">
        <ele>980.7</ele>
        <time>2019-08-08T09:19:48Z</time>
      </trkpt>
      <trkpt lat="46.56238" lon="6.00032">
        <ele>981</ele>
        <time>2019-08-08T09:19:51Z</time>
      </trkpt>
      <trkpt lat="46.56238" lon="6.00039">
        <ele>981.2</ele>
        <time>2019-08-08T09:19:53Z</time>
      </trkpt>
      <trkpt lat="46.5624" lon="6.00045">
        <ele>981.7</ele>
        <time>2019-08-08T09:19:59Z</time>
      </trkpt>
      <trkpt lat="46.56242" lon="6.00053">
        <ele>982</ele>
        <time>2019-08-08T09:20:06Z</time>
      </trkpt>
      <trkpt lat="46.56244" lon="6.00059">
        <ele>981.8</ele>
        <time>2019-08-08T09:20:12Z</time>
      </trkpt>
      <trkpt lat="46.56246" lon="6.00066">
        <ele>981.4</ele>
        <time>2019-08-08T09:20:17Z</time>
      </trkpt>
      <trkpt lat="46.56249" lon="6.00072">
        <ele>981.5</ele>
        <time>2019-08-08T09:20:21Z</time>
      </trkpt>
      <trkpt lat="46.5625" lon="6.00088">
        <ele>983.8</ele>
        <time>2019-08-08T09:20:40Z</time>
      </trkpt>
      <trkpt lat="46.56251" lon="6.00095">
        <ele>984.3</ele>
        <time>2019-08-08T09:20:44Z</time>
      </trkpt>
      <trkpt lat="46.56253" lon="6.00102">
        <ele>985.6</ele>
        <time>2019-08-08T09:20:50Z</time>
      </trkpt>
      <trkpt lat="46.56257" lon="6.00108">
        <ele>986.3</ele>
        <time>2019-08-08T09:20:53Z</time>
      </trkpt>
      <trkpt lat="46.56238" lon="6.00189">
        <ele>989.6</ele>
        <time>2019-08-08T09:21:47Z</time>
      </trkpt>
      <trkpt lat="46.56234" lon="6.00192">
        <ele>990</ele>
        <time>2019-08-08T09:21:51Z</time>
      </trkpt>
      <trkpt lat="46.56224" lon="6.00214">
        <ele>993.1</ele>
        <time>2019-08-08T09:22:23Z</time>
      </trkpt>
      <trkpt lat="46.56192" lon="6.00261">
        <ele>997.1</ele>
        <time>2019-08-08T09:23:22Z</time>
      </trkpt>
      <trkpt lat="46.56187" lon="6.00266">
        <ele>997.2</ele>
        <time>2019-08-08T09:23:25Z</time>
      </trkpt>
      <trkpt lat="46.56184" lon="6.00274">
        <ele>997.4</ele>
        <time>2019-08-08T09:23:31Z</time>
      </trkpt>
      <trkpt lat="46.5618" lon="6.00287">
        <ele>998.2</ele>
        <time>2019-08-08T09:23:40Z</time>
      </trkpt>
      <trkpt lat="46.56178" lon="6.00294">
        <ele>998.2</ele>
        <time>2019-08-08T09:23:42Z</time>
      </trkpt>
      <trkpt lat="46.56179" lon="6.00302">
        <ele>998.2</ele>
        <time>2019-08-08T09:23:45Z</time>
      </trkpt>
      <trkpt lat="46.56181" lon="6.00309">
        <ele>998.1</ele>
        <time>2019-08-08T09:23:50Z</time>
      </trkpt>
      <trkpt lat="46.56182" lon="6.00322">
        <ele>997</ele>
        <time>2019-08-08T09:24:03Z</time>
      </trkpt>
      <trkpt lat="46.56181" lon="6.00328">
        <ele>996.1</ele>
        <time>2019-08-08T09:24:10Z</time>
      </trkpt>
      <trkpt lat="46.5618" lon="6.00335">
        <ele>995.5</ele>
        <time>2019-08-08T09:24:17Z</time>
      </trkpt>
      <trkpt lat="46.56178" lon="6.00348">
        <ele>995.1</ele>
        <time>2019-08-08T09:24:30Z</time>
      </trkpt>
      <trkpt lat="46.56188" lon="6.0037">
        <ele>997.5</ele>
        <time>2019-08-08T09:24:49Z</time>
      </trkpt>
      <trkpt lat="46.56192" lon="6.00376">
        <ele>997.6</ele>
        <time>2019-08-08T09:24:51Z</time>
      </trkpt>
      <trkpt lat="46.56204" lon="6.00396">
        <ele>1000.2</ele>
        <time>2019-08-08T09:25:16Z</time>
      </trkpt>
      <trkpt lat="46.56208" lon="6.00401">
        <ele>1000.6</ele>
        <time>2019-08-08T09:25:20Z</time>
      </trkpt>
      <trkpt lat="46.56214" lon="6.00405">
        <ele>1000.8</ele>
        <time>2019-08-08T09:25:23Z</time>
      </trkpt>
      <trkpt lat="46.56228" lon="6.00389">
        <ele>1001.4</ele>
        <time>2019-08-08T09:25:40Z</time>
      </trkpt>
      <trkpt lat="46.56229" lon="6.00381">
        <ele>1001</ele>
        <time>2019-08-08T09:25:50Z</time>
      </trkpt>
      <trkpt lat="46.56232" lon="6.00377">
        <ele>1000.9</ele>
        <time>2019-08-08T09:25:58Z</time>
      </trkpt>
      <trkpt lat="46.56237" lon="6.00374">
        <ele>1001.2</ele>
        <time>2019-08-08T09:26:02Z</time>
      </trkpt>
      <trkpt lat="46.56241" lon="6.00371">
        <ele>1002.3</ele>
        <time>2019-08-08T09:26:11Z</time>
      </trkpt>
      <trkpt lat="46.56241" lon="6.00364">
        <ele>1003</ele>
        <time>2019-08-08T09:26:15Z</time>
      </trkpt>
      <trkpt lat="46.56245" lon="6.0036">
        <ele>1004.2</ele>
        <time>2019-08-08T09:26:22Z</time>
      </trkpt>
      <trkpt lat="46.5625" lon="6.00357">
        <ele>1004.4</ele>
        <time>2019-08-08T09:26:30Z</time>
      </trkpt>
      <trkpt lat="46.56269" lon="6.00349">
        <ele>1005.3</ele>
        <time>2019-08-08T09:26:51Z</time>
      </trkpt>
      <trkpt lat="46.56273" lon="6.00344">
        <ele>1007.1</ele>
        <time>2019-08-08T09:27:04Z</time>
      </trkpt>
      <trkpt lat="46.56277" lon="6.00345">
        <ele>1007.3</ele>
        <time>2019-08-08T09:27:06Z</time>
      </trkpt>
      <trkpt lat="46.56282" lon="6.00346">
        <ele>1007.7</ele>
        <time>2019-08-08T09:27:13Z</time>
      </trkpt>
      <trkpt lat="46.56292" lon="6.00344">
        <ele>1008.7</ele>
        <time>2019-08-08T09:27:25Z</time>
      </trkpt>
      <trkpt lat="46.56297" lon="6.00343">
        <ele>1009.9</ele>
        <time>2019-08-08T09:27:35Z</time>
      </trkpt>
      <trkpt lat="46.56302" lon="6.00342">
        <ele>1011.1</ele>
        <time>2019-08-08T09:27:40Z</time>
      </trkpt>
      <trkpt lat="46.56309" lon="6.00341">
        <ele>1012.3</ele>
        <time>2019-08-08T09:27:45Z</time>
      </trkpt>
      <trkpt lat="46.56315" lon="6.0034">
        <ele>1012.8</ele>
        <time>2019-08-08T09:27:47Z</time>
      </trkpt>
      <trkpt lat="46.5632" lon="6.00338">
        <ele>1013.5</ele>
        <time>2019-08-08T09:27:50Z</time>
      </trkpt>
      <trkpt lat="46.56324" lon="6.00336">
        <ele>1014.1</ele>
        <time>2019-08-08T09:27:53Z</time>
      </trkpt>
      <trkpt lat="46.56329" lon="6.00335">
        <ele>1014.6</ele>
        <time>2019-08-08T09:27:57Z</time>
      </trkpt>
      <trkpt lat="46.56334" lon="6.00333">
        <ele>1014.8</ele>
        <time>2019-08-08T09:28:04Z</time>
      </trkpt>
      <trkpt lat="46.56339" lon="6.00332">
        <ele>1014.4</ele>
        <time>2019-08-08T09:28:14Z</time>
      </trkpt>
      <trkpt lat="46.56343" lon="6.00331">
        <ele>1014.5</ele>
        <time>2019-08-08T09:28:19Z</time>
      </trkpt>
      <trkpt lat="46.56348" lon="6.00333">
        <ele>1014.9</ele>
        <time>2019-08-08T09:28:30Z</time>
      </trkpt>
      <trkpt lat="46.56353" lon="6.00335">
        <ele>1014.5</ele>
        <time>2019-08-08T09:28:35Z</time>
      </trkpt>
      <trkpt lat="46.56357" lon="6.0034">
        <ele>1013.5</ele>
        <time>2019-08-08T09:28:40Z</time>
      </trkpt>
      <trkpt lat="46.56359" lon="6.00346">
        <ele>1012.4</ele>
        <time>2019-08-08T09:28:44Z</time>
      </trkpt>
      <trkpt lat="46.56361" lon="6.00353">
        <ele>1010.6</ele>
        <time>2019-08-08T09:28:51Z</time>
      </trkpt>
      <trkpt lat="46.56366" lon="6.00355">
        <ele>1009.5</ele>
        <time>2019-08-08T09:28:56Z</time>
      </trkpt>
      <trkpt lat="46.56371" lon="6.0036">
        <ele>1008.5</ele>
        <time>2019-08-08T09:29:01Z</time>
      </trkpt>
      <trkpt lat="46.56375" lon="6.00364">
        <ele>1007.9</ele>
        <time>2019-08-08T09:29:06Z</time>
      </trkpt>
      <trkpt lat="46.56393" lon="6.0036">
        <ele>1005.4</ele>
        <time>2019-08-08T09:29:39Z</time>
      </trkpt>
      <trkpt lat="46.56398" lon="6.00362">
        <ele>1004.9</ele>
        <time>2019-08-08T09:29:47Z</time>
      </trkpt>
      <trkpt lat="46.56401" lon="6.00367">
        <ele>1004.2</ele>
        <time>2019-08-08T09:29:53Z</time>
      </trkpt>
      <trkpt lat="46.56404" lon="6.00374">
        <ele>1003.6</ele>
        <time>2019-08-08T09:29:58Z</time>
      </trkpt>
      <trkpt lat="46.56407" lon="6.00379">
        <ele>1002.9</ele>
        <time>2019-08-08T09:30:03Z</time>
      </trkpt>
      <trkpt lat="46.5641" lon="6.00383">
        <ele>1002.1</ele>
        <time>2019-08-08T09:30:08Z</time>
      </trkpt>
      <trkpt lat="46.56414" lon="6.00389">
        <ele>1001.5</ele>
        <time>2019-08-08T09:30:12Z</time>
      </trkpt>
      <trkpt lat="46.56417" lon="6.00395">
        <ele>1001.2</ele>
        <time>2019-08-08T09:30:17Z</time>
      </trkpt>
      <trkpt lat="46.56423" lon="6.00409">
        <ele>1000.7</ele>
        <time>2019-08-08T09:30:26Z</time>
      </trkpt>
      <trkpt lat="46.56423" lon="6.00416">
        <ele>1000.6</ele>
        <time>2019-08-08T09:30:31Z</time>
      </trkpt>
      <trkpt lat="46.5642" lon="6.00422">
        <ele>1000.7</ele>
        <time>2019-08-08T09:30:35Z</time>
      </trkpt>
      <trkpt lat="46.56416" lon="6.00428">
        <ele>1001</ele>
        <time>2019-08-08T09:30:39Z</time>
      </trkpt>
      <trkpt lat="46.56414" lon="6.00435">
        <ele>1001.6</ele>
        <time>2019-08-08T09:30:44Z</time>
      </trkpt>
      <trkpt lat="46.56412" lon="6.00441">
        <ele>1002</ele>
        <time>2019-08-08T09:30:48Z</time>
      </trkpt>
      <trkpt lat="46.56411" lon="6.00448">
        <ele>1002.5</ele>
        <time>2019-08-08T09:30:52Z</time>
      </trkpt>
      <trkpt lat="46.56411" lon="6.00454">
        <ele>1002.9</ele>
        <time>2019-08-08T09:30:57Z</time>
      </trkpt>
      <trkpt lat="46.56412" lon="6.00461">
        <ele>1003.1</ele>
        <time>2019-08-08T09:31:02Z</time>
      </trkpt>
      <trkpt lat="46.56411" lon="6.00468">
        <ele>1003.2</ele>
        <time>2019-08-08T09:31:07Z</time>
      </trkpt>
      <trkpt lat="46.56409" lon="6.00475">
        <ele>1003.5</ele>
        <time>2019-08-08T09:31:12Z</time>
      </trkpt>
      <trkpt lat="46.56408" lon="6.00482">
        <ele>1003.4</ele>
        <time>2019-08-08T09:31:18Z</time>
      </trkpt>
      <trkpt lat="46.56405" lon="6.00487">
        <ele>1003.5</ele>
        <time>2019-08-08T09:31:22Z</time>
      </trkpt>
      <trkpt lat="46.56403" lon="6.00494">
        <ele>1003.5</ele>
        <time>2019-08-08T09:31:26Z</time>
      </trkpt>
      <trkpt lat="46.56402" lon="6.00502">
        <ele>1003.7</ele>
        <time>2019-08-08T09:31:31Z</time>
      </trkpt>
      <trkpt lat="46.56401" lon="6.00509">
        <ele>1004</ele>
        <time>2019-08-08T09:31:35Z</time>
      </trkpt>
      <trkpt lat="46.56399" lon="6.00515">
        <ele>1004</ele>
        <time>2019-08-08T09:31:40Z</time>
      </trkpt>
      <trkpt lat="46.56396" lon="6.00521">
        <ele>1003.8</ele>
        <time>2019-08-08T09:31:46Z</time>
      </trkpt>
      <trkpt lat="46.56394" lon="6.00528">
        <ele>1003.6</ele>
        <time>2019-08-08T09:31:52Z</time>
      </trkpt>
      <trkpt lat="46.56392" lon="6.00534">
        <ele>1003.5</ele>
        <time>2019-08-08T09:31:57Z</time>
      </trkpt>
      <trkpt lat="46.56389" lon="6.0054">
        <ele>1003.4</ele>
        <time>2019-08-08T09:32:02Z</time>
      </trkpt>
      <trkpt lat="46.56387" lon="6.00548">
        <ele>1003.3</ele>
        <time>2019-08-08T09:32:07Z</time>
      </trkpt>
      <trkpt lat="46.56384" lon="6.00553">
        <ele>1003.4</ele>
        <time>2019-08-08T09:32:17Z</time>
      </trkpt>
      <trkpt lat="46.56381" lon="6.00558">
        <ele>1003.7</ele>
        <time>2019-08-08T09:32:23Z</time>
      </trkpt>
      <trkpt lat="46.5638" lon="6.00564">
        <ele>1004.4</ele>
        <time>2019-08-08T09:32:31Z</time>
      </trkpt>
      <trkpt lat="46.56377" lon="6.0057">
        <ele>1004.5</ele>
        <time>2019-08-08T09:32:37Z</time>
      </trkpt>
      <trkpt lat="46.56374" lon="6.00575">
        <ele>1004.4</ele>
        <time>2019-08-08T09:32:41Z</time>
      </trkpt>
      <trkpt lat="46.56371" lon="6.00581">
        <ele>1004.3</ele>
        <time>2019-08-08T09:32:44Z</time>
      </trkpt>
      <trkpt lat="46.56368" lon="6.00586">
        <ele>1004</ele>
        <time>2019-08-08T09:32:48Z</time>
      </trkpt>
      <trkpt lat="46.56365" lon="6.00591">
        <ele>1003.6</ele>
        <time>2019-08-08T09:32:55Z</time>
      </trkpt>
      <trkpt lat="46.5636" lon="6.00594">
        <ele>1002.9</ele>
        <time>2019-08-08T09:33:08Z</time>
      </trkpt>
      <trkpt lat="46.5636" lon="6.00589">
        <ele>1001.2</ele>
        <time>2019-08-08T09:33:32Z</time>
      </trkpt>
      <trkpt lat="46.56364" lon="6.00583">
        <ele>1000.7</ele>
        <time>2019-08-08T09:33:37Z</time>
      </trkpt>
      <trkpt lat="46.56367" lon="6.00578">
        <ele>999.9</ele>
        <time>2019-08-08T09:33:42Z</time>
      </trkpt>
      <trkpt lat="46.5637" lon="6.00572">
        <ele>999.3</ele>
        <time>2019-08-08T09:33:49Z</time>
      </trkpt>
      <trkpt lat="46.56375" lon="6.00568">
        <ele>999.1</ele>
        <time>2019-08-08T09:33:54Z</time>
      </trkpt>
      <trkpt lat="46.5638" lon="6.00566">
        <ele>999.1</ele>
        <time>2019-08-08T09:33:58Z</time>
      </trkpt>
      <trkpt lat="46.56386" lon="6.00565">
        <ele>999.1</ele>
        <time>2019-08-08T09:34:03Z</time>
      </trkpt>
      <trkpt lat="46.5639" lon="6.00565">
        <ele>999.2</ele>
        <time>2019-08-08T09:34:06Z</time>
      </trkpt>
      <trkpt lat="46.56397" lon="6.00565">
        <ele>999.3</ele>
        <time>2019-08-08T09:34:09Z</time>
      </trkpt>
      <trkpt lat="46.56402" lon="6.00565">
        <ele>999.6</ele>
        <time>2019-08-08T09:34:13Z</time>
      </trkpt>
      <trkpt lat="46.56407" lon="6.00564">
        <ele>1000.2</ele>
        <time>2019-08-08T09:34:17Z</time>
      </trkpt>
      <trkpt lat="46.56412" lon="6.00561">
        <ele>1000.7</ele>
        <time>2019-08-08T09:34:21Z</time>
      </trkpt>
      <trkpt lat="46.56417" lon="6.00558">
        <ele>1001.3</ele>
        <time>2019-08-08T09:34:25Z</time>
      </trkpt>
      <trkpt lat="46.5642" lon="6.00554">
        <ele>1002</ele>
        <time>2019-08-08T09:34:31Z</time>
      </trkpt>
      <trkpt lat="46.56424" lon="6.00548">
        <ele>1002.4</ele>
        <time>2019-08-08T09:34:38Z</time>
      </trkpt>
      <trkpt lat="46.56427" lon="6.00541">
        <ele>1002.3</ele>
        <time>2019-08-08T09:34:43Z</time>
      </trkpt>
      <trkpt lat="46.56431" lon="6.00536">
        <ele>1002</ele>
        <time>2019-08-08T09:34:47Z</time>
      </trkpt>
      <trkpt lat="46.56434" lon="6.00531">
        <ele>1001.7</ele>
        <time>2019-08-08T09:34:52Z</time>
      </trkpt>
      <trkpt lat="46.56437" lon="6.00524">
        <ele>1001.7</ele>
        <time>2019-08-08T09:34:56Z</time>
      </trkpt>
      <trkpt lat="46.56439" lon="6.00518">
        <ele>1001.8</ele>
        <time>2019-08-08T09:34:59Z</time>
      </trkpt>
      <trkpt lat="46.56443" lon="6.00513">
        <ele>1002</ele>
        <time>2019-08-08T09:35:03Z</time>
      </trkpt>
      <trkpt lat="46.56446" lon="6.00507">
        <ele>1002.4</ele>
        <time>2019-08-08T09:35:07Z</time>
      </trkpt>
      <trkpt lat="46.56448" lon="6.00502">
        <ele>1002.7</ele>
        <time>2019-08-08T09:35:11Z</time>
      </trkpt>
      <trkpt lat="46.56451" lon="6.00495">
        <ele>1002.7</ele>
        <time>2019-08-08T09:35:16Z</time>
      </trkpt>
      <trkpt lat="46.56454" lon="6.00491">
        <ele>1001.9</ele>
        <time>2019-08-08T09:35:24Z</time>
      </trkpt>
      <trkpt lat="46.56457" lon="6.00486">
        <ele>1000.2</ele>
        <time>2019-08-08T09:35:32Z</time>
      </trkpt>
      <trkpt lat="46.5646" lon="6.00478">
        <ele>998.8</ele>
        <time>2019-08-08T09:35:37Z</time>
      </trkpt>
      <trkpt lat="46.56463" lon="6.00472">
        <ele>997.8</ele>
        <time>2019-08-08T09:35:42Z</time>
      </trkpt>
      <trkpt lat="46.56467" lon="6.00469">
        <ele>997.3</ele>
        <time>2019-08-08T09:35:46Z</time>
      </trkpt>
      <trkpt lat="46.56474" lon="6.00471">
        <ele>996.6</ele>
        <time>2019-08-08T09:35:59Z</time>
      </trkpt>
      <trkpt lat="46.56479" lon="6.00473">
        <ele>996.5</ele>
        <time>2019-08-08T09:36:03Z</time>
      </trkpt>
      <trkpt lat="46.56485" lon="6.0047">
        <ele>996.6</ele>
        <time>2019-08-08T09:36:29Z</time>
      </trkpt>
      <trkpt lat="46.56489" lon="6.00469">
        <ele>996.8</ele>
        <time>2019-08-08T09:36:33Z</time>
      </trkpt>
      <trkpt lat="46.56494" lon="6.00469">
        <ele>997.8</ele>
        <time>2019-08-08T09:36:42Z</time>
      </trkpt>
      <trkpt lat="46.56498" lon="6.00469">
        <ele>998.9</ele>
        <time>2019-08-08T09:36:51Z</time>
      </trkpt>
      <trkpt lat="46.56503" lon="6.0047">
        <ele>999.7</ele>
        <time>2019-08-08T09:36:56Z</time>
      </trkpt>
      <trkpt lat="46.56511" lon="6.00473">
        <ele>1002.8</ele>
        <time>2019-08-08T09:37:15Z</time>
      </trkpt>
      <trkpt lat="46.56515" lon="6.00469">
        <ele>1003.4</ele>
        <time>2019-08-08T09:37:32Z</time>
      </trkpt>
      <trkpt lat="46.5652" lon="6.00464">
        <ele>1003.3</ele>
        <time>2019-08-08T09:37:36Z</time>
      </trkpt>
      <trkpt lat="46.56532" lon="6.00442">
        <ele>1005.1</ele>
        <time>2019-08-08T09:38:05Z</time>
      </trkpt>
      <trkpt lat="46.56537" lon="6.00437">
        <ele>1005.3</ele>
        <time>2019-08-08T09:38:11Z</time>
      </trkpt>
      <trkpt lat="46.56542" lon="6.00435">
        <ele>1005.7</ele>
        <time>2019-08-08T09:38:16Z</time>
      </trkpt>
      <trkpt lat="46.56546" lon="6.00431">
        <ele>1006.6</ele>
        <time>2019-08-08T09:38:27Z</time>
      </trkpt>
      <trkpt lat="46.5655" lon="6.00428">
        <ele>1007.7</ele>
        <time>2019-08-08T09:38:38Z</time>
      </trkpt>
      <trkpt lat="46.56555" lon="6.00425">
        <ele>1008</ele>
        <time>2019-08-08T09:38:46Z</time>
      </trkpt>
      <trkpt lat="46.5656" lon="6.00423">
        <ele>1007.8</ele>
        <time>2019-08-08T09:38:52Z</time>
      </trkpt>
      <trkpt lat="46.56565" lon="6.00423">
        <ele>1006.2</ele>
        <time>2019-08-08T09:39:05Z</time>
      </trkpt>
      <trkpt lat="46.5657" lon="6.00423">
        <ele>1005.3</ele>
        <time>2019-08-08T09:39:10Z</time>
      </trkpt>
      <trkpt lat="46.56575" lon="6.00423">
        <ele>1004.2</ele>
        <time>2019-08-08T09:39:16Z</time>
      </trkpt>
      <trkpt lat="46.5658" lon="6.00422">
        <ele>1003.4</ele>
        <time>2019-08-08T09:39:20Z</time>
      </trkpt>
      <trkpt lat="46.56585" lon="6.00424">
        <ele>1002.3</ele>
        <time>2019-08-08T09:39:25Z</time>
      </trkpt>
      <trkpt lat="46.56589" lon="6.00426">
        <ele>1000.5</ele>
        <time>2019-08-08T09:39:33Z</time>
      </trkpt>
      <trkpt lat="46.56594" lon="6.00427">
        <ele>999.5</ele>
        <time>2019-08-08T09:39:39Z</time>
      </trkpt>
      <trkpt lat="46.56599" lon="6.00427">
        <ele>1000.4</ele>
        <time>2019-08-08T09:40:00Z</time>
      </trkpt>
      <trkpt lat="46.56604" lon="6.00428">
        <ele>1002.6</ele>
        <time>2019-08-08T09:40:06Z</time>
      </trkpt>
      <trkpt lat="46.56608" lon="6.00431">
        <ele>1004.9</ele>
        <time>2019-08-08T09:40:15Z</time>
      </trkpt>
      <trkpt lat="46.56611" lon="6.00436">
        <ele>1005.6</ele>
        <time>2019-08-08T09:40:21Z</time>
      </trkpt>
      <trkpt lat="46.56659" lon="6.00486">
        <ele>1010</ele>
        <time>2019-08-08T09:41:46Z</time>
      </trkpt>
      <trkpt lat="46.56664" lon="6.00489">
        <ele>1010.5</ele>
        <time>2019-08-08T09:41:49Z</time>
      </trkpt>
      <trkpt lat="46.56672" lon="6.00488">
        <ele>1011.3</ele>
        <time>2019-08-08T09:41:52Z</time>
      </trkpt>
      <trkpt lat="46.56679" lon="6.0049">
        <ele>1012.5</ele>
        <time>2019-08-08T09:41:56Z</time>
      </trkpt>
      <trkpt lat="46.56688" lon="6.00487">
        <ele>1014.9</ele>
        <time>2019-08-08T09:42:13Z</time>
      </trkpt>
      <trkpt lat="46.56692" lon="6.00484">
        <ele>1014.9</ele>
        <time>2019-08-08T09:42:19Z</time>
      </trkpt>
      <trkpt lat="46.56697" lon="6.0048">
        <ele>1015</ele>
        <time>2019-08-08T09:42:23Z</time>
      </trkpt>
      <trkpt lat="46.56706" lon="6.00475">
        <ele>1015.3</ele>
        <time>2019-08-08T09:42:40Z</time>
      </trkpt>
      <trkpt lat="46.56709" lon="6.00469">
        <ele>1015</ele>
        <time>2019-08-08T09:42:48Z</time>
      </trkpt>
      <trkpt lat="46.56712" lon="6.00465">
        <ele>1014.7</ele>
        <time>2019-08-08T09:42:51Z</time>
      </trkpt>
      <trkpt lat="46.56716" lon="6.00459">
        <ele>1014.2</ele>
        <time>2019-08-08T09:42:58Z</time>
      </trkpt>
      <trkpt lat="46.56718" lon="6.00452">
        <ele>1014.1</ele>
        <time>2019-08-08T09:43:00Z</time>
      </trkpt>
      <trkpt lat="46.56724" lon="6.00439">
        <ele>1013.5</ele>
        <time>2019-08-08T09:43:11Z</time>
      </trkpt>
      <trkpt lat="46.56734" lon="6.00432">
        <ele>1012.6</ele>
        <time>2019-08-08T09:43:26Z</time>
      </trkpt>
      <trkpt lat="46.56739" lon="6.00431">
        <ele>1012.3</ele>
        <time>2019-08-08T09:43:30Z</time>
      </trkpt>
      <trkpt lat="46.56749" lon="6.00427">
        <ele>1011.5</ele>
        <time>2019-08-08T09:43:46Z</time>
      </trkpt>
      <trkpt lat="46.56762" lon="6.0042">
        <ele>1010.1</ele>
        <time>2019-08-08T09:43:58Z</time>
      </trkpt>
      <trkpt lat="46.56767" lon="6.00419">
        <ele>1009.7</ele>
        <time>2019-08-08T09:44:02Z</time>
      </trkpt>
      <trkpt lat="46.56771" lon="6.00422">
        <ele>1009.8</ele>
        <time>2019-08-08T09:44:19Z</time>
      </trkpt>
      <trkpt lat="46.56777" lon="6.00427">
        <ele>1009.9</ele>
        <time>2019-08-08T09:44:24Z</time>
      </trkpt>
      <trkpt lat="46.56784" lon="6.0043">
        <ele>1009.9</ele>
        <time>2019-08-08T09:44:27Z</time>
      </trkpt>
      <trkpt lat="46.56801" lon="6.00433">
        <ele>1009.6</ele>
        <time>2019-08-08T09:44:39Z</time>
      </trkpt>
      <trkpt lat="46.56806" lon="6.00432">
        <ele>1010</ele>
        <time>2019-08-08T09:44:47Z</time>
      </trkpt>
      <trkpt lat="46.56816" lon="6.00427">
        <ele>1010.7</ele>
        <time>2019-08-08T09:44:57Z</time>
      </trkpt>
      <trkpt lat="46.56821" lon="6.00425">
        <ele>1010.8</ele>
        <time>2019-08-08T09:45:01Z</time>
      </trkpt>
      <trkpt lat="46.56825" lon="6.00423">
        <ele>1010.9</ele>
        <time>2019-08-08T09:45:06Z</time>
      </trkpt>
      <trkpt lat="46.5683" lon="6.00422">
        <ele>1010.7</ele>
        <time>2019-08-08T09:45:13Z</time>
      </trkpt>
      <trkpt lat="46.56834" lon="6.0042">
        <ele>1009.5</ele>
        <time>2019-08-08T09:45:21Z</time>
      </trkpt>
      <trkpt lat="46.56839" lon="6.00418">
        <ele>1008.8</ele>
        <time>2019-08-08T09:45:27Z</time>
      </trkpt>
      <trkpt lat="46.56844" lon="6.00413">
        <ele>1008.7</ele>
        <time>2019-08-08T09:45:31Z</time>
      </trkpt>
      <trkpt lat="46.56848" lon="6.00411">
        <ele>1008.8</ele>
        <time>2019-08-08T09:45:36Z</time>
      </trkpt>
      <trkpt lat="46.56873" lon="6.00415">
        <ele>1013.1</ele>
        <time>2019-08-08T09:46:17Z</time>
      </trkpt>
      <trkpt lat="46.56881" lon="6.00422">
        <ele>1016.2</ele>
        <time>2019-08-08T09:46:38Z</time>
      </trkpt>
      <trkpt lat="46.56885" lon="6.00425">
        <ele>1017.8</ele>
        <time>2019-08-08T09:46:46Z</time>
      </trkpt>
      <trkpt lat="46.5689" lon="6.00421">
        <ele>1018.7</ele>
        <time>2019-08-08T09:46:53Z</time>
      </trkpt>
      <trkpt lat="46.56893" lon="6.00417">
        <ele>1019</ele>
        <time>2019-08-08T09:46:56Z</time>
      </trkpt>
      <trkpt lat="46.56897" lon="6.00413">
        <ele>1019.5</ele>
        <time>2019-08-08T09:47:00Z</time>
      </trkpt>
      <trkpt lat="46.56901" lon="6.00399">
        <ele>1020.6</ele>
        <time>2019-08-08T09:47:31Z</time>
      </trkpt>
      <trkpt lat="46.56902" lon="6.00382">
        <ele>1021.3</ele>
        <time>2019-08-08T09:47:39Z</time>
      </trkpt>
      <trkpt lat="46.56903" lon="6.00374">
        <ele>1021.4</ele>
        <time>2019-08-08T09:47:42Z</time>
      </trkpt>
      <trkpt lat="46.56904" lon="6.00368">
        <ele>1021.8</ele>
        <time>2019-08-08T09:47:48Z</time>
      </trkpt>
      <trkpt lat="46.56913" lon="6.00364">
        <ele>1021.6</ele>
        <time>2019-08-08T09:48:15Z</time>
      </trkpt>
      <trkpt lat="46.56918" lon="6.00359">
        <ele>1021.6</ele>
        <time>2019-08-08T09:48:19Z</time>
      </trkpt>
      <trkpt lat="46.56922" lon="6.00357">
        <ele>1021.8</ele>
        <time>2019-08-08T09:48:23Z</time>
      </trkpt>
      <trkpt lat="46.56927" lon="6.00353">
        <ele>1022.2</ele>
        <time>2019-08-08T09:48:28Z</time>
      </trkpt>
      <trkpt lat="46.56931" lon="6.00349">
        <ele>1022.6</ele>
        <time>2019-08-08T09:48:34Z</time>
      </trkpt>
      <trkpt lat="46.5694" lon="6.00346">
        <ele>1022.5</ele>
        <time>2019-08-08T09:48:48Z</time>
      </trkpt>
      <trkpt lat="46.56943" lon="6.0034">
        <ele>1022.1</ele>
        <time>2019-08-08T09:48:55Z</time>
      </trkpt>
      <trkpt lat="46.56945" lon="6.00334">
        <ele>1021.4</ele>
        <time>2019-08-08T09:49:00Z</time>
      </trkpt>
      <trkpt lat="46.56949" lon="6.0033">
        <ele>1020.3</ele>
        <time>2019-08-08T09:49:07Z</time>
      </trkpt>
      <trkpt lat="46.56951" lon="6.00322">
        <ele>1019.3</ele>
        <time>2019-08-08T09:49:13Z</time>
      </trkpt>
      <trkpt lat="46.56953" lon="6.00315">
        <ele>1018.8</ele>
        <time>2019-08-08T09:49:17Z</time>
      </trkpt>
      <trkpt lat="46.56955" lon="6.00308">
        <ele>1018.4</ele>
        <time>2019-08-08T09:49:23Z</time>
      </trkpt>
      <trkpt lat="46.56956" lon="6.00301">
        <ele>1018.3</ele>
        <time>2019-08-08T09:49:27Z</time>
      </trkpt>
      <trkpt lat="46.56957" lon="6.00294">
        <ele>1018.3</ele>
        <time>2019-08-08T09:49:30Z</time>
      </trkpt>
      <trkpt lat="46.56958" lon="6.00288">
        <ele>1018.4</ele>
        <time>2019-08-08T09:49:33Z</time>
      </trkpt>
      <trkpt lat="46.56959" lon="6.00278">
        <ele>1018.5</ele>
        <time>2019-08-08T09:49:37Z</time>
      </trkpt>
      <trkpt lat="46.56961" lon="6.00271">
        <ele>1018.8</ele>
        <time>2019-08-08T09:49:41Z</time>
      </trkpt>
      <trkpt lat="46.56963" lon="6.00264">
        <ele>1019.7</ele>
        <time>2019-08-08T09:49:47Z</time>
      </trkpt>
      <trkpt lat="46.56968" lon="6.00263">
        <ele>1022.1</ele>
        <time>2019-08-08T09:49:56Z</time>
      </trkpt>
      <trkpt lat="46.56973" lon="6.00262">
        <ele>1023.7</ele>
        <time>2019-08-08T09:50:02Z</time>
      </trkpt>
      <trkpt lat="46.56977" lon="6.00259">
        <ele>1024.6</ele>
        <time>2019-08-08T09:50:06Z</time>
      </trkpt>
      <trkpt lat="46.56982" lon="6.00258">
        <ele>1025.2</ele>
        <time>2019-08-08T09:50:11Z</time>
      </trkpt>
      <trkpt lat="46.56987" lon="6.00258">
        <ele>1025.6</ele>
        <time>2019-08-08T09:50:16Z</time>
      </trkpt>
      <trkpt lat="46.56992" lon="6.00256">
        <ele>1025.6</ele>
        <time>2019-08-08T09:50:20Z</time>
      </trkpt>
      <trkpt lat="46.56996" lon="6.00255">
        <ele>1025.4</ele>
        <time>2019-08-08T09:50:24Z</time>
      </trkpt>
      <trkpt lat="46.57001" lon="6.00254">
        <ele>1024.6</ele>
        <time>2019-08-08T09:50:30Z</time>
      </trkpt>
      <trkpt lat="46.57006" lon="6.00252">
        <ele>1023.8</ele>
        <time>2019-08-08T09:50:36Z</time>
      </trkpt>
      <trkpt lat="46.5701" lon="6.00249">
        <ele>1022.4</ele>
        <time>2019-08-08T09:50:43Z</time>
      </trkpt>
      <trkpt lat="46.57015" lon="6.00245">
        <ele>1021</ele>
        <time>2019-08-08T09:50:49Z</time>
      </trkpt>
      <trkpt lat="46.57019" lon="6.00242">
        <ele>1019.1</ele>
        <time>2019-08-08T09:50:56Z</time>
      </trkpt>
      <trkpt lat="46.57024" lon="6.00241">
        <ele>1017.7</ele>
        <time>2019-08-08T09:51:01Z</time>
      </trkpt>
      <trkpt lat="46.5703" lon="6.00235">
        <ele>1013.5</ele>
        <time>2019-08-08T09:51:15Z</time>
      </trkpt>
      <trkpt lat="46.57036" lon="6.00228">
        <ele>1011.3</ele>
        <time>2019-08-08T09:51:25Z</time>
      </trkpt>
      <trkpt lat="46.57039" lon="6.00224">
        <ele>1011.3</ele>
        <time>2019-08-08T09:51:29Z</time>
      </trkpt>
      <trkpt lat="46.57042" lon="6.00218">
        <ele>1011.4</ele>
        <time>2019-08-08T09:51:32Z</time>
      </trkpt>
      <trkpt lat="46.57047" lon="6.00216">
        <ele>1011.8</ele>
        <time>2019-08-08T09:51:36Z</time>
      </trkpt>
      <trkpt lat="46.57071" lon="6.00201">
        <ele>1019.4</ele>
        <time>2019-08-08T09:52:23Z</time>
      </trkpt>
      <trkpt lat="46.57076" lon="6.00197">
        <ele>1019.7</ele>
        <time>2019-08-08T09:52:27Z</time>
      </trkpt>
      <trkpt lat="46.57079" lon="6.00192">
        <ele>1020.1</ele>
        <time>2019-08-08T09:52:31Z</time>
      </trkpt>
      <trkpt lat="46.57093" lon="6.00171">
        <ele>1023.8</ele>
        <time>2019-08-08T09:52:48Z</time>
      </trkpt>
      <trkpt lat="46.57098" lon="6.00167">
        <ele>1024.5</ele>
        <time>2019-08-08T09:52:53Z</time>
      </trkpt>
      <trkpt lat="46.57122" lon="6.00151">
        <ele>1031</ele>
        <time>2019-08-08T09:53:28Z</time>
      </trkpt>
      <trkpt lat="46.57126" lon="6.00148">
        <ele>1032.1</ele>
        <time>2019-08-08T09:53:42Z</time>
      </trkpt>
      <trkpt lat="46.57145" lon="6.00154">
        <ele>1033.1</ele>
        <time>2019-08-08T09:54:04Z</time>
      </trkpt>
      <trkpt lat="46.57151" lon="6.00159">
        <ele>1033.2</ele>
        <time>2019-08-08T09:54:06Z</time>
      </trkpt>
      <trkpt lat="46.57155" lon="6.00163">
        <ele>1033.3</ele>
        <time>2019-08-08T09:54:08Z</time>
      </trkpt>
      <trkpt lat="46.5716" lon="6.00167">
        <ele>1033.4</ele>
        <time>2019-08-08T09:54:14Z</time>
      </trkpt>
      <trkpt lat="46.57164" lon="6.00171">
        <ele>1033.4</ele>
        <time>2019-08-08T09:54:20Z</time>
      </trkpt>
      <trkpt lat="46.57168" lon="6.00177">
        <ele>1033.6</ele>
        <time>2019-08-08T09:54:23Z</time>
      </trkpt>
      <trkpt lat="46.57172" lon="6.00181">
        <ele>1034</ele>
        <time>2019-08-08T09:54:27Z</time>
      </trkpt>
      <trkpt lat="46.57175" lon="6.00187">
        <ele>1035.6</ele>
        <time>2019-08-08T09:54:38Z</time>
      </trkpt>
      <trkpt lat="46.57178" lon="6.00192">
        <ele>1036.2</ele>
        <time>2019-08-08T09:54:43Z</time>
      </trkpt>
      <trkpt lat="46.57182" lon="6.00195">
        <ele>1036.5</ele>
        <time>2019-08-08T09:54:47Z</time>
      </trkpt>
      <trkpt lat="46.5719" lon="6.00203">
        <ele>1037.1</ele>
        <time>2019-08-08T09:55:02Z</time>
      </trkpt>
      <trkpt lat="46.57194" lon="6.00208">
        <ele>1037.5</ele>
        <time>2019-08-08T09:55:06Z</time>
      </trkpt>
      <trkpt lat="46.572" lon="6.00214">
        <ele>1038.4</ele>
        <time>2019-08-08T09:55:13Z</time>
      </trkpt>
      <trkpt lat="46.57204" lon="6.00217">
        <ele>1039</ele>
        <time>2019-08-08T09:55:17Z</time>
      </trkpt>
      <trkpt lat="46.57208" lon="6.00221">
        <ele>1040.2</ele>
        <time>2019-08-08T09:55:25Z</time>
      </trkpt>
      <trkpt lat="46.57218" lon="6.00223">
        <ele>1049.8</ele>
        <time>2019-08-08T09:56:59Z</time>
      </trkpt>
      <trkpt lat="46.57222" lon="6.00218">
        <ele>1052</ele>
        <time>2019-08-08T09:57:07Z</time>
      </trkpt>
      <trkpt lat="46.57236" lon="6.00211">
        <ele>1053.1</ele>
        <time>2019-08-08T09:57:20Z</time>
      </trkpt>
      <trkpt lat="46.57257" lon="6.0021">
        <ele>1018.9</ele>
        <time>2019-08-08T10:46:39Z</time>
      </trkpt>
      <trkpt lat="46.57262" lon="6.00209">
        <ele>1019.2</ele>
        <time>2019-08-08T10:46:42Z</time>
      </trkpt>
      <trkpt lat="46.57267" lon="6.00207">
        <ele>1019.5</ele>
        <time>2019-08-08T10:46:45Z</time>
      </trkpt>
      <trkpt lat="46.57276" lon="6.00202">
        <ele>1020.5</ele>
        <time>2019-08-08T10:46:57Z</time>
      </trkpt>
      <trkpt lat="46.5728" lon="6.00198">
        <ele>1021.4</ele>
        <time>2019-08-08T10:47:05Z</time>
      </trkpt>
      <trkpt lat="46.57285" lon="6.00194">
        <ele>1022.8</ele>
        <time>2019-08-08T10:47:12Z</time>
      </trkpt>
      <trkpt lat="46.5729" lon="6.00192">
        <ele>1024.2</ele>
        <time>2019-08-08T10:47:17Z</time>
      </trkpt>
      <trkpt lat="46.57299" lon="6.00178">
        <ele>1029.3</ele>
        <time>2019-08-08T10:47:30Z</time>
      </trkpt>
      <trkpt lat="46.57305" lon="6.00171">
        <ele>1033</ele>
        <time>2019-08-08T10:47:52Z</time>
      </trkpt>
      <trkpt lat="46.57309" lon="6.00169">
        <ele>1033.2</ele>
        <time>2019-08-08T10:47:58Z</time>
      </trkpt>
      <trkpt lat="46.57314" lon="6.00167">
        <ele>1033.8</ele>
        <time>2019-08-08T10:48:03Z</time>
      </trkpt>
      <trkpt lat="46.57318" lon="6.00162">
        <ele>1034.4</ele>
        <time>2019-08-08T10:48:07Z</time>
      </trkpt>
      <trkpt lat="46.57322" lon="6.00155">
        <ele>1035.1</ele>
        <time>2019-08-08T10:48:13Z</time>
      </trkpt>
      <trkpt lat="46.57334" lon="6.00141">
        <ele>1037.3</ele>
        <time>2019-08-08T10:48:32Z</time>
      </trkpt>
      <trkpt lat="46.57341" lon="6.00147">
        <ele>1038</ele>
        <time>2019-08-08T10:48:45Z</time>
      </trkpt>
      <trkpt lat="46.57356" lon="6.00162">
        <ele>1037.4</ele>
        <time>2019-08-08T10:49:01Z</time>
      </trkpt>
      <trkpt lat="46.57357" lon="6.00169">
        <ele>1037.4</ele>
        <time>2019-08-08T10:49:08Z</time>
      </trkpt>
      <trkpt lat="46.57361" lon="6.00175">
        <ele>1037.2</ele>
        <time>2019-08-08T10:49:13Z</time>
      </trkpt>
      <trkpt lat="46.57364" lon="6.0018">
        <ele>1036.8</ele>
        <time>2019-08-08T10:49:19Z</time>
      </trkpt>
      <trkpt lat="46.57368" lon="6.00185">
        <ele>1036.6</ele>
        <time>2019-08-08T10:49:21Z</time>
      </trkpt>
      <trkpt lat="46.57372" lon="6.00191">
        <ele>1035.8</ele>
        <time>2019-08-08T10:49:27Z</time>
      </trkpt>
      <trkpt lat="46.57374" lon="6.00196">
        <ele>1034.3</ele>
        <time>2019-08-08T10:49:34Z</time>
      </trkpt>
      <trkpt lat="46.57377" lon="6.00202">
        <ele>1032.6</ele>
        <time>2019-08-08T10:49:42Z</time>
      </trkpt>
      <trkpt lat="46.57403" lon="6.00226">
        <ele>1031.8</ele>
        <time>2019-08-08T10:50:27Z</time>
      </trkpt>
      <trkpt lat="46.57408" lon="6.00222">
        <ele>1033.2</ele>
        <time>2019-08-08T10:50:41Z</time>
      </trkpt>
      <trkpt lat="46.57412" lon="6.0022">
        <ele>1035.1</ele>
        <time>2019-08-08T10:50:51Z</time>
      </trkpt>
      <trkpt lat="46.57417" lon="6.0022">
        <ele>1035.9</ele>
        <time>2019-08-08T10:50:55Z</time>
      </trkpt>
      <trkpt lat="46.57421" lon="6.00217">
        <ele>1036.4</ele>
        <time>2019-08-08T10:50:57Z</time>
      </trkpt>
      <trkpt lat="46.57426" lon="6.00217">
        <ele>1036.9</ele>
        <time>2019-08-08T10:50:59Z</time>
      </trkpt>
      <trkpt lat="46.5743" lon="6.00213">
        <ele>1037.8</ele>
        <time>2019-08-08T10:51:03Z</time>
      </trkpt>
      <trkpt lat="46.5744" lon="6.00203">
        <ele>1042.5</ele>
        <time>2019-08-08T10:51:39Z</time>
      </trkpt>
      <trkpt lat="46.57445" lon="6.00203">
        <ele>1042.8</ele>
        <time>2019-08-08T10:51:52Z</time>
      </trkpt>
      <trkpt lat="46.5745" lon="6.00204">
        <ele>1042.7</ele>
        <time>2019-08-08T10:51:55Z</time>
      </trkpt>
      <trkpt lat="46.57461" lon="6.00211">
        <ele>1042.3</ele>
        <time>2019-08-08T10:52:02Z</time>
      </trkpt>
      <trkpt lat="46.57465" lon="6.00214">
        <ele>1042.4</ele>
        <time>2019-08-08T10:52:06Z</time>
      </trkpt>
      <trkpt lat="46.57469" lon="6.00215">
        <ele>1042.5</ele>
        <time>2019-08-08T10:52:09Z</time>
      </trkpt>
      <trkpt lat="46.57488" lon="6.0024">
        <ele>1047.2</ele>
        <time>2019-08-08T10:52:53Z</time>
      </trkpt>
      <trkpt lat="46.57493" lon="6.00242">
        <ele>1047.5</ele>
        <time>2019-08-08T10:52:58Z</time>
      </trkpt>
      <trkpt lat="46.57497" lon="6.00245">
        <ele>1047.8</ele>
        <time>2019-08-08T10:53:01Z</time>
      </trkpt>
      <trkpt lat="46.575" lon="6.0025">
        <ele>1048</ele>
        <time>2019-08-08T10:53:07Z</time>
      </trkpt>
      <trkpt lat="46.57502" lon="6.00259">
        <ele>1047.8</ele>
        <time>2019-08-08T10:53:10Z</time>
      </trkpt>
      <trkpt lat="46.57507" lon="6.00284">
        <ele>1046.5</ele>
        <time>2019-08-08T10:53:23Z</time>
      </trkpt>
      <trkpt lat="46.5751" lon="6.0029">
        <ele>1046</ele>
        <time>2019-08-08T10:53:28Z</time>
      </trkpt>
      <trkpt lat="46.57507" lon="6.00295">
        <ele>1044.8</ele>
        <time>2019-08-08T10:53:34Z</time>
      </trkpt>
      <trkpt lat="46.57497" lon="6.00349">
        <ele>1040.4</ele>
        <time>2019-08-08T10:54:34Z</time>
      </trkpt>
      <trkpt lat="46.575" lon="6.00356">
        <ele>1040.7</ele>
        <time>2019-08-08T10:54:37Z</time>
      </trkpt>
      <trkpt lat="46.57503" lon="6.00361">
        <ele>1041.5</ele>
        <time>2019-08-08T10:54:41Z</time>
      </trkpt>
      <trkpt lat="46.57507" lon="6.00366">
        <ele>1044.2</ele>
        <time>2019-08-08T10:54:53Z</time>
      </trkpt>
      <trkpt lat="46.5751" lon="6.0038">
        <ele>1049.5</ele>
        <time>2019-08-08T10:55:18Z</time>
      </trkpt>
      <trkpt lat="46.57511" lon="6.00387">
        <ele>1049.8</ele>
        <time>2019-08-08T10:55:21Z</time>
      </trkpt>
      <trkpt lat="46.57517" lon="6.00397">
        <ele>1050.4</ele>
        <time>2019-08-08T10:55:28Z</time>
      </trkpt>
      <trkpt lat="46.57522" lon="6.00411">
        <ele>1052.8</ele>
        <time>2019-08-08T10:55:39Z</time>
      </trkpt>
      <trkpt lat="46.57521" lon="6.00428">
        <ele>1055.5</ele>
        <time>2019-08-08T10:56:00Z</time>
      </trkpt>
      <trkpt lat="46.57519" lon="6.00435">
        <ele>1055.6</ele>
        <time>2019-08-08T10:56:02Z</time>
      </trkpt>
      <trkpt lat="46.57515" lon="6.00442">
        <ele>1055.5</ele>
        <time>2019-08-08T10:56:05Z</time>
      </trkpt>
      <trkpt lat="46.5751" lon="6.00454">
        <ele>1054.9</ele>
        <time>2019-08-08T10:56:18Z</time>
      </trkpt>
      <trkpt lat="46.57501" lon="6.00476">
        <ele>1053.8</ele>
        <time>2019-08-08T10:56:48Z</time>
      </trkpt>
      <trkpt lat="46.57496" lon="6.00481">
        <ele>1053.4</ele>
        <time>2019-08-08T10:56:52Z</time>
      </trkpt>
      <trkpt lat="46.57492" lon="6.00487">
        <ele>1053.2</ele>
        <time>2019-08-08T10:56:55Z</time>
      </trkpt>
      <trkpt lat="46.57484" lon="6.00496">
        <ele>1051.8</ele>
        <time>2019-08-08T10:57:08Z</time>
      </trkpt>
      <trkpt lat="46.5748" lon="6.00501">
        <ele>1051.5</ele>
        <time>2019-08-08T10:57:11Z</time>
      </trkpt>
      <trkpt lat="46.57476" lon="6.00506">
        <ele>1051.3</ele>
        <time>2019-08-08T10:57:14Z</time>
      </trkpt>
      <trkpt lat="46.57471" lon="6.00509">
        <ele>1050.5</ele>
        <time>2019-08-08T10:57:20Z</time>
      </trkpt>
      <trkpt lat="46.57462" lon="6.00507">
        <ele>1044.6</ele>
        <time>2019-08-08T10:57:44Z</time>
      </trkpt>
      <trkpt lat="46.57457" lon="6.00508">
        <ele>1044</ele>
        <time>2019-08-08T10:57:46Z</time>
      </trkpt>
      <trkpt lat="46.57452" lon="6.00512">
        <ele>1042.5</ele>
        <time>2019-08-08T10:57:50Z</time>
      </trkpt>
      <trkpt lat="46.57451" lon="6.00519">
        <ele>1041.1</ele>
        <time>2019-08-08T10:57:55Z</time>
      </trkpt>
      <trkpt lat="46.57449" lon="6.00526">
        <ele>1039.7</ele>
        <time>2019-08-08T10:58:01Z</time>
      </trkpt>
      <trkpt lat="46.57448" lon="6.00534">
        <ele>1037.2</ele>
        <time>2019-08-08T10:58:19Z</time>
      </trkpt>
      <trkpt lat="46.57445" lon="6.00547">
        <ele>1037.1</ele>
        <time>2019-08-08T10:58:34Z</time>
      </trkpt>
      <trkpt lat="46.57439" lon="6.00561">
        <ele>1035.2</ele>
        <time>2019-08-08T10:58:49Z</time>
      </trkpt>
      <trkpt lat="46.57433" lon="6.00566">
        <ele>1034.1</ele>
        <time>2019-08-08T10:58:53Z</time>
      </trkpt>
      <trkpt lat="46.57429" lon="6.00569">
        <ele>1032.8</ele>
        <time>2019-08-08T10:58:57Z</time>
      </trkpt>
      <trkpt lat="46.57423" lon="6.00572">
        <ele>1030.9</ele>
        <time>2019-08-08T10:59:03Z</time>
      </trkpt>
      <trkpt lat="46.57418" lon="6.00576">
        <ele>1030.4</ele>
        <time>2019-08-08T10:59:05Z</time>
      </trkpt>
      <trkpt lat="46.57406" lon="6.00583">
        <ele>1029.4</ele>
        <time>2019-08-08T10:59:29Z</time>
      </trkpt>
      <trkpt lat="46.57403" lon="6.00593">
        <ele>1029.9</ele>
        <time>2019-08-08T10:59:48Z</time>
      </trkpt>
      <trkpt lat="46.57401" lon="6.00599">
        <ele>1029.8</ele>
        <time>2019-08-08T10:59:55Z</time>
      </trkpt>
      <trkpt lat="46.57398" lon="6.00606">
        <ele>1029.5</ele>
        <time>2019-08-08T11:00:02Z</time>
      </trkpt>
      <trkpt lat="46.57388" lon="6.00615">
        <ele>1029.5</ele>
        <time>2019-08-08T11:00:19Z</time>
      </trkpt>
      <trkpt lat="46.57383" lon="6.00621">
        <ele>1029.5</ele>
        <time>2019-08-08T11:00:21Z</time>
      </trkpt>
      <trkpt lat="46.57378" lon="6.00629">
        <ele>1029.6</ele>
        <time>2019-08-08T11:00:23Z</time>
      </trkpt>
      <trkpt lat="46.57364" lon="6.00646">
        <ele>1032.5</ele>
        <time>2019-08-08T11:01:07Z</time>
      </trkpt>
      <trkpt lat="46.57352" lon="6.00667">
        <ele>1035.6</ele>
        <time>2019-08-08T11:01:37Z</time>
      </trkpt>
      <trkpt lat="46.57345" lon="6.00689">
        <ele>1040</ele>
        <time>2019-08-08T11:02:08Z</time>
      </trkpt>
      <trkpt lat="46.57346" lon="6.00697">
        <ele>1040.1</ele>
        <time>2019-08-08T11:02:11Z</time>
      </trkpt>
      <trkpt lat="46.57345" lon="6.00705">
        <ele>1040.3</ele>
        <time>2019-08-08T11:02:15Z</time>
      </trkpt>
      <trkpt lat="46.57342" lon="6.00712">
        <ele>1040.2</ele>
        <time>2019-08-08T11:02:17Z</time>
      </trkpt>
      <trkpt lat="46.5734" lon="6.0072">
        <ele>1040.1</ele>
        <time>2019-08-08T11:02:20Z</time>
      </trkpt>
      <trkpt lat="46.5734" lon="6.00727">
        <ele>1039.3</ele>
        <time>2019-08-08T11:02:29Z</time>
      </trkpt>
      <trkpt lat="46.57334" lon="6.0075">
        <ele>1038.7</ele>
        <time>2019-08-08T11:02:44Z</time>
      </trkpt>
      <trkpt lat="46.57321" lon="6.00765">
        <ele>1037.7</ele>
        <time>2019-08-08T11:03:18Z</time>
      </trkpt>
      <trkpt lat="46.57317" lon="6.00771">
        <ele>1037.3</ele>
        <time>2019-08-08T11:03:26Z</time>
      </trkpt>
      <trkpt lat="46.57314" lon="6.00778">
        <ele>1037.4</ele>
        <time>2019-08-08T11:03:28Z</time>
      </trkpt>
      <trkpt lat="46.57313" lon="6.00786">
        <ele>1037.7</ele>
        <time>2019-08-08T11:03:32Z</time>
      </trkpt>
      <trkpt lat="46.57309" lon="6.00793">
        <ele>1038.5</ele>
        <time>2019-08-08T11:03:36Z</time>
      </trkpt>
      <trkpt lat="46.57303" lon="6.00812">
        <ele>1041.4</ele>
        <time>2019-08-08T11:04:04Z</time>
      </trkpt>
      <trkpt lat="46.573" lon="6.00817">
        <ele>1041.9</ele>
        <time>2019-08-08T11:04:09Z</time>
      </trkpt>
      <trkpt lat="46.57298" lon="6.00823">
        <ele>1041.9</ele>
        <time>2019-08-08T11:04:16Z</time>
      </trkpt>
      <trkpt lat="46.57297" lon="6.00864">
        <ele>1039.6</ele>
        <time>2019-08-08T11:05:06Z</time>
      </trkpt>
      <trkpt lat="46.573" lon="6.00882">
        <ele>1040.2</ele>
        <time>2019-08-08T11:05:18Z</time>
      </trkpt>
      <trkpt lat="46.57303" lon="6.00899">
        <ele>1041.3</ele>
        <time>2019-08-08T11:05:35Z</time>
      </trkpt>
      <trkpt lat="46.57303" lon="6.00914">
        <ele>1041.3</ele>
        <time>2019-08-08T11:05:47Z</time>
      </trkpt>
      <trkpt lat="46.57303" lon="6.00923">
        <ele>1041.1</ele>
        <time>2019-08-08T11:05:51Z</time>
      </trkpt>
      <trkpt lat="46.57303" lon="6.0093">
        <ele>1040.8</ele>
        <time>2019-08-08T11:05:55Z</time>
      </trkpt>
      <trkpt lat="46.57302" lon="6.00936">
        <ele>1040.2</ele>
        <time>2019-08-08T11:06:04Z</time>
      </trkpt>
      <trkpt lat="46.57302" lon="6.00949">
        <ele>1039.6</ele>
        <time>2019-08-08T11:06:25Z</time>
      </trkpt>
      <trkpt lat="46.57306" lon="6.00959">
        <ele>1039.7</ele>
        <time>2019-08-08T11:06:38Z</time>
      </trkpt>
      <trkpt lat="46.57302" lon="6.00977">
        <ele>1041.2</ele>
        <time>2019-08-08T11:06:59Z</time>
      </trkpt>
      <trkpt lat="46.57302" lon="6.00984">
        <ele>1042.2</ele>
        <time>2019-08-08T11:07:05Z</time>
      </trkpt>
      <trkpt lat="46.57292" lon="6.01018">
        <ele>1043.2</ele>
        <time>2019-08-08T11:07:16Z</time>
      </trkpt>
      <trkpt lat="46.57289" lon="6.01025">
        <ele>1043</ele>
        <time>2019-08-08T11:07:18Z</time>
      </trkpt>
      <trkpt lat="46.57277" lon="6.01035">
        <ele>1041</ele>
        <time>2019-08-08T11:07:37Z</time>
      </trkpt>
      <trkpt lat="46.57276" lon="6.01042">
        <ele>1040.5</ele>
        <time>2019-08-08T11:07:41Z</time>
      </trkpt>
      <trkpt lat="46.57272" lon="6.01048">
        <ele>1040.1</ele>
        <time>2019-08-08T11:07:44Z</time>
      </trkpt>
      <trkpt lat="46.57265" lon="6.01059">
        <ele>1040.1</ele>
        <time>2019-08-08T11:08:02Z</time>
      </trkpt>
      <trkpt lat="46.57262" lon="6.01065">
        <ele>1040.2</ele>
        <time>2019-08-08T11:08:08Z</time>
      </trkpt>
      <trkpt lat="46.57258" lon="6.0107">
        <ele>1039.6</ele>
        <time>2019-08-08T11:08:22Z</time>
      </trkpt>
      <trkpt lat="46.57255" lon="6.01079">
        <ele>1038.3</ele>
        <time>2019-08-08T11:08:34Z</time>
      </trkpt>
      <trkpt lat="46.57252" lon="6.01084">
        <ele>1038.1</ele>
        <time>2019-08-08T11:08:37Z</time>
      </trkpt>
      <trkpt lat="46.57233" lon="6.01106">
        <ele>1039.4</ele>
        <time>2019-08-08T11:09:06Z</time>
      </trkpt>
      <trkpt lat="46.57216" lon="6.01128">
        <ele>1035</ele>
        <time>2019-08-08T11:09:39Z</time>
      </trkpt>
      <trkpt lat="46.57212" lon="6.01131">
        <ele>1034.7</ele>
        <time>2019-08-08T11:09:41Z</time>
      </trkpt>
      <trkpt lat="46.57209" lon="6.01138">
        <ele>1034.3</ele>
        <time>2019-08-08T11:09:45Z</time>
      </trkpt>
      <trkpt lat="46.57206" lon="6.01143">
        <ele>1034</ele>
        <time>2019-08-08T11:09:51Z</time>
      </trkpt>
      <trkpt lat="46.57203" lon="6.01147">
        <ele>1033.6</ele>
        <time>2019-08-08T11:09:57Z</time>
      </trkpt>
      <trkpt lat="46.57192" lon="6.01157">
        <ele>1031.3</ele>
        <time>2019-08-08T11:10:17Z</time>
      </trkpt>
      <trkpt lat="46.57189" lon="6.01164">
        <ele>1031.4</ele>
        <time>2019-08-08T11:10:20Z</time>
      </trkpt>
      <trkpt lat="46.57186" lon="6.0117">
        <ele>1031.9</ele>
        <time>2019-08-08T11:10:23Z</time>
      </trkpt>
      <trkpt lat="46.57183" lon="6.01179">
        <ele>1032.5</ele>
        <time>2019-08-08T11:10:28Z</time>
      </trkpt>
      <trkpt lat="46.57178" lon="6.01184">
        <ele>1032.8</ele>
        <time>2019-08-08T11:10:31Z</time>
      </trkpt>
      <trkpt lat="46.57156" lon="6.01209">
        <ele>1032.8</ele>
        <time>2019-08-08T11:11:01Z</time>
      </trkpt>
      <trkpt lat="46.57152" lon="6.01212">
        <ele>1033.5</ele>
        <time>2019-08-08T11:11:08Z</time>
      </trkpt>
      <trkpt lat="46.57151" lon="6.01219">
        <ele>1034.4</ele>
        <time>2019-08-08T11:11:16Z</time>
      </trkpt>
      <trkpt lat="46.5715" lon="6.01226">
        <ele>1034.6</ele>
        <time>2019-08-08T11:11:20Z</time>
      </trkpt>
      <trkpt lat="46.57149" lon="6.01233">
        <ele>1034.9</ele>
        <time>2019-08-08T11:11:26Z</time>
      </trkpt>
      <trkpt lat="46.57146" lon="6.01239">
        <ele>1035</ele>
        <time>2019-08-08T11:11:29Z</time>
      </trkpt>
      <trkpt lat="46.57142" lon="6.01243">
        <ele>1035.2</ele>
        <time>2019-08-08T11:11:35Z</time>
      </trkpt>
      <trkpt lat="46.57138" lon="6.01247">
        <ele>1035.5</ele>
        <time>2019-08-08T11:11:40Z</time>
      </trkpt>
      <trkpt lat="46.57134" lon="6.01251">
        <ele>1036.1</ele>
        <time>2019-08-08T11:11:48Z</time>
      </trkpt>
      <trkpt lat="46.5713" lon="6.01258">
        <ele>1036.7</ele>
        <time>2019-08-08T11:11:54Z</time>
      </trkpt>
      <trkpt lat="46.57126" lon="6.01265">
        <ele>1037.1</ele>
        <time>2019-08-08T11:12:00Z</time>
      </trkpt>
      <trkpt lat="46.57122" lon="6.01269">
        <ele>1037.8</ele>
        <time>2019-08-08T11:12:07Z</time>
      </trkpt>
      <trkpt lat="46.57118" lon="6.01276">
        <ele>1038.9</ele>
        <time>2019-08-08T11:12:16Z</time>
      </trkpt>
      <trkpt lat="46.57112" lon="6.01286">
        <ele>1039.3</ele>
        <time>2019-08-08T11:12:23Z</time>
      </trkpt>
      <trkpt lat="46.57109" lon="6.01294">
        <ele>1039.2</ele>
        <time>2019-08-08T11:12:25Z</time>
      </trkpt>
      <trkpt lat="46.57106" lon="6.01301">
        <ele>1039.2</ele>
        <time>2019-08-08T11:12:29Z</time>
      </trkpt>
      <trkpt lat="46.57102" lon="6.01305">
        <ele>1039.2</ele>
        <time>2019-08-08T11:12:33Z</time>
      </trkpt>
      <trkpt lat="46.57097" lon="6.0131">
        <ele>1039.2</ele>
        <time>2019-08-08T11:12:36Z</time>
      </trkpt>
      <trkpt lat="46.57087" lon="6.01316">
        <ele>1038.6</ele>
        <time>2019-08-08T11:12:57Z</time>
      </trkpt>
      <trkpt lat="46.57072" lon="6.01324">
        <ele>1039.6</ele>
        <time>2019-08-08T11:13:14Z</time>
      </trkpt>
      <trkpt lat="46.57063" lon="6.01332">
        <ele>1041</ele>
        <time>2019-08-08T11:13:30Z</time>
      </trkpt>
      <trkpt lat="46.57058" lon="6.01335">
        <ele>1041.1</ele>
        <time>2019-08-08T11:13:35Z</time>
      </trkpt>
      <trkpt lat="46.57046" lon="6.01355">
        <ele>1041.8</ele>
        <time>2019-08-08T11:13:53Z</time>
      </trkpt>
      <trkpt lat="46.57032" lon="6.01368">
        <ele>1044.5</ele>
        <time>2019-08-08T11:14:16Z</time>
      </trkpt>
      <trkpt lat="46.57029" lon="6.01374">
        <ele>1044.7</ele>
        <time>2019-08-08T11:14:23Z</time>
      </trkpt>
      <trkpt lat="46.57027" lon="6.01381">
        <ele>1044.5</ele>
        <time>2019-08-08T11:14:26Z</time>
      </trkpt>
      <trkpt lat="46.57021" lon="6.0139">
        <ele>1043.2</ele>
        <time>2019-08-08T11:14:32Z</time>
      </trkpt>
      <trkpt lat="46.57018" lon="6.01395">
        <ele>1042.8</ele>
        <time>2019-08-08T11:14:37Z</time>
      </trkpt>
      <trkpt lat="46.57013" lon="6.01397">
        <ele>1042.3</ele>
        <time>2019-08-08T11:14:45Z</time>
      </trkpt>
      <trkpt lat="46.57008" lon="6.01408">
        <ele>1040.1</ele>
        <time>2019-08-08T11:15:19Z</time>
      </trkpt>
      <trkpt lat="46.56995" lon="6.01423">
        <ele>1034</ele>
        <time>2019-08-08T11:16:14Z</time>
      </trkpt>
      <trkpt lat="46.56991" lon="6.01427">
        <ele>1033.4</ele>
        <time>2019-08-08T11:16:17Z</time>
      </trkpt>
      <trkpt lat="46.56987" lon="6.01428">
        <ele>1031</ele>
        <time>2019-08-08T11:16:26Z</time>
      </trkpt>
      <trkpt lat="46.56982" lon="6.01431">
        <ele>1029.7</ele>
        <time>2019-08-08T11:16:30Z</time>
      </trkpt>
      <trkpt lat="46.56977" lon="6.01434">
        <ele>1028.9</ele>
        <time>2019-08-08T11:16:33Z</time>
      </trkpt>
      <trkpt lat="46.56959" lon="6.01484">
        <ele>1023.4</ele>
        <time>2019-08-08T11:19:36Z</time>
      </trkpt>
      <trkpt lat="46.56954" lon="6.01487">
        <ele>1023.4</ele>
        <time>2019-08-08T11:19:40Z</time>
      </trkpt>
      <trkpt lat="46.5695" lon="6.01491">
        <ele>1023.3</ele>
        <time>2019-08-08T11:19:48Z</time>
      </trkpt>
      <trkpt lat="46.56947" lon="6.015">
        <ele>1023.2</ele>
        <time>2019-08-08T11:19:52Z</time>
      </trkpt>
      <trkpt lat="46.56942" lon="6.01505">
        <ele>1023.1</ele>
        <time>2019-08-08T11:19:58Z</time>
      </trkpt>
      <trkpt lat="46.56938" lon="6.01509">
        <ele>1023.1</ele>
        <time>2019-08-08T11:20:02Z</time>
      </trkpt>
      <trkpt lat="46.56932" lon="6.01529">
        <ele>1018.8</ele>
        <time>2019-08-08T11:20:38Z</time>
      </trkpt>
      <trkpt lat="46.56925" lon="6.01546">
        <ele>1015.3</ele>
        <time>2019-08-08T11:20:51Z</time>
      </trkpt>
      <trkpt lat="46.5692" lon="6.01566">
        <ele>1011.6</ele>
        <time>2019-08-08T11:21:14Z</time>
      </trkpt>
      <trkpt lat="46.56917" lon="6.01572">
        <ele>1010.6</ele>
        <time>2019-08-08T11:21:19Z</time>
      </trkpt>
      <trkpt lat="46.56914" lon="6.01577">
        <ele>1009.4</ele>
        <time>2019-08-08T11:21:24Z</time>
      </trkpt>
      <trkpt lat="46.56912" lon="6.01584">
        <ele>1009</ele>
        <time>2019-08-08T11:21:26Z</time>
      </trkpt>
      <trkpt lat="46.5691" lon="6.0159">
        <ele>1008.5</ele>
        <time>2019-08-08T11:21:28Z</time>
      </trkpt>
      <trkpt lat="46.56908" lon="6.01596">
        <ele>1007.6</ele>
        <time>2019-08-08T11:21:34Z</time>
      </trkpt>
      <trkpt lat="46.56905" lon="6.01603">
        <ele>1006.8</ele>
        <time>2019-08-08T11:21:39Z</time>
      </trkpt>
      <trkpt lat="46.56906" lon="6.0161">
        <ele>1005.8</ele>
        <time>2019-08-08T11:21:46Z</time>
      </trkpt>
      <trkpt lat="46.56906" lon="6.01617">
        <ele>1005.3</ele>
        <time>2019-08-08T11:21:51Z</time>
      </trkpt>
      <trkpt lat="46.56903" lon="6.01623">
        <ele>1004.8</ele>
        <time>2019-08-08T11:22:00Z</time>
      </trkpt>
      <trkpt lat="46.56901" lon="6.01631">
        <ele>1004.4</ele>
        <time>2019-08-08T11:22:08Z</time>
      </trkpt>
      <trkpt lat="46.56898" lon="6.01637">
        <ele>1004.2</ele>
        <time>2019-08-08T11:22:13Z</time>
      </trkpt>
      <trkpt lat="46.56894" lon="6.01644">
        <ele>1004</ele>
        <time>2019-08-08T11:22:21Z</time>
      </trkpt>
      <trkpt lat="46.56893" lon="6.0165">
        <ele>1003.8</ele>
        <time>2019-08-08T11:22:24Z</time>
      </trkpt>
      <trkpt lat="46.56888" lon="6.01663">
        <ele>1001.5</ele>
        <time>2019-08-08T11:22:37Z</time>
      </trkpt>
      <trkpt lat="46.56878" lon="6.01682">
        <ele>998.4</ele>
        <time>2019-08-08T11:22:49Z</time>
      </trkpt>
      <trkpt lat="46.56874" lon="6.01686">
        <ele>997.8</ele>
        <time>2019-08-08T11:22:53Z</time>
      </trkpt>
      <trkpt lat="46.56871" lon="6.01691">
        <ele>997.1</ele>
        <time>2019-08-08T11:22:56Z</time>
      </trkpt>
      <trkpt lat="46.56866" lon="6.01698">
        <ele>995.4</ele>
        <time>2019-08-08T11:23:05Z</time>
      </trkpt>
      <trkpt lat="46.56863" lon="6.01704">
        <ele>995.1</ele>
        <time>2019-08-08T11:23:08Z</time>
      </trkpt>
      <trkpt lat="46.56856" lon="6.01713">
        <ele>994</ele>
        <time>2019-08-08T11:23:20Z</time>
      </trkpt>
      <trkpt lat="46.56853" lon="6.01724">
        <ele>991.2</ele>
        <time>2019-08-08T11:23:32Z</time>
      </trkpt>
      <trkpt lat="46.56856" lon="6.01737">
        <ele>988.2</ele>
        <time>2019-08-08T11:23:44Z</time>
      </trkpt>
      <trkpt lat="46.56858" lon="6.01744">
        <ele>987.9</ele>
        <time>2019-08-08T11:23:49Z</time>
      </trkpt>
      <trkpt lat="46.56859" lon="6.01757">
        <ele>987.7</ele>
        <time>2019-08-08T11:23:59Z</time>
      </trkpt>
      <trkpt lat="46.56859" lon="6.01765">
        <ele>987.9</ele>
        <time>2019-08-08T11:24:02Z</time>
      </trkpt>
      <trkpt lat="46.56856" lon="6.01774">
        <ele>991</ele>
        <time>2019-08-08T11:24:23Z</time>
      </trkpt>
      <trkpt lat="46.56844" lon="6.01819">
        <ele>992.1</ele>
        <time>2019-08-08T11:24:52Z</time>
      </trkpt>
      <trkpt lat="46.56841" lon="6.01824">
        <ele>991.9</ele>
        <time>2019-08-08T11:24:55Z</time>
      </trkpt>
      <trkpt lat="46.56838" lon="6.0183">
        <ele>991.6</ele>
        <time>2019-08-08T11:25:01Z</time>
      </trkpt>
      <trkpt lat="46.56839" lon="6.01846">
        <ele>990.1</ele>
        <time>2019-08-08T11:25:18Z</time>
      </trkpt>
      <trkpt lat="46.5684" lon="6.01853">
        <ele>990.1</ele>
        <time>2019-08-08T11:25:21Z</time>
      </trkpt>
      <trkpt lat="46.56843" lon="6.0186">
        <ele>990.5</ele>
        <time>2019-08-08T11:25:28Z</time>
      </trkpt>
      <trkpt lat="46.56843" lon="6.01869">
        <ele>990.8</ele>
        <time>2019-08-08T11:25:30Z</time>
      </trkpt>
      <trkpt lat="46.56845" lon="6.01875">
        <ele>991.5</ele>
        <time>2019-08-08T11:25:34Z</time>
      </trkpt>
      <trkpt lat="46.56832" lon="6.01912">
        <ele>996.5</ele>
        <time>2019-08-08T11:26:14Z</time>
      </trkpt>
      <trkpt lat="46.56814" lon="6.01973">
        <ele>1001.4</ele>
        <time>2019-08-08T11:26:57Z</time>
      </trkpt>
      <trkpt lat="46.56812" lon="6.01979">
        <ele>1001.3</ele>
        <time>2019-08-08T11:27:02Z</time>
      </trkpt>
      <trkpt lat="46.56808" lon="6.01986">
        <ele>1001.2</ele>
        <time>2019-08-08T11:27:06Z</time>
      </trkpt>
      <trkpt lat="46.56807" lon="6.01993">
        <ele>1001.1</ele>
        <time>2019-08-08T11:27:08Z</time>
      </trkpt>
      <trkpt lat="46.56802" lon="6.02006">
        <ele>999.7</ele>
        <time>2019-08-08T11:27:24Z</time>
      </trkpt>
      <trkpt lat="46.56768" lon="6.02043">
        <ele>995.1</ele>
        <time>2019-08-08T11:28:20Z</time>
      </trkpt>
      <trkpt lat="46.56759" lon="6.02073">
        <ele>992.5</ele>
        <time>2019-08-08T11:29:07Z</time>
      </trkpt>
      <trkpt lat="46.56757" lon="6.02078">
        <ele>992.1</ele>
        <time>2019-08-08T11:29:14Z</time>
      </trkpt>
      <trkpt lat="46.56752" lon="6.02094">
        <ele>990.1</ele>
        <time>2019-08-08T11:29:31Z</time>
      </trkpt>
      <trkpt lat="46.56748" lon="6.021">
        <ele>989.6</ele>
        <time>2019-08-08T11:29:37Z</time>
      </trkpt>
      <trkpt lat="46.56746" lon="6.02106">
        <ele>989.3</ele>
        <time>2019-08-08T11:29:40Z</time>
      </trkpt>
      <trkpt lat="46.56745" lon="6.02114">
        <ele>988.8</ele>
        <time>2019-08-08T11:29:45Z</time>
      </trkpt>
      <trkpt lat="46.56746" lon="6.02121">
        <ele>988.2</ele>
        <time>2019-08-08T11:29:51Z</time>
      </trkpt>
      <trkpt lat="46.56746" lon="6.02128">
        <ele>987.7</ele>
        <time>2019-08-08T11:29:56Z</time>
      </trkpt>
      <trkpt lat="46.56746" lon="6.02136">
        <ele>987.4</ele>
        <time>2019-08-08T11:30:01Z</time>
      </trkpt>
      <trkpt lat="46.56745" lon="6.02142">
        <ele>987.1</ele>
        <time>2019-08-08T11:30:07Z</time>
      </trkpt>
      <trkpt lat="46.56743" lon="6.02149">
        <ele>986.4</ele>
        <time>2019-08-08T11:30:14Z</time>
      </trkpt>
      <trkpt lat="46.5674" lon="6.02156">
        <ele>986.1</ele>
        <time>2019-08-08T11:30:19Z</time>
      </trkpt>
      <trkpt lat="46.5674" lon="6.02163">
        <ele>985.7</ele>
        <time>2019-08-08T11:30:24Z</time>
      </trkpt>
      <trkpt lat="46.56744" lon="6.02167">
        <ele>983.2</ele>
        <time>2019-08-08T11:30:36Z</time>
      </trkpt>
      <trkpt lat="46.56747" lon="6.02172">
        <ele>981.7</ele>
        <time>2019-08-08T11:30:42Z</time>
      </trkpt>
      <trkpt lat="46.56751" lon="6.02175">
        <ele>980.1</ele>
        <time>2019-08-08T11:30:48Z</time>
      </trkpt>
      <trkpt lat="46.56756" lon="6.02178">
        <ele>977.9</ele>
        <time>2019-08-08T11:30:55Z</time>
      </trkpt>
      <trkpt lat="46.5676" lon="6.02181">
        <ele>975.2</ele>
        <time>2019-08-08T11:31:01Z</time>
      </trkpt>
      <trkpt lat="46.56765" lon="6.02183">
        <ele>972.1</ele>
        <time>2019-08-08T11:31:08Z</time>
      </trkpt>
      <trkpt lat="46.56769" lon="6.02186">
        <ele>970.6</ele>
        <time>2019-08-08T11:31:13Z</time>
      </trkpt>
      <trkpt lat="46.56774" lon="6.02187">
        <ele>970</ele>
        <time>2019-08-08T11:31:16Z</time>
      </trkpt>
      <trkpt lat="46.56779" lon="6.02189">
        <ele>969.8</ele>
        <time>2019-08-08T11:31:20Z</time>
      </trkpt>
      <trkpt lat="46.56784" lon="6.02191">
        <ele>970.1</ele>
        <time>2019-08-08T11:31:23Z</time>
      </trkpt>
      <trkpt lat="46.56788" lon="6.02193">
        <ele>970.6</ele>
        <time>2019-08-08T11:31:26Z</time>
      </trkpt>
      <trkpt lat="46.56793" lon="6.02196">
        <ele>970.9</ele>
        <time>2019-08-08T11:31:28Z</time>
      </trkpt>
      <trkpt lat="46.56798" lon="6.02198">
        <ele>971.3</ele>
        <time>2019-08-08T11:31:30Z</time>
      </trkpt>
      <trkpt lat="46.56802" lon="6.022">
        <ele>971.8</ele>
        <time>2019-08-08T11:31:33Z</time>
      </trkpt>
      <trkpt lat="46.56807" lon="6.02203">
        <ele>972.4</ele>
        <time>2019-08-08T11:31:38Z</time>
      </trkpt>
      <trkpt lat="46.56811" lon="6.02207">
        <ele>972.3</ele>
        <time>2019-08-08T11:31:45Z</time>
      </trkpt>
      <trkpt lat="46.56815" lon="6.02212">
        <ele>971.9</ele>
        <time>2019-08-08T11:31:50Z</time>
      </trkpt>
      <trkpt lat="46.56819" lon="6.02216">
        <ele>971.8</ele>
        <time>2019-08-08T11:31:54Z</time>
      </trkpt>
      <trkpt lat="46.56823" lon="6.02219">
        <ele>971.5</ele>
        <time>2019-08-08T11:32:00Z</time>
      </trkpt>
      <trkpt lat="46.56828" lon="6.02221">
        <ele>971.4</ele>
        <time>2019-08-08T11:32:05Z</time>
      </trkpt>
      <trkpt lat="46.56832" lon="6.02223">
        <ele>971.7</ele>
        <time>2019-08-08T11:32:09Z</time>
      </trkpt>
      <trkpt lat="46.56837" lon="6.02225">
        <ele>972.2</ele>
        <time>2019-08-08T11:32:14Z</time>
      </trkpt>
      <trkpt lat="46.56842" lon="6.02229">
        <ele>972.9</ele>
        <time>2019-08-08T11:32:19Z</time>
      </trkpt>
      <trkpt lat="46.56846" lon="6.02232">
        <ele>973.6</ele>
        <time>2019-08-08T11:32:23Z</time>
      </trkpt>
      <trkpt lat="46.56842" lon="6.02229">
        <ele>974.6</ele>
        <time>2019-08-08T11:32:40Z</time>
      </trkpt>
      <trkpt lat="46.56847" lon="6.0223">
        <ele>974.1</ele>
        <time>2019-08-08T11:32:53Z</time>
      </trkpt>
      <trkpt lat="46.5685" lon="6.02235">
        <ele>973.4</ele>
        <time>2019-08-08T11:32:57Z</time>
      </trkpt>
      <trkpt lat="46.56858" lon="6.0224">
        <ele>971.5</ele>
        <time>2019-08-08T11:33:22Z</time>
      </trkpt>
      <trkpt lat="46.56864" lon="6.02242">
        <ele>971.7</ele>
        <time>2019-08-08T11:33:27Z</time>
      </trkpt>
      <trkpt lat="46.56869" lon="6.02247">
        <ele>972</ele>
        <time>2019-08-08T11:33:32Z</time>
      </trkpt>
      <trkpt lat="46.56874" lon="6.02253">
        <ele>972.2</ele>
        <time>2019-08-08T11:33:35Z</time>
      </trkpt>
      <trkpt lat="46.56877" lon="6.02259">
        <ele>972.4</ele>
        <time>2019-08-08T11:33:40Z</time>
      </trkpt>
      <trkpt lat="46.5688" lon="6.02265">
        <ele>972.5</ele>
        <time>2019-08-08T11:33:45Z</time>
      </trkpt>
      <trkpt lat="46.56883" lon="6.02271">
        <ele>972.5</ele>
        <time>2019-08-08T11:33:50Z</time>
      </trkpt>
      <trkpt lat="46.56887" lon="6.02276">
        <ele>972.6</ele>
        <time>2019-08-08T11:33:54Z</time>
      </trkpt>
      <trkpt lat="46.56889" lon="6.02282">
        <ele>972.9</ele>
        <time>2019-08-08T11:34:00Z</time>
      </trkpt>
      <trkpt lat="46.56891" lon="6.02288">
        <ele>973.2</ele>
        <time>2019-08-08T11:34:05Z</time>
      </trkpt>
      <trkpt lat="46.56894" lon="6.02293">
        <ele>973.5</ele>
        <time>2019-08-08T11:34:10Z</time>
      </trkpt>
      <trkpt lat="46.56898" lon="6.02298">
        <ele>973.9</ele>
        <time>2019-08-08T11:34:14Z</time>
      </trkpt>
      <trkpt lat="46.56901" lon="6.02304">
        <ele>974.3</ele>
        <time>2019-08-08T11:34:20Z</time>
      </trkpt>
      <trkpt lat="46.56903" lon="6.02309">
        <ele>974.1</ele>
        <time>2019-08-08T11:34:25Z</time>
      </trkpt>
      <trkpt lat="46.56907" lon="6.02314">
        <ele>973.7</ele>
        <time>2019-08-08T11:34:29Z</time>
      </trkpt>
      <trkpt lat="46.5691" lon="6.02318">
        <ele>973</ele>
        <time>2019-08-08T11:34:34Z</time>
      </trkpt>
      <trkpt lat="46.56917" lon="6.02322">
        <ele>972.7</ele>
        <time>2019-08-08T11:35:08Z</time>
      </trkpt>
      <trkpt lat="46.56921" lon="6.02327">
        <ele>972.7</ele>
        <time>2019-08-08T11:35:11Z</time>
      </trkpt>
      <trkpt lat="46.56923" lon="6.02333">
        <ele>972.7</ele>
        <time>2019-08-08T11:35:14Z</time>
      </trkpt>
      <trkpt lat="46.56927" lon="6.02341">
        <ele>972.9</ele>
        <time>2019-08-08T11:35:17Z</time>
      </trkpt>
      <trkpt lat="46.56929" lon="6.02346">
        <ele>973.2</ele>
        <time>2019-08-08T11:35:21Z</time>
      </trkpt>
      <trkpt lat="46.56934" lon="6.02349">
        <ele>973.5</ele>
        <time>2019-08-08T11:35:29Z</time>
      </trkpt>
      <trkpt lat="46.56939" lon="6.0235">
        <ele>973.6</ele>
        <time>2019-08-08T11:35:34Z</time>
      </trkpt>
      <trkpt lat="46.56937" lon="6.02358">
        <ele>976.8</ele>
        <time>2019-08-08T11:35:59Z</time>
      </trkpt>
      <trkpt lat="46.56937" lon="6.0235">
        <ele>980.3</ele>
        <time>2019-08-08T11:36:25Z</time>
      </trkpt>
      <trkpt lat="46.56939" lon="6.02343">
        <ele>980.8</ele>
        <time>2019-08-08T11:36:31Z</time>
      </trkpt>
      <trkpt lat="46.5694" lon="6.02337">
        <ele>981.2</ele>
        <time>2019-08-08T11:36:36Z</time>
      </trkpt>
      <trkpt lat="46.56942" lon="6.0233">
        <ele>981.8</ele>
        <time>2019-08-08T11:36:41Z</time>
      </trkpt>
      <trkpt lat="46.56944" lon="6.02324">
        <ele>982.7</ele>
        <time>2019-08-08T11:36:47Z</time>
      </trkpt>
      <trkpt lat="46.56945" lon="6.02317">
        <ele>983.5</ele>
        <time>2019-08-08T11:36:54Z</time>
      </trkpt>
      <trkpt lat="46.56945" lon="6.0231">
        <ele>984.1</ele>
        <time>2019-08-08T11:37:00Z</time>
      </trkpt>
      <trkpt lat="46.56944" lon="6.02303">
        <ele>984.3</ele>
        <time>2019-08-08T11:37:04Z</time>
      </trkpt>
      <trkpt lat="46.56943" lon="6.02295">
        <ele>984.3</ele>
        <time>2019-08-08T11:37:09Z</time>
      </trkpt>
      <trkpt lat="46.56943" lon="6.02288">
        <ele>984.3</ele>
        <time>2019-08-08T11:37:14Z</time>
      </trkpt>
      <trkpt lat="46.56943" lon="6.0228">
        <ele>984.1</ele>
        <time>2019-08-08T11:37:19Z</time>
      </trkpt>
      <trkpt lat="46.56945" lon="6.02273">
        <ele>984.1</ele>
        <time>2019-08-08T11:37:23Z</time>
      </trkpt>
      <trkpt lat="46.56945" lon="6.02265">
        <ele>984.4</ele>
        <time>2019-08-08T11:37:27Z</time>
      </trkpt>
      <trkpt lat="46.56944" lon="6.02258">
        <ele>984.6</ele>
        <time>2019-08-08T11:37:31Z</time>
      </trkpt>
      <trkpt lat="46.56944" lon="6.02252">
        <ele>985</ele>
        <time>2019-08-08T11:37:36Z</time>
      </trkpt>
      <trkpt lat="46.56946" lon="6.02246">
        <ele>985.5</ele>
        <time>2019-08-08T11:37:43Z</time>
      </trkpt>
      <trkpt lat="46.56948" lon="6.0224">
        <ele>985.8</ele>
        <time>2019-08-08T11:37:48Z</time>
      </trkpt>
      <trkpt lat="46.56951" lon="6.02235">
        <ele>986</ele>
        <time>2019-08-08T11:37:53Z</time>
      </trkpt>
      <trkpt lat="46.56954" lon="6.02229">
        <ele>986.3</ele>
        <time>2019-08-08T11:38:00Z</time>
      </trkpt>
      <trkpt lat="46.56956" lon="6.02224">
        <ele>986.6</ele>
        <time>2019-08-08T11:38:06Z</time>
      </trkpt>
      <trkpt lat="46.56959" lon="6.02217">
        <ele>986.3</ele>
        <time>2019-08-08T11:38:11Z</time>
      </trkpt>
      <trkpt lat="46.56961" lon="6.0221">
        <ele>986.2</ele>
        <time>2019-08-08T11:38:15Z</time>
      </trkpt>
      <trkpt lat="46.56962" lon="6.02203">
        <ele>986.1</ele>
        <time>2019-08-08T11:38:19Z</time>
      </trkpt>
      <trkpt lat="46.56962" lon="6.02196">
        <ele>985.9</ele>
        <time>2019-08-08T11:38:24Z</time>
      </trkpt>
      <trkpt lat="46.56962" lon="6.02188">
        <ele>986.2</ele>
        <time>2019-08-08T11:38:30Z</time>
      </trkpt>
      <trkpt lat="46.56963" lon="6.02181">
        <ele>986.9</ele>
        <time>2019-08-08T11:38:35Z</time>
      </trkpt>
      <trkpt lat="46.56963" lon="6.02174">
        <ele>987.6</ele>
        <time>2019-08-08T11:38:39Z</time>
      </trkpt>
      <trkpt lat="46.56965" lon="6.02166">
        <ele>988.1</ele>
        <time>2019-08-08T11:38:43Z</time>
      </trkpt>
      <trkpt lat="46.56969" lon="6.02161">
        <ele>988.6</ele>
        <time>2019-08-08T11:38:48Z</time>
      </trkpt>
      <trkpt lat="46.56973" lon="6.02156">
        <ele>988.7</ele>
        <time>2019-08-08T11:38:51Z</time>
      </trkpt>
      <trkpt lat="46.56977" lon="6.02151">
        <ele>988.9</ele>
        <time>2019-08-08T11:38:56Z</time>
      </trkpt>
      <trkpt lat="46.56981" lon="6.02146">
        <ele>989.1</ele>
        <time>2019-08-08T11:39:01Z</time>
      </trkpt>
      <trkpt lat="46.56985" lon="6.02142">
        <ele>989.4</ele>
        <time>2019-08-08T11:39:04Z</time>
      </trkpt>
      <trkpt lat="46.56988" lon="6.02137">
        <ele>989.8</ele>
        <time>2019-08-08T11:39:08Z</time>
      </trkpt>
      <trkpt lat="46.56988" lon="6.0213">
        <ele>990.7</ele>
        <time>2019-08-08T11:39:17Z</time>
      </trkpt>
      <trkpt lat="46.56991" lon="6.02123">
        <ele>991.5</ele>
        <time>2019-08-08T11:39:26Z</time>
      </trkpt>
      <trkpt lat="46.56994" lon="6.02117">
        <ele>991.8</ele>
        <time>2019-08-08T11:39:31Z</time>
      </trkpt>
      <trkpt lat="46.56996" lon="6.0211">
        <ele>991.9</ele>
        <time>2019-08-08T11:39:35Z</time>
      </trkpt>
      <trkpt lat="46.56999" lon="6.02104">
        <ele>991.9</ele>
        <time>2019-08-08T11:39:39Z</time>
      </trkpt>
      <trkpt lat="46.57002" lon="6.02099">
        <ele>991.8</ele>
        <time>2019-08-08T11:39:43Z</time>
      </trkpt>
      <trkpt lat="46.57006" lon="6.02094">
        <ele>991.8</ele>
        <time>2019-08-08T11:39:48Z</time>
      </trkpt>
      <trkpt lat="46.57009" lon="6.02088">
        <ele>991.9</ele>
        <time>2019-08-08T11:39:53Z</time>
      </trkpt>
      <trkpt lat="46.57017" lon="6.02066">
        <ele>993.3</ele>
        <time>2019-08-08T11:40:12Z</time>
      </trkpt>
      <trkpt lat="46.57025" lon="6.02053">
        <ele>993.2</ele>
        <time>2019-08-08T11:40:23Z</time>
      </trkpt>
      <trkpt lat="46.57033" lon="6.02036">
        <ele>994</ele>
        <time>2019-08-08T11:40:35Z</time>
      </trkpt>
      <trkpt lat="46.57036" lon="6.02029">
        <ele>995.1</ele>
        <time>2019-08-08T11:40:41Z</time>
      </trkpt>
      <trkpt lat="46.57039" lon="6.02023">
        <ele>996.1</ele>
        <time>2019-08-08T11:40:46Z</time>
      </trkpt>
      <trkpt lat="46.57047" lon="6.01999">
        <ele>998.6</ele>
        <time>2019-08-08T11:41:03Z</time>
      </trkpt>
      <trkpt lat="46.57051" lon="6.01995">
        <ele>999.2</ele>
        <time>2019-08-08T11:41:11Z</time>
      </trkpt>
      <trkpt lat="46.57056" lon="6.01993">
        <ele>999.5</ele>
        <time>2019-08-08T11:41:15Z</time>
      </trkpt>
      <trkpt lat="46.5706" lon="6.01989">
        <ele>999.6</ele>
        <time>2019-08-08T11:41:18Z</time>
      </trkpt>
      <trkpt lat="46.57076" lon="6.01968">
        <ele>998.5</ele>
        <time>2019-08-08T11:41:50Z</time>
      </trkpt>
      <trkpt lat="46.5708" lon="6.0196">
        <ele>998.6</ele>
        <time>2019-08-08T11:41:52Z</time>
      </trkpt>
      <trkpt lat="46.57084" lon="6.01953">
        <ele>998.7</ele>
        <time>2019-08-08T11:41:54Z</time>
      </trkpt>
      <trkpt lat="46.57093" lon="6.01941">
        <ele>999.7</ele>
        <time>2019-08-08T11:42:04Z</time>
      </trkpt>
      <trkpt lat="46.57097" lon="6.01936">
        <ele>999.9</ele>
        <time>2019-08-08T11:42:10Z</time>
      </trkpt>
      <trkpt lat="46.57101" lon="6.01932">
        <ele>1000.4</ele>
        <time>2019-08-08T11:42:17Z</time>
      </trkpt>
      <trkpt lat="46.57103" lon="6.01925">
        <ele>1001.1</ele>
        <time>2019-08-08T11:42:22Z</time>
      </trkpt>
      <trkpt lat="46.57103" lon="6.01917">
        <ele>1001.5</ele>
        <time>2019-08-08T11:42:26Z</time>
      </trkpt>
      <trkpt lat="46.57102" lon="6.01908">
        <ele>1001.7</ele>
        <time>2019-08-08T11:42:29Z</time>
      </trkpt>
      <trkpt lat="46.57102" lon="6.019">
        <ele>1002.3</ele>
        <time>2019-08-08T11:42:34Z</time>
      </trkpt>
      <trkpt lat="46.571" lon="6.0188">
        <ele>1005.2</ele>
        <time>2019-08-08T11:42:47Z</time>
      </trkpt>
      <trkpt lat="46.571" lon="6.01873">
        <ele>1006.3</ele>
        <time>2019-08-08T11:42:55Z</time>
      </trkpt>
      <trkpt lat="46.57103" lon="6.01866">
        <ele>1007.4</ele>
        <time>2019-08-08T11:43:01Z</time>
      </trkpt>
      <trkpt lat="46.57102" lon="6.01858">
        <ele>1008</ele>
        <time>2019-08-08T11:43:04Z</time>
      </trkpt>
      <trkpt lat="46.57102" lon="6.01851">
        <ele>1008.6</ele>
        <time>2019-08-08T11:43:09Z</time>
      </trkpt>
      <trkpt lat="46.57108" lon="6.01838">
        <ele>1009.4</ele>
        <time>2019-08-08T11:43:18Z</time>
      </trkpt>
      <trkpt lat="46.57118" lon="6.01826">
        <ele>1010.8</ele>
        <time>2019-08-08T11:43:27Z</time>
      </trkpt>
      <trkpt lat="46.5712" lon="6.0182">
        <ele>1011.1</ele>
        <time>2019-08-08T11:43:33Z</time>
      </trkpt>
      <trkpt lat="46.57127" lon="6.01818">
        <ele>1010.8</ele>
        <time>2019-08-08T11:43:39Z</time>
      </trkpt>
      <trkpt lat="46.57133" lon="6.01816">
        <ele>1010.4</ele>
        <time>2019-08-08T11:43:42Z</time>
      </trkpt>
      <trkpt lat="46.57137" lon="6.01814">
        <ele>1009.9</ele>
        <time>2019-08-08T11:43:46Z</time>
      </trkpt>
      <trkpt lat="46.57141" lon="6.01809">
        <ele>1008.9</ele>
        <time>2019-08-08T11:43:52Z</time>
      </trkpt>
      <trkpt lat="46.57146" lon="6.01806">
        <ele>1008.4</ele>
        <time>2019-08-08T11:43:56Z</time>
      </trkpt>
      <trkpt lat="46.57151" lon="6.01801">
        <ele>1008.2</ele>
        <time>2019-08-08T11:44:01Z</time>
      </trkpt>
      <trkpt lat="46.57154" lon="6.01797">
        <ele>1008.4</ele>
        <time>2019-08-08T11:44:05Z</time>
      </trkpt>
      <trkpt lat="46.5716" lon="6.01782">
        <ele>1009.5</ele>
        <time>2019-08-08T11:44:19Z</time>
      </trkpt>
      <trkpt lat="46.57162" lon="6.01776">
        <ele>1009.7</ele>
        <time>2019-08-08T11:44:23Z</time>
      </trkpt>
      <trkpt lat="46.57165" lon="6.0177">
        <ele>1010.5</ele>
        <time>2019-08-08T11:44:30Z</time>
      </trkpt>
      <trkpt lat="46.57169" lon="6.01766">
        <ele>1011</ele>
        <time>2019-08-08T11:44:33Z</time>
      </trkpt>
      <trkpt lat="46.57174" lon="6.01762">
        <ele>1011.7</ele>
        <time>2019-08-08T11:44:37Z</time>
      </trkpt>
      <trkpt lat="46.57178" lon="6.01758">
        <ele>1013</ele>
        <time>2019-08-08T11:44:44Z</time>
      </trkpt>
      <trkpt lat="46.57182" lon="6.0175">
        <ele>1014.2</ele>
        <time>2019-08-08T11:44:49Z</time>
      </trkpt>
      <trkpt lat="46.57183" lon="6.01742">
        <ele>1015.1</ele>
        <time>2019-08-08T11:44:52Z</time>
      </trkpt>
      <trkpt lat="46.57195" lon="6.01735">
        <ele>1017.3</ele>
        <time>2019-08-08T11:45:03Z</time>
      </trkpt>
      <trkpt lat="46.57203" lon="6.0172">
        <ele>1017.8</ele>
        <time>2019-08-08T11:45:20Z</time>
      </trkpt>
      <trkpt lat="46.57217" lon="6.01702">
        <ele>1016.9</ele>
        <time>2019-08-08T11:45:41Z</time>
      </trkpt>
      <trkpt lat="46.57222" lon="6.01701">
        <ele>1016.5</ele>
        <time>2019-08-08T11:45:44Z</time>
      </trkpt>
      <trkpt lat="46.57226" lon="6.01697">
        <ele>1016.1</ele>
        <time>2019-08-08T11:45:47Z</time>
      </trkpt>
      <trkpt lat="46.57232" lon="6.01691">
        <ele>1015.8</ele>
        <time>2019-08-08T11:45:49Z</time>
      </trkpt>
      <trkpt lat="46.57238" lon="6.01686">
        <ele>1015.5</ele>
        <time>2019-08-08T11:45:51Z</time>
      </trkpt>
      <trkpt lat="46.57246" lon="6.01673">
        <ele>1013.8</ele>
        <time>2019-08-08T11:45:59Z</time>
      </trkpt>
      <trkpt lat="46.57249" lon="6.01668">
        <ele>1013.7</ele>
        <time>2019-08-08T11:46:05Z</time>
      </trkpt>
      <trkpt lat="46.57252" lon="6.01663">
        <ele>1013.8</ele>
        <time>2019-08-08T11:46:11Z</time>
      </trkpt>
      <trkpt lat="46.57255" lon="6.01657">
        <ele>1014</ele>
        <time>2019-08-08T11:46:17Z</time>
      </trkpt>
      <trkpt lat="46.57258" lon="6.01651">
        <ele>1014.2</ele>
        <time>2019-08-08T11:46:22Z</time>
      </trkpt>
      <trkpt lat="46.57268" lon="6.01644">
        <ele>1013.8</ele>
        <time>2019-08-08T11:46:42Z</time>
      </trkpt>
      <trkpt lat="46.57273" lon="6.01642">
        <ele>1011.4</ele>
        <time>2019-08-08T11:46:50Z</time>
      </trkpt>
      <trkpt lat="46.57278" lon="6.0164">
        <ele>1007.2</ele>
        <time>2019-08-08T11:47:02Z</time>
      </trkpt>
      <trkpt lat="46.57283" lon="6.01638">
        <ele>1006.5</ele>
        <time>2019-08-08T11:47:04Z</time>
      </trkpt>
      <trkpt lat="46.57288" lon="6.01635">
        <ele>1005.2</ele>
        <time>2019-08-08T11:47:08Z</time>
      </trkpt>
      <trkpt lat="46.57306" lon="6.01621">
        <ele>1000.1</ele>
        <time>2019-08-08T11:47:31Z</time>
      </trkpt>
      <trkpt lat="46.57311" lon="6.01619">
        <ele>1000.4</ele>
        <time>2019-08-08T11:47:38Z</time>
      </trkpt>
      <trkpt lat="46.57315" lon="6.01614">
        <ele>1001</ele>
        <time>2019-08-08T11:47:43Z</time>
      </trkpt>
      <trkpt lat="46.57321" lon="6.01612">
        <ele>1001.5</ele>
        <time>2019-08-08T11:47:46Z</time>
      </trkpt>
      <trkpt lat="46.57326" lon="6.01612">
        <ele>1002.1</ele>
        <time>2019-08-08T11:47:54Z</time>
      </trkpt>
      <trkpt lat="46.57331" lon="6.0161">
        <ele>1002.2</ele>
        <time>2019-08-08T11:47:58Z</time>
      </trkpt>
      <trkpt lat="46.57342" lon="6.01601">
        <ele>1002</ele>
        <time>2019-08-08T11:48:05Z</time>
      </trkpt>
      <trkpt lat="46.57346" lon="6.01598">
        <ele>1002</ele>
        <time>2019-08-08T11:48:07Z</time>
      </trkpt>
      <trkpt lat="46.57349" lon="6.01593">
        <ele>1002.1</ele>
        <time>2019-08-08T11:48:13Z</time>
      </trkpt>
      <trkpt lat="46.57352" lon="6.01586">
        <ele>1002.3</ele>
        <time>2019-08-08T11:48:17Z</time>
      </trkpt>
      <trkpt lat="46.57356" lon="6.01581">
        <ele>1003</ele>
        <time>2019-08-08T11:48:22Z</time>
      </trkpt>
      <trkpt lat="46.57364" lon="6.01565">
        <ele>1005.6</ele>
        <time>2019-08-08T11:48:35Z</time>
      </trkpt>
      <trkpt lat="46.57368" lon="6.01561">
        <ele>1007.1</ele>
        <time>2019-08-08T11:48:43Z</time>
      </trkpt>
      <trkpt lat="46.57372" lon="6.01557">
        <ele>1007.9</ele>
        <time>2019-08-08T11:48:48Z</time>
      </trkpt>
      <trkpt lat="46.57375" lon="6.01553">
        <ele>1008.8</ele>
        <time>2019-08-08T11:48:52Z</time>
      </trkpt>
      <trkpt lat="46.57377" lon="6.01545">
        <ele>1009.9</ele>
        <time>2019-08-08T11:48:57Z</time>
      </trkpt>
      <trkpt lat="46.57405" lon="6.0152">
        <ele>1014.3</ele>
        <time>2019-08-08T11:49:44Z</time>
      </trkpt>
      <trkpt lat="46.57412" lon="6.01521">
        <ele>1014.2</ele>
        <time>2019-08-08T11:49:46Z</time>
      </trkpt>
      <trkpt lat="46.57417" lon="6.0152">
        <ele>1014</ele>
        <time>2019-08-08T11:49:48Z</time>
      </trkpt>
      <trkpt lat="46.57423" lon="6.01517">
        <ele>1013.8</ele>
        <time>2019-08-08T11:49:51Z</time>
      </trkpt>
      <trkpt lat="46.57441" lon="6.01507">
        <ele>1011.9</ele>
        <time>2019-08-08T11:50:17Z</time>
      </trkpt>
      <trkpt lat="46.57446" lon="6.01506">
        <ele>1011.6</ele>
        <time>2019-08-08T11:50:20Z</time>
      </trkpt>
      <trkpt lat="46.57451" lon="6.01504">
        <ele>1011.4</ele>
        <time>2019-08-08T11:50:22Z</time>
      </trkpt>
      <trkpt lat="46.57457" lon="6.01502">
        <ele>1010.9</ele>
        <time>2019-08-08T11:50:27Z</time>
      </trkpt>
      <trkpt lat="46.5746" lon="6.01497">
        <ele>1010</ele>
        <time>2019-08-08T11:50:36Z</time>
      </trkpt>
      <trkpt lat="46.57464" lon="6.01495">
        <ele>1009.4</ele>
        <time>2019-08-08T11:50:44Z</time>
      </trkpt>
      <trkpt lat="46.57468" lon="6.01491">
        <ele>1009.2</ele>
        <time>2019-08-08T11:50:50Z</time>
      </trkpt>
      <trkpt lat="46.57471" lon="6.01486">
        <ele>1009.7</ele>
        <time>2019-08-08T11:51:00Z</time>
      </trkpt>
      <trkpt lat="46.57474" lon="6.0148">
        <ele>1010.8</ele>
        <time>2019-08-08T11:51:07Z</time>
      </trkpt>
      <trkpt lat="46.57479" lon="6.01478">
        <ele>1012.4</ele>
        <time>2019-08-08T11:51:18Z</time>
      </trkpt>
      <trkpt lat="46.57502" lon="6.01458">
        <ele>1013.6</ele>
        <time>2019-08-08T11:51:34Z</time>
      </trkpt>
      <trkpt lat="46.5751" lon="6.01445">
        <ele>1012.5</ele>
        <time>2019-08-08T11:51:45Z</time>
      </trkpt>
      <trkpt lat="46.57514" lon="6.01441">
        <ele>1012.5</ele>
        <time>2019-08-08T11:51:50Z</time>
      </trkpt>
      <trkpt lat="46.57518" lon="6.01438">
        <ele>1012.3</ele>
        <time>2019-08-08T11:51:54Z</time>
      </trkpt>
      <trkpt lat="46.57523" lon="6.01434">
        <ele>1012.2</ele>
        <time>2019-08-08T11:52:01Z</time>
      </trkpt>
      <trkpt lat="46.57526" lon="6.01425">
        <ele>1012.3</ele>
        <time>2019-08-08T11:52:10Z</time>
      </trkpt>
      <trkpt lat="46.57546" lon="6.01376">
        <ele>1014.4</ele>
        <time>2019-08-08T11:52:52Z</time>
      </trkpt>
      <trkpt lat="46.57547" lon="6.01369">
        <ele>1014.1</ele>
        <time>2019-08-08T11:52:58Z</time>
      </trkpt>
      <trkpt lat="46.57549" lon="6.01363">
        <ele>1013.6</ele>
        <time>2019-08-08T11:53:08Z</time>
      </trkpt>
      <trkpt lat="46.57556" lon="6.01343">
        <ele>1012.8</ele>
        <time>2019-08-08T11:53:26Z</time>
      </trkpt>
      <trkpt lat="46.57556" lon="6.01335">
        <ele>1012.5</ele>
        <time>2019-08-08T11:53:31Z</time>
      </trkpt>
      <trkpt lat="46.57558" lon="6.01327">
        <ele>1012.5</ele>
        <time>2019-08-08T11:53:35Z</time>
      </trkpt>
      <trkpt lat="46.57559" lon="6.01321">
        <ele>1012.5</ele>
        <time>2019-08-08T11:53:38Z</time>
      </trkpt>
      <trkpt lat="46.57559" lon="6.01313">
        <ele>1012.6</ele>
        <time>2019-08-08T11:53:41Z</time>
      </trkpt>
      <trkpt lat="46.57556" lon="6.01307">
        <ele>1012.5</ele>
        <time>2019-08-08T11:53:43Z</time>
      </trkpt>
      <trkpt lat="46.57568" lon="6.01282">
        <ele>1014.4</ele>
        <time>2019-08-08T11:54:06Z</time>
      </trkpt>
      <trkpt lat="46.57564" lon="6.01278">
        <ele>1014.7</ele>
        <time>2019-08-08T11:54:09Z</time>
      </trkpt>
      <trkpt lat="46.57552" lon="6.01265">
        <ele>1014.4</ele>
        <time>2019-08-08T11:54:21Z</time>
      </trkpt>
      <trkpt lat="46.57552" lon="6.01249">
        <ele>1013</ele>
        <time>2019-08-08T11:54:30Z</time>
      </trkpt>
      <trkpt lat="46.57559" lon="6.01193">
        <ele>1004</ele>
        <time>2019-08-08T11:55:11Z</time>
      </trkpt>
      <trkpt lat="46.5756" lon="6.01183">
        <ele>1003.8</ele>
        <time>2019-08-08T11:55:18Z</time>
      </trkpt>
      <trkpt lat="46.57559" lon="6.01163">
        <ele>1005.5</ele>
        <time>2019-08-08T11:55:34Z</time>
      </trkpt>
      <trkpt lat="46.57563" lon="6.01159">
        <ele>1005.7</ele>
        <time>2019-08-08T11:55:36Z</time>
      </trkpt>
      <trkpt lat="46.57579" lon="6.01128">
        <ele>1004.7</ele>
        <time>2019-08-08T11:56:03Z</time>
      </trkpt>
      <trkpt lat="46.57583" lon="6.01124">
        <ele>1004.6</ele>
        <time>2019-08-08T11:56:05Z</time>
      </trkpt>
      <trkpt lat="46.57588" lon="6.01119">
        <ele>1004.7</ele>
        <time>2019-08-08T11:56:08Z</time>
      </trkpt>
      <trkpt lat="46.57591" lon="6.01113">
        <ele>1004.7</ele>
        <time>2019-08-08T11:56:14Z</time>
      </trkpt>
      <trkpt lat="46.57593" lon="6.01096">
        <ele>1003.1</ele>
        <time>2019-08-08T11:56:28Z</time>
      </trkpt>
      <trkpt lat="46.57601" lon="6.0107">
        <ele>1000.6</ele>
        <time>2019-08-08T11:56:53Z</time>
      </trkpt>
      <trkpt lat="46.57615" lon="6.01045">
        <ele>997.4</ele>
        <time>2019-08-08T11:57:16Z</time>
      </trkpt>
      <trkpt lat="46.57619" lon="6.01043">
        <ele>996.4</ele>
        <time>2019-08-08T11:57:22Z</time>
      </trkpt>
      <trkpt lat="46.57628" lon="6.01023">
        <ele>992</ele>
        <time>2019-08-08T11:57:35Z</time>
      </trkpt>
      <trkpt lat="46.57631" lon="6.01017">
        <ele>991.5</ele>
        <time>2019-08-08T11:57:40Z</time>
      </trkpt>
      <trkpt lat="46.57634" lon="6.01012">
        <ele>991</ele>
        <time>2019-08-08T11:57:44Z</time>
      </trkpt>
      <trkpt lat="46.57635" lon="6.01005">
        <ele>990.5</ele>
        <time>2019-08-08T11:57:49Z</time>
      </trkpt>
      <trkpt lat="46.57635" lon="6.00999">
        <ele>990.5</ele>
        <time>2019-08-08T11:57:53Z</time>
      </trkpt>
      <trkpt lat="46.57634" lon="6.00991">
        <ele>990.6</ele>
        <time>2019-08-08T11:57:56Z</time>
      </trkpt>
      <trkpt lat="46.57635" lon="6.00984">
        <ele>990.7</ele>
        <time>2019-08-08T11:58:00Z</time>
      </trkpt>
      <trkpt lat="46.57637" lon="6.00978">
        <ele>990.9</ele>
        <time>2019-08-08T11:58:06Z</time>
      </trkpt>
      <trkpt lat="46.57638" lon="6.00971">
        <ele>990.6</ele>
        <time>2019-08-08T11:58:13Z</time>
      </trkpt>
      <trkpt lat="46.57658" lon="6.0095">
        <ele>985.7</ele>
        <time>2019-08-08T11:58:42Z</time>
      </trkpt>
      <trkpt lat="46.57662" lon="6.00945">
        <ele>985.3</ele>
        <time>2019-08-08T11:58:47Z</time>
      </trkpt>
      <trkpt lat="46.57665" lon="6.009">
        <ele>985.1</ele>
        <time>2019-08-08T11:59:16Z</time>
      </trkpt>
      <trkpt lat="46.57672" lon="6.00882">
        <ele>986.3</ele>
        <time>2019-08-08T11:59:31Z</time>
      </trkpt>
      <trkpt lat="46.57676" lon="6.00877">
        <ele>986.4</ele>
        <time>2019-08-08T11:59:34Z</time>
      </trkpt>
      <trkpt lat="46.57679" lon="6.00871">
        <ele>986.5</ele>
        <time>2019-08-08T11:59:39Z</time>
      </trkpt>
      <trkpt lat="46.5768" lon="6.00864">
        <ele>986.8</ele>
        <time>2019-08-08T11:59:45Z</time>
      </trkpt>
      <trkpt lat="46.57682" lon="6.00858">
        <ele>987</ele>
        <time>2019-08-08T11:59:50Z</time>
      </trkpt>
      <trkpt lat="46.57686" lon="6.00853">
        <ele>987.2</ele>
        <time>2019-08-08T11:59:55Z</time>
      </trkpt>
      <trkpt lat="46.57687" lon="6.00846">
        <ele>987.1</ele>
        <time>2019-08-08T12:00:03Z</time>
      </trkpt>
      <trkpt lat="46.57688" lon="6.00839">
        <ele>987.1</ele>
        <time>2019-08-08T12:00:06Z</time>
      </trkpt>
      <trkpt lat="46.5769" lon="6.00833">
        <ele>987.1</ele>
        <time>2019-08-08T12:00:09Z</time>
      </trkpt>
      <trkpt lat="46.57693" lon="6.00827">
        <ele>987.2</ele>
        <time>2019-08-08T12:00:14Z</time>
      </trkpt>
      <trkpt lat="46.57694" lon="6.00821">
        <ele>987.4</ele>
        <time>2019-08-08T12:00:22Z</time>
      </trkpt>
      <trkpt lat="46.57696" lon="6.00815">
        <ele>988</ele>
        <time>2019-08-08T12:00:29Z</time>
      </trkpt>
      <trkpt lat="46.577" lon="6.0081">
        <ele>988.2</ele>
        <time>2019-08-08T12:00:32Z</time>
      </trkpt>
      <trkpt lat="46.57703" lon="6.00805">
        <ele>988.4</ele>
        <time>2019-08-08T12:00:38Z</time>
      </trkpt>
      <trkpt lat="46.57705" lon="6.00792">
        <ele>989.7</ele>
        <time>2019-08-08T12:00:51Z</time>
      </trkpt>
      <trkpt lat="46.57708" lon="6.00773">
        <ele>991.9</ele>
        <time>2019-08-08T12:01:03Z</time>
      </trkpt>
      <trkpt lat="46.57711" lon="6.00768">
        <ele>992.2</ele>
        <time>2019-08-08T12:01:10Z</time>
      </trkpt>
      <trkpt lat="46.57713" lon="6.00761">
        <ele>992.5</ele>
        <time>2019-08-08T12:01:14Z</time>
      </trkpt>
      <trkpt lat="46.57719" lon="6.00751">
        <ele>993.5</ele>
        <time>2019-08-08T12:01:24Z</time>
      </trkpt>
      <trkpt lat="46.57719" lon="6.00743">
        <ele>993.6</ele>
        <time>2019-08-08T12:01:29Z</time>
      </trkpt>
      <trkpt lat="46.57721" lon="6.0073">
        <ele>993.4</ele>
        <time>2019-08-08T12:01:37Z</time>
      </trkpt>
      <trkpt lat="46.57723" lon="6.00724">
        <ele>993.5</ele>
        <time>2019-08-08T12:01:43Z</time>
      </trkpt>
      <trkpt lat="46.57727" lon="6.00719">
        <ele>993.7</ele>
        <time>2019-08-08T12:01:49Z</time>
      </trkpt>
      <trkpt lat="46.57738" lon="6.00709">
        <ele>993.3</ele>
        <time>2019-08-08T12:02:01Z</time>
      </trkpt>
      <trkpt lat="46.5775" lon="6.00674">
        <ele>992.5</ele>
        <time>2019-08-08T12:02:30Z</time>
      </trkpt>
      <trkpt lat="46.57754" lon="6.00669">
        <ele>992.7</ele>
        <time>2019-08-08T12:02:36Z</time>
      </trkpt>
      <trkpt lat="46.57759" lon="6.00642">
        <ele>992.8</ele>
        <time>2019-08-08T12:02:58Z</time>
      </trkpt>
      <trkpt lat="46.57762" lon="6.00616">
        <ele>994</ele>
        <time>2019-08-08T12:03:23Z</time>
      </trkpt>
      <trkpt lat="46.57762" lon="6.00608">
        <ele>994.2</ele>
        <time>2019-08-08T12:03:26Z</time>
      </trkpt>
      <trkpt lat="46.57771" lon="6.00567">
        <ele>998.1</ele>
        <time>2019-08-08T12:04:03Z</time>
      </trkpt>
      <trkpt lat="46.57772" lon="6.00561">
        <ele>998.6</ele>
        <time>2019-08-08T12:04:09Z</time>
      </trkpt>
      <trkpt lat="46.57765" lon="6.00504">
        <ele>1000.8</ele>
        <time>2019-08-08T12:04:46Z</time>
      </trkpt>
      <trkpt lat="46.57752" lon="6.0046">
        <ele>1000.8</ele>
        <time>2019-08-08T12:05:30Z</time>
      </trkpt>
      <trkpt lat="46.57751" lon="6.00453">
        <ele>1001.5</ele>
        <time>2019-08-08T12:05:35Z</time>
      </trkpt>
      <trkpt lat="46.5775" lon="6.00446">
        <ele>1002.5</ele>
        <time>2019-08-08T12:05:39Z</time>
      </trkpt>
      <trkpt lat="46.57749" lon="6.00439">
        <ele>1004.4</ele>
        <time>2019-08-08T12:05:45Z</time>
      </trkpt>
      <trkpt lat="46.57747" lon="6.00432">
        <ele>1005.6</ele>
        <time>2019-08-08T12:05:48Z</time>
      </trkpt>
      <trkpt lat="46.5775" lon="6.00412">
        <ele>1010.4</ele>
        <time>2019-08-08T12:06:03Z</time>
      </trkpt>
      <trkpt lat="46.57748" lon="6.00339">
        <ele>1000.7</ele>
        <time>2019-08-08T12:07:03Z</time>
      </trkpt>
      <trkpt lat="46.57749" lon="6.00332">
        <ele>1000.3</ele>
        <time>2019-08-08T12:07:07Z</time>
      </trkpt>
      <trkpt lat="46.57752" lon="6.00278">
        <ele>998.1</ele>
        <time>2019-08-08T12:07:53Z</time>
      </trkpt>
      <trkpt lat="46.5774" lon="6.00264">
        <ele>996.7</ele>
        <time>2019-08-08T12:08:06Z</time>
      </trkpt>
      <trkpt lat="46.57735" lon="6.0026">
        <ele>996.1</ele>
        <time>2019-08-08T12:08:10Z</time>
      </trkpt>
      <trkpt lat="46.57736" lon="6.00253">
        <ele>995.2</ele>
        <time>2019-08-08T12:08:14Z</time>
      </trkpt>
      <trkpt lat="46.57737" lon="6.00232">
        <ele>991.4</ele>
        <time>2019-08-08T12:08:37Z</time>
      </trkpt>
      <trkpt lat="46.57733" lon="6.00226">
        <ele>991.3</ele>
        <time>2019-08-08T12:08:39Z</time>
      </trkpt>
      <trkpt lat="46.57728" lon="6.00185">
        <ele>991.2</ele>
        <time>2019-08-08T12:08:54Z</time>
      </trkpt>
      <trkpt lat="46.57725" lon="6.00179">
        <ele>991.3</ele>
        <time>2019-08-08T12:08:58Z</time>
      </trkpt>
      <trkpt lat="46.57732" lon="6.00171">
        <ele>992.5</ele>
        <time>2019-08-08T12:09:11Z</time>
      </trkpt>
      <trkpt lat="46.57739" lon="6.00149">
        <ele>990.2</ele>
        <time>2019-08-08T12:09:30Z</time>
      </trkpt>
      <trkpt lat="46.57741" lon="6.00142">
        <ele>989.5</ele>
        <time>2019-08-08T12:09:34Z</time>
      </trkpt>
      <trkpt lat="46.57742" lon="6.00134">
        <ele>989.1</ele>
        <time>2019-08-08T12:09:36Z</time>
      </trkpt>
      <trkpt lat="46.57743" lon="6.00127">
        <ele>988.4</ele>
        <time>2019-08-08T12:09:40Z</time>
      </trkpt>
      <trkpt lat="46.57748" lon="6.00123">
        <ele>987.9</ele>
        <time>2019-08-08T12:09:43Z</time>
      </trkpt>
      <trkpt lat="46.57752" lon="6.00121">
        <ele>987.5</ele>
        <time>2019-08-08T12:09:46Z</time>
      </trkpt>
      <trkpt lat="46.57757" lon="6.00118">
        <ele>987.1</ele>
        <time>2019-08-08T12:09:50Z</time>
      </trkpt>
      <trkpt lat="46.57769" lon="6.00087">
        <ele>987.9</ele>
        <time>2019-08-08T12:10:10Z</time>
      </trkpt>
      <trkpt lat="46.57769" lon="6.0008">
        <ele>988</ele>
        <time>2019-08-08T12:10:13Z</time>
      </trkpt>
      <trkpt lat="46.57768" lon="6.00049">
        <ele>986.3</ele>
        <time>2019-08-08T12:10:34Z</time>
      </trkpt>
      <trkpt lat="46.57758" lon="6.00032">
        <ele>985.5</ele>
        <time>2019-08-08T12:10:44Z</time>
      </trkpt>
      <trkpt lat="46.57756" lon="6.00025">
        <ele>985.3</ele>
        <time>2019-08-08T12:10:49Z</time>
      </trkpt>
      <trkpt lat="46.57764" lon="5.99993">
        <ele>982.3</ele>
        <time>2019-08-08T12:11:12Z</time>
      </trkpt>
      <trkpt lat="46.57765" lon="5.99986">
        <ele>982</ele>
        <time>2019-08-08T12:11:16Z</time>
      </trkpt>
      <trkpt lat="46.57777" lon="5.99951">
        <ele>977.8</ele>
        <time>2019-08-08T12:11:36Z</time>
      </trkpt>
      <trkpt lat="46.57787" lon="5.99932">
        <ele>975.5</ele>
        <time>2019-08-08T12:11:55Z</time>
      </trkpt>
      <trkpt lat="46.57791" lon="5.99929">
        <ele>975</ele>
        <time>2019-08-08T12:12:00Z</time>
      </trkpt>
      <trkpt lat="46.57796" lon="5.99924">
        <ele>975</ele>
        <time>2019-08-08T12:12:05Z</time>
      </trkpt>
      <trkpt lat="46.57798" lon="5.99917">
        <ele>975.1</ele>
        <time>2019-08-08T12:12:09Z</time>
      </trkpt>
      <trkpt lat="46.57801" lon="5.9991">
        <ele>975.5</ele>
        <time>2019-08-08T12:12:14Z</time>
      </trkpt>
      <trkpt lat="46.5781" lon="5.99891">
        <ele>976.8</ele>
        <time>2019-08-08T12:12:26Z</time>
      </trkpt>
      <trkpt lat="46.57821" lon="5.99871">
        <ele>974.8</ele>
        <time>2019-08-08T12:12:46Z</time>
      </trkpt>
      <trkpt lat="46.57824" lon="5.99862">
        <ele>974.6</ele>
        <time>2019-08-08T12:12:51Z</time>
      </trkpt>
      <trkpt lat="46.57833" lon="5.99822">
        <ele>973</ele>
        <time>2019-08-08T12:13:20Z</time>
      </trkpt>
      <trkpt lat="46.57841" lon="5.99804">
        <ele>970.7</ele>
        <time>2019-08-08T12:13:38Z</time>
      </trkpt>
      <trkpt lat="46.57843" lon="5.99797">
        <ele>970.9</ele>
        <time>2019-08-08T12:13:41Z</time>
      </trkpt>
      <trkpt lat="46.57845" lon="5.99788">
        <ele>971.2</ele>
        <time>2019-08-08T12:13:44Z</time>
      </trkpt>
      <trkpt lat="46.57843" lon="5.99781">
        <ele>971.5</ele>
        <time>2019-08-08T12:13:46Z</time>
      </trkpt>
      <trkpt lat="46.57843" lon="5.99774">
        <ele>972.3</ele>
        <time>2019-08-08T12:13:50Z</time>
      </trkpt>
      <trkpt lat="46.57846" lon="5.99768">
        <ele>973.8</ele>
        <time>2019-08-08T12:13:56Z</time>
      </trkpt>
      <trkpt lat="46.57847" lon="5.99738">
        <ele>978.7</ele>
        <time>2019-08-08T12:14:14Z</time>
      </trkpt>
      <trkpt lat="46.57846" lon="5.9973">
        <ele>979.3</ele>
        <time>2019-08-08T12:14:17Z</time>
      </trkpt>
      <trkpt lat="46.57849" lon="5.99719">
        <ele>981</ele>
        <time>2019-08-08T12:14:33Z</time>
      </trkpt>
      <trkpt lat="46.57853" lon="5.99707">
        <ele>981.2</ele>
        <time>2019-08-08T12:14:48Z</time>
      </trkpt>
      <trkpt lat="46.57855" lon="5.997">
        <ele>981.1</ele>
        <time>2019-08-08T12:14:51Z</time>
      </trkpt>
      <trkpt lat="46.57854" lon="5.99681">
        <ele>980.6</ele>
        <time>2019-08-08T12:14:59Z</time>
      </trkpt>
      <trkpt lat="46.5786" lon="5.99661">
        <ele>979.8</ele>
        <time>2019-08-08T12:15:15Z</time>
      </trkpt>
      <trkpt lat="46.57857" lon="5.99653">
        <ele>979.8</ele>
        <time>2019-08-08T12:15:17Z</time>
      </trkpt>
      <trkpt lat="46.57854" lon="5.99648">
        <ele>979.8</ele>
        <time>2019-08-08T12:15:19Z</time>
      </trkpt>
      <trkpt lat="46.57856" lon="5.99614">
        <ele>978.9</ele>
        <time>2019-08-08T12:15:42Z</time>
      </trkpt>
      <trkpt lat="46.57858" lon="5.99608">
        <ele>979</ele>
        <time>2019-08-08T12:15:46Z</time>
      </trkpt>
      <trkpt lat="46.57858" lon="5.99577">
        <ele>977.4</ele>
        <time>2019-08-08T12:16:18Z</time>
      </trkpt>
      <trkpt lat="46.57855" lon="5.99551">
        <ele>975.1</ele>
        <time>2019-08-08T12:17:37Z</time>
      </trkpt>
      <trkpt lat="46.57856" lon="5.99544">
        <ele>976.5</ele>
        <time>2019-08-08T12:17:45Z</time>
      </trkpt>
      <trkpt lat="46.57854" lon="5.99532">
        <ele>975.1</ele>
        <time>2019-08-08T12:18:01Z</time>
      </trkpt>
      <trkpt lat="46.57856" lon="5.99516">
        <ele>973.6</ele>
        <time>2019-08-08T12:18:15Z</time>
      </trkpt>
      <trkpt lat="46.5786" lon="5.99504">
        <ele>973.3</ele>
        <time>2019-08-08T12:18:25Z</time>
      </trkpt>
      <trkpt lat="46.57862" lon="5.99497">
        <ele>973.3</ele>
        <time>2019-08-08T12:18:30Z</time>
      </trkpt>
      <trkpt lat="46.57865" lon="5.99491">
        <ele>973.4</ele>
        <time>2019-08-08T12:18:35Z</time>
      </trkpt>
      <trkpt lat="46.57868" lon="5.99484">
        <ele>973.5</ele>
        <time>2019-08-08T12:18:40Z</time>
      </trkpt>
      <trkpt lat="46.57872" lon="5.99478">
        <ele>973.6</ele>
        <time>2019-08-08T12:18:45Z</time>
      </trkpt>
      <trkpt lat="46.57876" lon="5.99472">
        <ele>973.5</ele>
        <time>2019-08-08T12:18:51Z</time>
      </trkpt>
      <trkpt lat="46.579" lon="5.99449">
        <ele>968.3</ele>
        <time>2019-08-08T12:19:20Z</time>
      </trkpt>
      <trkpt lat="46.57904" lon="5.99445">
        <ele>968.1</ele>
        <time>2019-08-08T12:19:24Z</time>
      </trkpt>
      <trkpt lat="46.57908" lon="5.99441">
        <ele>967.9</ele>
        <time>2019-08-08T12:19:30Z</time>
      </trkpt>
      <trkpt lat="46.57911" lon="5.99435">
        <ele>967.8</ele>
        <time>2019-08-08T12:19:33Z</time>
      </trkpt>
      <trkpt lat="46.5791" lon="5.99427">
        <ele>967.8</ele>
        <time>2019-08-08T12:19:35Z</time>
      </trkpt>
      <trkpt lat="46.57909" lon="5.9942">
        <ele>967.5</ele>
        <time>2019-08-08T12:19:40Z</time>
      </trkpt>
      <trkpt lat="46.57913" lon="5.99415">
        <ele>967.2</ele>
        <time>2019-08-08T12:19:43Z</time>
      </trkpt>
      <trkpt lat="46.57917" lon="5.9941">
        <ele>966.9</ele>
        <time>2019-08-08T12:19:46Z</time>
      </trkpt>
      <trkpt lat="46.5792" lon="5.99403">
        <ele>966.5</ele>
        <time>2019-08-08T12:19:50Z</time>
      </trkpt>
      <trkpt lat="46.57924" lon="5.99399">
        <ele>966.1</ele>
        <time>2019-08-08T12:19:55Z</time>
      </trkpt>
      <trkpt lat="46.57928" lon="5.99394">
        <ele>965.7</ele>
        <time>2019-08-08T12:20:00Z</time>
      </trkpt>
      <trkpt lat="46.57932" lon="5.99389">
        <ele>965.6</ele>
        <time>2019-08-08T12:20:05Z</time>
      </trkpt>
      <trkpt lat="46.57936" lon="5.99385">
        <ele>965.6</ele>
        <time>2019-08-08T12:20:09Z</time>
      </trkpt>
      <trkpt lat="46.57941" lon="5.99379">
        <ele>965.7</ele>
        <time>2019-08-08T12:20:13Z</time>
      </trkpt>
      <trkpt lat="46.57945" lon="5.99374">
        <ele>966</ele>
        <time>2019-08-08T12:20:17Z</time>
      </trkpt>
      <trkpt lat="46.57948" lon="5.99369">
        <ele>966.2</ele>
        <time>2019-08-08T12:20:20Z</time>
      </trkpt>
      <trkpt lat="46.57951" lon="5.99365">
        <ele>966.4</ele>
        <time>2019-08-08T12:20:25Z</time>
      </trkpt>
      <trkpt lat="46.57955" lon="5.99361">
        <ele>966.7</ele>
        <time>2019-08-08T12:20:31Z</time>
      </trkpt>
      <trkpt lat="46.57959" lon="5.99355">
        <ele>966.7</ele>
        <time>2019-08-08T12:20:36Z</time>
      </trkpt>
      <trkpt lat="46.57962" lon="5.99348">
        <ele>966.6</ele>
        <time>2019-08-08T12:20:41Z</time>
      </trkpt>
      <trkpt lat="46.57963" lon="5.99341">
        <ele>966.2</ele>
        <time>2019-08-08T12:20:45Z</time>
      </trkpt>
      <trkpt lat="46.57962" lon="5.99334">
        <ele>965.8</ele>
        <time>2019-08-08T12:20:48Z</time>
      </trkpt>
      <trkpt lat="46.57964" lon="5.99328">
        <ele>964.6</ele>
        <time>2019-08-08T12:20:55Z</time>
      </trkpt>
      <trkpt lat="46.57968" lon="5.99323">
        <ele>964</ele>
        <time>2019-08-08T12:21:00Z</time>
      </trkpt>
      <trkpt lat="46.5797" lon="5.99316">
        <ele>963.8</ele>
        <time>2019-08-08T12:21:03Z</time>
      </trkpt>
      <trkpt lat="46.57968" lon="5.9931">
        <ele>963.8</ele>
        <time>2019-08-08T12:21:06Z</time>
      </trkpt>
      <trkpt lat="46.57969" lon="5.99303">
        <ele>964</ele>
        <time>2019-08-08T12:21:12Z</time>
      </trkpt>
      <trkpt lat="46.57972" lon="5.99298">
        <ele>964.2</ele>
        <time>2019-08-08T12:21:15Z</time>
      </trkpt>
      <trkpt lat="46.57976" lon="5.99295">
        <ele>964.5</ele>
        <time>2019-08-08T12:21:19Z</time>
      </trkpt>
      <trkpt lat="46.57981" lon="5.99293">
        <ele>964.7</ele>
        <time>2019-08-08T12:21:24Z</time>
      </trkpt>
      <trkpt lat="46.57986" lon="5.99288">
        <ele>964.6</ele>
        <time>2019-08-08T12:21:29Z</time>
      </trkpt>
      <trkpt lat="46.57991" lon="5.99287">
        <ele>964.5</ele>
        <time>2019-08-08T12:21:33Z</time>
      </trkpt>
      <trkpt lat="46.57996" lon="5.99284">
        <ele>964.5</ele>
        <time>2019-08-08T12:21:36Z</time>
      </trkpt>
      <trkpt lat="46.57998" lon="5.99278">
        <ele>964.6</ele>
        <time>2019-08-08T12:21:41Z</time>
      </trkpt>
      <trkpt lat="46.58003" lon="5.99273">
        <ele>964.5</ele>
        <time>2019-08-08T12:21:45Z</time>
      </trkpt>
      <trkpt lat="46.58006" lon="5.99269">
        <ele>964.4</ele>
        <time>2019-08-08T12:21:49Z</time>
      </trkpt>
      <trkpt lat="46.58008" lon="5.99261">
        <ele>964.3</ele>
        <time>2019-08-08T12:21:54Z</time>
      </trkpt>
      <trkpt lat="46.58011" lon="5.99255">
        <ele>964.1</ele>
        <time>2019-08-08T12:21:59Z</time>
      </trkpt>
      <trkpt lat="46.58012" lon="5.99247">
        <ele>963.7</ele>
        <time>2019-08-08T12:22:05Z</time>
      </trkpt>
      <trkpt lat="46.58014" lon="5.99241">
        <ele>963.5</ele>
        <time>2019-08-08T12:22:10Z</time>
      </trkpt>
      <trkpt lat="46.58016" lon="5.99236">
        <ele>963.3</ele>
        <time>2019-08-08T12:22:15Z</time>
      </trkpt>
      <trkpt lat="46.5802" lon="5.99229">
        <ele>963.6</ele>
        <time>2019-08-08T12:22:19Z</time>
      </trkpt>
      <trkpt lat="46.58022" lon="5.99222">
        <ele>963.8</ele>
        <time>2019-08-08T12:22:22Z</time>
      </trkpt>
      <trkpt lat="46.58022" lon="5.99215">
        <ele>964.1</ele>
        <time>2019-08-08T12:22:25Z</time>
      </trkpt>
      <trkpt lat="46.58022" lon="5.99208">
        <ele>964.3</ele>
        <time>2019-08-08T12:22:29Z</time>
      </trkpt>
      <trkpt lat="46.58025" lon="5.99202">
        <ele>964.3</ele>
        <time>2019-08-08T12:22:34Z</time>
      </trkpt>
      <trkpt lat="46.58027" lon="5.99196">
        <ele>964</ele>
        <time>2019-08-08T12:22:38Z</time>
      </trkpt>
      <trkpt lat="46.5803" lon="5.9919">
        <ele>963.7</ele>
        <time>2019-08-08T12:22:43Z</time>
      </trkpt>
      <trkpt lat="46.58033" lon="5.99184">
        <ele>963.8</ele>
        <time>2019-08-08T12:22:46Z</time>
      </trkpt>
      <trkpt lat="46.58034" lon="5.99177">
        <ele>963.9</ele>
        <time>2019-08-08T12:22:50Z</time>
      </trkpt>
      <trkpt lat="46.58034" lon="5.99168">
        <ele>963.9</ele>
        <time>2019-08-08T12:22:53Z</time>
      </trkpt>
      <trkpt lat="46.58037" lon="5.99162">
        <ele>964.2</ele>
        <time>2019-08-08T12:22:56Z</time>
      </trkpt>
      <trkpt lat="46.58041" lon="5.99156">
        <ele>964.7</ele>
        <time>2019-08-08T12:23:00Z</time>
      </trkpt>
      <trkpt lat="46.58045" lon="5.99151">
        <ele>965.5</ele>
        <time>2019-08-08T12:23:04Z</time>
      </trkpt>
      <trkpt lat="46.58049" lon="5.99147">
        <ele>966.3</ele>
        <time>2019-08-08T12:23:08Z</time>
      </trkpt>
      <trkpt lat="46.58053" lon="5.99141">
        <ele>967</ele>
        <time>2019-08-08T12:23:13Z</time>
      </trkpt>
      <trkpt lat="46.58056" lon="5.99135">
        <ele>967.4</ele>
        <time>2019-08-08T12:23:19Z</time>
      </trkpt>
      <trkpt lat="46.58061" lon="5.99131">
        <ele>967.5</ele>
        <time>2019-08-08T12:23:24Z</time>
      </trkpt>
      <trkpt lat="46.58064" lon="5.99127">
        <ele>967.3</ele>
        <time>2019-08-08T12:23:29Z</time>
      </trkpt>
      <trkpt lat="46.58069" lon="5.99124">
        <ele>966.7</ele>
        <time>2019-08-08T12:23:34Z</time>
      </trkpt>
      <trkpt lat="46.58071" lon="5.99117">
        <ele>965.7</ele>
        <time>2019-08-08T12:23:40Z</time>
      </trkpt>
      <trkpt lat="46.58072" lon="5.99109">
        <ele>964.7</ele>
        <time>2019-08-08T12:23:45Z</time>
      </trkpt>
      <trkpt lat="46.58075" lon="5.99103">
        <ele>964.2</ele>
        <time>2019-08-08T12:23:48Z</time>
      </trkpt>
      <trkpt lat="46.58078" lon="5.99097">
        <ele>963.6</ele>
        <time>2019-08-08T12:23:53Z</time>
      </trkpt>
      <trkpt lat="46.58083" lon="5.99096">
        <ele>963.3</ele>
        <time>2019-08-08T12:23:58Z</time>
      </trkpt>
      <trkpt lat="46.58087" lon="5.99092">
        <ele>963.3</ele>
        <time>2019-08-08T12:24:03Z</time>
      </trkpt>
      <trkpt lat="46.58093" lon="5.99088">
        <ele>963.3</ele>
        <time>2019-08-08T12:24:10Z</time>
      </trkpt>
      <trkpt lat="46.58097" lon="5.99085">
        <ele>963</ele>
        <time>2019-08-08T12:24:14Z</time>
      </trkpt>
      <trkpt lat="46.58102" lon="5.99084">
        <ele>962.6</ele>
        <time>2019-08-08T12:24:17Z</time>
      </trkpt>
      <trkpt lat="46.58107" lon="5.99079">
        <ele>961.2</ele>
        <time>2019-08-08T12:24:24Z</time>
      </trkpt>
      <trkpt lat="46.58111" lon="5.99074">
        <ele>959.7</ele>
        <time>2019-08-08T12:24:31Z</time>
      </trkpt>
      <trkpt lat="46.58115" lon="5.9907">
        <ele>958.8</ele>
        <time>2019-08-08T12:24:35Z</time>
      </trkpt>
      <trkpt lat="46.58117" lon="5.99064">
        <ele>957.3</ele>
        <time>2019-08-08T12:24:41Z</time>
      </trkpt>
      <trkpt lat="46.58122" lon="5.99061">
        <ele>956.5</ele>
        <time>2019-08-08T12:24:45Z</time>
      </trkpt>
      <trkpt lat="46.58126" lon="5.99055">
        <ele>955.1</ele>
        <time>2019-08-08T12:24:52Z</time>
      </trkpt>
      <trkpt lat="46.58131" lon="5.9905">
        <ele>954.3</ele>
        <time>2019-08-08T12:24:56Z</time>
      </trkpt>
      <trkpt lat="46.58132" lon="5.99043">
        <ele>953.4</ele>
        <time>2019-08-08T12:25:01Z</time>
      </trkpt>
      <trkpt lat="46.58135" lon="5.99036">
        <ele>952.4</ele>
        <time>2019-08-08T12:25:06Z</time>
      </trkpt>
      <trkpt lat="46.58137" lon="5.9903">
        <ele>951.5</ele>
        <time>2019-08-08T12:25:10Z</time>
      </trkpt>
      <trkpt lat="46.5814" lon="5.99025">
        <ele>950.7</ele>
        <time>2019-08-08T12:25:14Z</time>
      </trkpt>
      <trkpt lat="46.58142" lon="5.99018">
        <ele>950</ele>
        <time>2019-08-08T12:25:18Z</time>
      </trkpt>
      <trkpt lat="46.58146" lon="5.99014">
        <ele>949.2</ele>
        <time>2019-08-08T12:25:23Z</time>
      </trkpt>
      <trkpt lat="46.5815" lon="5.99007">
        <ele>948.9</ele>
        <time>2019-08-08T12:25:27Z</time>
      </trkpt>
      <trkpt lat="46.58153" lon="5.99002">
        <ele>948.8</ele>
        <time>2019-08-08T12:25:30Z</time>
      </trkpt>
      <trkpt lat="46.58153" lon="5.98994">
        <ele>948.8</ele>
        <time>2019-08-08T12:25:34Z</time>
      </trkpt>
      <trkpt lat="46.58153" lon="5.98987">
        <ele>949</ele>
        <time>2019-08-08T12:25:38Z</time>
      </trkpt>
      <trkpt lat="46.58153" lon="5.98979">
        <ele>949.3</ele>
        <time>2019-08-08T12:25:43Z</time>
      </trkpt>
      <trkpt lat="46.58152" lon="5.98971">
        <ele>949.5</ele>
        <time>2019-08-08T12:25:46Z</time>
      </trkpt>
      <trkpt lat="46.58153" lon="5.98964">
        <ele>949.7</ele>
        <time>2019-08-08T12:25:51Z</time>
      </trkpt>
      <trkpt lat="46.58157" lon="5.98959">
        <ele>949.8</ele>
        <time>2019-08-08T12:26:00Z</time>
      </trkpt>
      <trkpt lat="46.58137" lon="5.98952">
        <ele>944.5</ele>
        <time>2019-08-08T12:26:54Z</time>
      </trkpt>
      <trkpt lat="46.58133" lon="5.98955">
        <ele>942.8</ele>
        <time>2019-08-08T12:27:01Z</time>
      </trkpt>
      <trkpt lat="46.58129" lon="5.98958">
        <ele>941.6</ele>
        <time>2019-08-08T12:27:05Z</time>
      </trkpt>
      <trkpt lat="46.58124" lon="5.98962">
        <ele>940</ele>
        <time>2019-08-08T12:27:10Z</time>
      </trkpt>
      <trkpt lat="46.58119" lon="5.98964">
        <ele>938.5</ele>
        <time>2019-08-08T12:27:17Z</time>
      </trkpt>
      <trkpt lat="46.58114" lon="5.98965">
        <ele>938.4</ele>
        <time>2019-08-08T12:27:20Z</time>
      </trkpt>
      <trkpt lat="46.58109" lon="5.98965">
        <ele>938.7</ele>
        <time>2019-08-08T12:27:24Z</time>
      </trkpt>
      <trkpt lat="46.58104" lon="5.98964">
        <ele>939</ele>
        <time>2019-08-08T12:27:28Z</time>
      </trkpt>
      <trkpt lat="46.58099" lon="5.98963">
        <ele>939.1</ele>
        <time>2019-08-08T12:27:33Z</time>
      </trkpt>
      <trkpt lat="46.58096" lon="5.98969">
        <ele>937.9</ele>
        <time>2019-08-08T12:27:47Z</time>
      </trkpt>
      <trkpt lat="46.58093" lon="5.98974">
        <ele>937.4</ele>
        <time>2019-08-08T12:27:52Z</time>
      </trkpt>
      <trkpt lat="46.58088" lon="5.98977">
        <ele>937.3</ele>
        <time>2019-08-08T12:27:56Z</time>
      </trkpt>
      <trkpt lat="46.58084" lon="5.9898">
        <ele>937.3</ele>
        <time>2019-08-08T12:28:01Z</time>
      </trkpt>
      <trkpt lat="46.58079" lon="5.98985">
        <ele>937.4</ele>
        <time>2019-08-08T12:28:05Z</time>
      </trkpt>
      <trkpt lat="46.58073" lon="5.98987">
        <ele>937.5</ele>
        <time>2019-08-08T12:28:08Z</time>
      </trkpt>
      <trkpt lat="46.58068" lon="5.9899">
        <ele>937.8</ele>
        <time>2019-08-08T12:28:12Z</time>
      </trkpt>
      <trkpt lat="46.58064" lon="5.98992">
        <ele>938</ele>
        <time>2019-08-08T12:28:16Z</time>
      </trkpt>
      <trkpt lat="46.58059" lon="5.98996">
        <ele>938</ele>
        <time>2019-08-08T12:28:19Z</time>
      </trkpt>
      <trkpt lat="46.58055" lon="5.99">
        <ele>937.8</ele>
        <time>2019-08-08T12:28:23Z</time>
      </trkpt>
      <trkpt lat="46.58049" lon="5.99005">
        <ele>937.8</ele>
        <time>2019-08-08T12:28:29Z</time>
      </trkpt>
      <trkpt lat="46.58046" lon="5.9901">
        <ele>937.9</ele>
        <time>2019-08-08T12:28:32Z</time>
      </trkpt>
      <trkpt lat="46.58041" lon="5.99015">
        <ele>938.2</ele>
        <time>2019-08-08T12:28:36Z</time>
      </trkpt>
      <trkpt lat="46.58037" lon="5.99019">
        <ele>938.8</ele>
        <time>2019-08-08T12:28:43Z</time>
      </trkpt>
      <trkpt lat="46.58001" lon="5.99062">
        <ele>947.9</ele>
        <time>2019-08-08T12:29:23Z</time>
      </trkpt>
      <trkpt lat="46.57997" lon="5.99064">
        <ele>948</ele>
        <time>2019-08-08T12:29:25Z</time>
      </trkpt>
      <trkpt lat="46.5799" lon="5.99067">
        <ele>948.4</ele>
        <time>2019-08-08T12:29:30Z</time>
      </trkpt>
      <trkpt lat="46.57986" lon="5.99071">
        <ele>948.7</ele>
        <time>2019-08-08T12:29:34Z</time>
      </trkpt>
      <trkpt lat="46.5798" lon="5.99071">
        <ele>949</ele>
        <time>2019-08-08T12:29:37Z</time>
      </trkpt>
      <trkpt lat="46.57976" lon="5.99071">
        <ele>949.4</ele>
        <time>2019-08-08T12:29:42Z</time>
      </trkpt>
      <trkpt lat="46.57971" lon="5.99071">
        <ele>949.2</ele>
        <time>2019-08-08T12:29:48Z</time>
      </trkpt>
      <trkpt lat="46.57964" lon="5.99074">
        <ele>948.7</ele>
        <time>2019-08-08T12:29:54Z</time>
      </trkpt>
      <trkpt lat="46.57958" lon="5.99076">
        <ele>948.5</ele>
        <time>2019-08-08T12:29:57Z</time>
      </trkpt>
      <trkpt lat="46.57927" lon="5.99077">
        <ele>962.5</ele>
        <time>2019-08-08T12:30:37Z</time>
      </trkpt>
      <trkpt lat="46.57923" lon="5.99077">
        <ele>963.3</ele>
        <time>2019-08-08T12:30:40Z</time>
      </trkpt>
      <trkpt lat="46.57918" lon="5.99074">
        <ele>964.1</ele>
        <time>2019-08-08T12:30:43Z</time>
      </trkpt>
      <trkpt lat="46.5791" lon="5.99052">
        <ele>966.8</ele>
        <time>2019-08-08T12:31:00Z</time>
      </trkpt>
      <trkpt lat="46.57899" lon="5.99023">
        <ele>957.3</ele>
        <time>2019-08-08T12:31:37Z</time>
      </trkpt>
      <trkpt lat="46.57888" lon="5.98973">
        <ele>944.7</ele>
        <time>2019-08-08T12:32:50Z</time>
      </trkpt>
      <trkpt lat="46.57884" lon="5.98967">
        <ele>944.7</ele>
        <time>2019-08-08T12:32:52Z</time>
      </trkpt>
      <trkpt lat="46.57878" lon="5.98946">
        <ele>944.6</ele>
        <time>2019-08-08T12:33:04Z</time>
      </trkpt>
      <trkpt lat="46.57899" lon="5.98853">
        <ele>937.3</ele>
        <time>2019-08-08T12:34:12Z</time>
      </trkpt>
      <trkpt lat="46.57898" lon="5.98834">
        <ele>937.2</ele>
        <time>2019-08-08T12:34:20Z</time>
      </trkpt>
      <trkpt lat="46.57901" lon="5.98805">
        <ele>941.4</ele>
        <time>2019-08-08T12:34:44Z</time>
      </trkpt>
      <trkpt lat="46.57895" lon="5.9879">
        <ele>943</ele>
        <time>2019-08-08T12:34:58Z</time>
      </trkpt>
      <trkpt lat="46.57885" lon="5.98772">
        <ele>943</ele>
        <time>2019-08-08T12:35:12Z</time>
      </trkpt>
      <trkpt lat="46.57882" lon="5.98767">
        <ele>942.9</ele>
        <time>2019-08-08T12:35:16Z</time>
      </trkpt>
      <trkpt lat="46.57877" lon="5.98762">
        <ele>942.1</ele>
        <time>2019-08-08T12:35:22Z</time>
      </trkpt>
      <trkpt lat="46.57874" lon="5.98757">
        <ele>941.8</ele>
        <time>2019-08-08T12:35:25Z</time>
      </trkpt>
      <trkpt lat="46.5787" lon="5.98753">
        <ele>941.2</ele>
        <time>2019-08-08T12:35:30Z</time>
      </trkpt>
      <trkpt lat="46.57866" lon="5.98748">
        <ele>940.1</ele>
        <time>2019-08-08T12:35:37Z</time>
      </trkpt>
      <trkpt lat="46.57857" lon="5.98737">
        <ele>938</ele>
        <time>2019-08-08T12:35:50Z</time>
      </trkpt>
      <trkpt lat="46.57854" lon="5.98731">
        <ele>937.9</ele>
        <time>2019-08-08T12:35:53Z</time>
      </trkpt>
      <trkpt lat="46.57841" lon="5.98688">
        <ele>935.4</ele>
        <time>2019-08-08T12:36:25Z</time>
      </trkpt>
      <trkpt lat="46.57838" lon="5.98681">
        <ele>935.3</ele>
        <time>2019-08-08T12:36:27Z</time>
      </trkpt>
      <trkpt lat="46.57836" lon="5.98675">
        <ele>934.9</ele>
        <time>2019-08-08T12:36:32Z</time>
      </trkpt>
      <trkpt lat="46.5783" lon="5.98664">
        <ele>933.2</ele>
        <time>2019-08-08T12:36:41Z</time>
      </trkpt>
      <trkpt lat="46.57827" lon="5.98656">
        <ele>932.5</ele>
        <time>2019-08-08T12:36:47Z</time>
      </trkpt>
      <trkpt lat="46.57824" lon="5.98649">
        <ele>932</ele>
        <time>2019-08-08T12:36:50Z</time>
      </trkpt>
      <trkpt lat="46.5782" lon="5.98644">
        <ele>930.9</ele>
        <time>2019-08-08T12:36:56Z</time>
      </trkpt>
      <trkpt lat="46.57816" lon="5.9864">
        <ele>929.8</ele>
        <time>2019-08-08T12:37:02Z</time>
      </trkpt>
      <trkpt lat="46.57811" lon="5.98637">
        <ele>929.1</ele>
        <time>2019-08-08T12:37:06Z</time>
      </trkpt>
      <trkpt lat="46.57801" lon="5.98627">
        <ele>926.9</ele>
        <time>2019-08-08T12:37:19Z</time>
      </trkpt>
      <trkpt lat="46.57797" lon="5.98623">
        <ele>926.5</ele>
        <time>2019-08-08T12:37:23Z</time>
      </trkpt>
      <trkpt lat="46.57789" lon="5.98609">
        <ele>924.9</ele>
        <time>2019-08-08T12:37:33Z</time>
      </trkpt>
      <trkpt lat="46.57785" lon="5.98604">
        <ele>924.8</ele>
        <time>2019-08-08T12:37:37Z</time>
      </trkpt>
      <trkpt lat="46.57782" lon="5.98599">
        <ele>924.8</ele>
        <time>2019-08-08T12:37:41Z</time>
      </trkpt>
      <trkpt lat="46.5778" lon="5.98592">
        <ele>924.8</ele>
        <time>2019-08-08T12:37:49Z</time>
      </trkpt>
      <trkpt lat="46.57773" lon="5.9858">
        <ele>924</ele>
        <time>2019-08-08T12:38:36Z</time>
      </trkpt>
      <trkpt lat="46.57768" lon="5.98578">
        <ele>924</ele>
        <time>2019-08-08T12:38:43Z</time>
      </trkpt>
      <trkpt lat="46.57764" lon="5.98575">
        <ele>924.2</ele>
        <time>2019-08-08T12:38:49Z</time>
      </trkpt>
      <trkpt lat="46.57759" lon="5.9857">
        <ele>924.5</ele>
        <time>2019-08-08T12:38:54Z</time>
      </trkpt>
      <trkpt lat="46.57754" lon="5.98565">
        <ele>924.9</ele>
        <time>2019-08-08T12:38:59Z</time>
      </trkpt>
      <trkpt lat="46.57751" lon="5.98559">
        <ele>925.2</ele>
        <time>2019-08-08T12:39:03Z</time>
      </trkpt>
      <trkpt lat="46.57747" lon="5.98554">
        <ele>925.7</ele>
        <time>2019-08-08T12:39:06Z</time>
      </trkpt>
      <trkpt lat="46.57743" lon="5.9855">
        <ele>926.3</ele>
        <time>2019-08-08T12:39:09Z</time>
      </trkpt>
      <trkpt lat="46.57738" lon="5.98545">
        <ele>927</ele>
        <time>2019-08-08T12:39:13Z</time>
      </trkpt>
      <trkpt lat="46.57732" lon="5.98542">
        <ele>927.9</ele>
        <time>2019-08-08T12:39:17Z</time>
      </trkpt>
      <trkpt lat="46.57727" lon="5.98539">
        <ele>929</ele>
        <time>2019-08-08T12:39:21Z</time>
      </trkpt>
      <trkpt lat="46.57723" lon="5.98535">
        <ele>931.7</ele>
        <time>2019-08-08T12:39:28Z</time>
      </trkpt>
      <trkpt lat="46.5772" lon="5.98529">
        <ele>933.2</ele>
        <time>2019-08-08T12:39:31Z</time>
      </trkpt>
      <trkpt lat="46.5772" lon="5.98522">
        <ele>938.2</ele>
        <time>2019-08-08T12:39:44Z</time>
      </trkpt>
      <trkpt lat="46.57716" lon="5.98517">
        <ele>937.7</ele>
        <time>2019-08-08T12:39:56Z</time>
      </trkpt>
      <trkpt lat="46.57714" lon="5.98511">
        <ele>936.1</ele>
        <time>2019-08-08T12:40:03Z</time>
      </trkpt>
      <trkpt lat="46.57711" lon="5.98505">
        <ele>934.1</ele>
        <time>2019-08-08T12:40:12Z</time>
      </trkpt>
      <trkpt lat="46.57708" lon="5.98499">
        <ele>933.2</ele>
        <time>2019-08-08T12:40:16Z</time>
      </trkpt>
      <trkpt lat="46.57705" lon="5.98492">
        <ele>932.3</ele>
        <time>2019-08-08T12:40:19Z</time>
      </trkpt>
      <trkpt lat="46.57702" lon="5.98486">
        <ele>931.1</ele>
        <time>2019-08-08T12:40:23Z</time>
      </trkpt>
      <trkpt lat="46.57701" lon="5.98479">
        <ele>929.6</ele>
        <time>2019-08-08T12:40:28Z</time>
      </trkpt>
      <trkpt lat="46.577" lon="5.98473">
        <ele>928.2</ele>
        <time>2019-08-08T12:40:33Z</time>
      </trkpt>
      <trkpt lat="46.57696" lon="5.98467">
        <ele>926.4</ele>
        <time>2019-08-08T12:40:39Z</time>
      </trkpt>
      <trkpt lat="46.57692" lon="5.98462">
        <ele>925.2</ele>
        <time>2019-08-08T12:40:44Z</time>
      </trkpt>
      <trkpt lat="46.57687" lon="5.9846">
        <ele>923.9</ele>
        <time>2019-08-08T12:40:50Z</time>
      </trkpt>
      <trkpt lat="46.57682" lon="5.98462">
        <ele>923.2</ele>
        <time>2019-08-08T12:40:54Z</time>
      </trkpt>
      <trkpt lat="46.57677" lon="5.98463">
        <ele>922.9</ele>
        <time>2019-08-08T12:40:57Z</time>
      </trkpt>
      <trkpt lat="46.57672" lon="5.98462">
        <ele>922.7</ele>
        <time>2019-08-08T12:41:00Z</time>
      </trkpt>
      <trkpt lat="46.57668" lon="5.98459">
        <ele>922.3</ele>
        <time>2019-08-08T12:41:04Z</time>
      </trkpt>
      <trkpt lat="46.57664" lon="5.98456">
        <ele>920.1</ele>
        <time>2019-08-08T12:41:18Z</time>
      </trkpt>
      <trkpt lat="46.5766" lon="5.98453">
        <ele>918.4</ele>
        <time>2019-08-08T12:41:26Z</time>
      </trkpt>
      <trkpt lat="46.57655" lon="5.98452">
        <ele>916.9</ele>
        <time>2019-08-08T12:41:35Z</time>
      </trkpt>
      <trkpt lat="46.57652" lon="5.98445">
        <ele>915.8</ele>
        <time>2019-08-08T12:41:44Z</time>
      </trkpt>
      <trkpt lat="46.57652" lon="5.98436">
        <ele>915.4</ele>
        <time>2019-08-08T12:41:48Z</time>
      </trkpt>
      <trkpt lat="46.57651" lon="5.98429">
        <ele>914.8</ele>
        <time>2019-08-08T12:41:53Z</time>
      </trkpt>
      <trkpt lat="46.57653" lon="5.98422">
        <ele>914.2</ele>
        <time>2019-08-08T12:41:58Z</time>
      </trkpt>
      <trkpt lat="46.57655" lon="5.98415">
        <ele>913.8</ele>
        <time>2019-08-08T12:42:05Z</time>
      </trkpt>
      <trkpt lat="46.57654" lon="5.98408">
        <ele>913.7</ele>
        <time>2019-08-08T12:42:07Z</time>
      </trkpt>
      <trkpt lat="46.57657" lon="5.98402">
        <ele>913.6</ele>
        <time>2019-08-08T12:42:12Z</time>
      </trkpt>
      <trkpt lat="46.57662" lon="5.98401">
        <ele>913.3</ele>
        <time>2019-08-08T12:42:16Z</time>
      </trkpt>
      <trkpt lat="46.57667" lon="5.98399">
        <ele>913.2</ele>
        <time>2019-08-08T12:42:21Z</time>
      </trkpt>
      <trkpt lat="46.57672" lon="5.98398">
        <ele>913.2</ele>
        <time>2019-08-08T12:42:26Z</time>
      </trkpt>
      <trkpt lat="46.57677" lon="5.98395">
        <ele>913.2</ele>
        <time>2019-08-08T12:42:32Z</time>
      </trkpt>
      <trkpt lat="46.57682" lon="5.98392">
        <ele>913.2</ele>
        <time>2019-08-08T12:42:37Z</time>
      </trkpt>
      <trkpt lat="46.5769" lon="5.98386">
        <ele>912</ele>
        <time>2019-08-08T12:42:55Z</time>
      </trkpt>
      <trkpt lat="46.57695" lon="5.98385">
        <ele>910</ele>
        <time>2019-08-08T12:43:04Z</time>
      </trkpt>
      <trkpt lat="46.577" lon="5.98383">
        <ele>909</ele>
        <time>2019-08-08T12:43:08Z</time>
      </trkpt>
      <trkpt lat="46.57704" lon="5.98381">
        <ele>907.2</ele>
        <time>2019-08-08T12:43:17Z</time>
      </trkpt>
      <trkpt lat="46.57709" lon="5.98378">
        <ele>906.4</ele>
        <time>2019-08-08T12:43:21Z</time>
      </trkpt>
      <trkpt lat="46.57714" lon="5.98375">
        <ele>905.5</ele>
        <time>2019-08-08T12:43:28Z</time>
      </trkpt>
      <trkpt lat="46.57715" lon="5.98367">
        <ele>905.2</ele>
        <time>2019-08-08T12:43:31Z</time>
      </trkpt>
      <trkpt lat="46.57718" lon="5.98361">
        <ele>904.9</ele>
        <time>2019-08-08T12:43:35Z</time>
      </trkpt>
      <trkpt lat="46.57722" lon="5.98353">
        <ele>904.5</ele>
        <time>2019-08-08T12:43:42Z</time>
      </trkpt>
      <trkpt lat="46.57724" lon="5.98347">
        <ele>903.8</ele>
        <time>2019-08-08T12:43:50Z</time>
      </trkpt>
      <trkpt lat="46.57727" lon="5.98341">
        <ele>903.2</ele>
        <time>2019-08-08T12:43:54Z</time>
      </trkpt>
      <trkpt lat="46.57739" lon="5.98327">
        <ele>900.6</ele>
        <time>2019-08-08T12:44:06Z</time>
      </trkpt>
      <trkpt lat="46.57741" lon="5.98318">
        <ele>900.3</ele>
        <time>2019-08-08T12:44:09Z</time>
      </trkpt>
      <trkpt lat="46.57743" lon="5.98312">
        <ele>900.2</ele>
        <time>2019-08-08T12:44:12Z</time>
      </trkpt>
      <trkpt lat="46.57746" lon="5.98307">
        <ele>900.1</ele>
        <time>2019-08-08T12:44:16Z</time>
      </trkpt>
      <trkpt lat="46.57748" lon="5.98301">
        <ele>899.6</ele>
        <time>2019-08-08T12:44:22Z</time>
      </trkpt>
      <trkpt lat="46.57751" lon="5.98295">
        <ele>899</ele>
        <time>2019-08-08T12:44:28Z</time>
      </trkpt>
      <trkpt lat="46.57754" lon="5.9829">
        <ele>897.9</ele>
        <time>2019-08-08T12:44:34Z</time>
      </trkpt>
      <trkpt lat="46.57754" lon="5.98282">
        <ele>896.4</ele>
        <time>2019-08-08T12:44:40Z</time>
      </trkpt>
      <trkpt lat="46.57752" lon="5.98275">
        <ele>895.7</ele>
        <time>2019-08-08T12:44:43Z</time>
      </trkpt>
      <trkpt lat="46.57752" lon="5.98269">
        <ele>893.9</ele>
        <time>2019-08-08T12:44:51Z</time>
      </trkpt>
      <trkpt lat="46.5775" lon="5.98261">
        <ele>893</ele>
        <time>2019-08-08T12:44:59Z</time>
      </trkpt>
      <trkpt lat="46.57747" lon="5.98256">
        <ele>892.7</ele>
        <time>2019-08-08T12:45:02Z</time>
      </trkpt>
      <trkpt lat="46.57743" lon="5.98251">
        <ele>892.1</ele>
        <time>2019-08-08T12:45:08Z</time>
      </trkpt>
      <trkpt lat="46.57738" lon="5.98245">
        <ele>891.1</ele>
        <time>2019-08-08T12:45:20Z</time>
      </trkpt>
      <trkpt lat="46.57732" lon="5.98241">
        <ele>890.8</ele>
        <time>2019-08-08T12:45:24Z</time>
      </trkpt>
      <trkpt lat="46.57728" lon="5.9824">
        <ele>890.5</ele>
        <time>2019-08-08T12:45:28Z</time>
      </trkpt>
      <trkpt lat="46.57723" lon="5.98238">
        <ele>890.2</ele>
        <time>2019-08-08T12:45:36Z</time>
      </trkpt>
      <trkpt lat="46.57719" lon="5.98234">
        <ele>890.3</ele>
        <time>2019-08-08T12:45:41Z</time>
      </trkpt>
      <trkpt lat="46.57714" lon="5.98229">
        <ele>890.3</ele>
        <time>2019-08-08T12:45:47Z</time>
      </trkpt>
      <trkpt lat="46.5771" lon="5.98226">
        <ele>889.4</ele>
        <time>2019-08-08T12:45:54Z</time>
      </trkpt>
      <trkpt lat="46.57705" lon="5.98224">
        <ele>887.7</ele>
        <time>2019-08-08T12:46:02Z</time>
      </trkpt>
      <trkpt lat="46.577" lon="5.98219">
        <ele>886.2</ele>
        <time>2019-08-08T12:46:10Z</time>
      </trkpt>
      <trkpt lat="46.57695" lon="5.98215">
        <ele>886.1</ele>
        <time>2019-08-08T12:46:12Z</time>
      </trkpt>
      <trkpt lat="46.5769" lon="5.9821">
        <ele>886.2</ele>
        <time>2019-08-08T12:46:14Z</time>
      </trkpt>
      <trkpt lat="46.57685" lon="5.98206">
        <ele>886.5</ele>
        <time>2019-08-08T12:46:19Z</time>
      </trkpt>
      <trkpt lat="46.57678" lon="5.98201">
        <ele>888</ele>
        <time>2019-08-08T12:46:27Z</time>
      </trkpt>
      <trkpt lat="46.57674" lon="5.98198">
        <ele>888.2</ele>
        <time>2019-08-08T12:46:30Z</time>
      </trkpt>
      <trkpt lat="46.57669" lon="5.98196">
        <ele>888.6</ele>
        <time>2019-08-08T12:46:36Z</time>
      </trkpt>
      <trkpt lat="46.57665" lon="5.98192">
        <ele>889</ele>
        <time>2019-08-08T12:46:40Z</time>
      </trkpt>
      <trkpt lat="46.5766" lon="5.98189">
        <ele>889.1</ele>
        <time>2019-08-08T12:46:46Z</time>
      </trkpt>
      <trkpt lat="46.57652" lon="5.98187">
        <ele>889.1</ele>
        <time>2019-08-08T12:46:57Z</time>
      </trkpt>
      <trkpt lat="46.57647" lon="5.98186">
        <ele>889.3</ele>
        <time>2019-08-08T12:47:01Z</time>
      </trkpt>
      <trkpt lat="46.57642" lon="5.98185">
        <ele>889.9</ele>
        <time>2019-08-08T12:47:08Z</time>
      </trkpt>
      <trkpt lat="46.57638" lon="5.98182">
        <ele>890.2</ele>
        <time>2019-08-08T12:47:11Z</time>
      </trkpt>
      <trkpt lat="46.57624" lon="5.98177">
        <ele>890.9</ele>
        <time>2019-08-08T12:47:28Z</time>
      </trkpt>
      <trkpt lat="46.57618" lon="5.98175">
        <ele>891</ele>
        <time>2019-08-08T12:47:30Z</time>
      </trkpt>
      <trkpt lat="46.57614" lon="5.98173">
        <ele>891.2</ele>
        <time>2019-08-08T12:47:32Z</time>
      </trkpt>
      <trkpt lat="46.57609" lon="5.9817">
        <ele>891.5</ele>
        <time>2019-08-08T12:47:34Z</time>
      </trkpt>
      <trkpt lat="46.57604" lon="5.98167">
        <ele>892.1</ele>
        <time>2019-08-08T12:47:37Z</time>
      </trkpt>
      <trkpt lat="46.57599" lon="5.98165">
        <ele>893</ele>
        <time>2019-08-08T12:47:42Z</time>
      </trkpt>
      <trkpt lat="46.57595" lon="5.98162">
        <ele>894.8</ele>
        <time>2019-08-08T12:47:56Z</time>
      </trkpt>
      <trkpt lat="46.57585" lon="5.98154">
        <ele>894.2</ele>
        <time>2019-08-08T12:48:10Z</time>
      </trkpt>
      <trkpt lat="46.57579" lon="5.98149">
        <ele>894.2</ele>
        <time>2019-08-08T12:48:18Z</time>
      </trkpt>
      <trkpt lat="46.57568" lon="5.98132">
        <ele>895.4</ele>
        <time>2019-08-08T12:48:30Z</time>
      </trkpt>
      <trkpt lat="46.57565" lon="5.98125">
        <ele>895.5</ele>
        <time>2019-08-08T12:48:36Z</time>
      </trkpt>
      <trkpt lat="46.57561" lon="5.9812">
        <ele>895.7</ele>
        <time>2019-08-08T12:48:39Z</time>
      </trkpt>
      <trkpt lat="46.57558" lon="5.98114">
        <ele>896.1</ele>
        <time>2019-08-08T12:48:43Z</time>
      </trkpt>
      <trkpt lat="46.57556" lon="5.98107">
        <ele>896.6</ele>
        <time>2019-08-08T12:48:47Z</time>
      </trkpt>
      <trkpt lat="46.57553" lon="5.981">
        <ele>897.1</ele>
        <time>2019-08-08T12:48:51Z</time>
      </trkpt>
      <trkpt lat="46.5755" lon="5.98094">
        <ele>897.7</ele>
        <time>2019-08-08T12:48:57Z</time>
      </trkpt>
      <trkpt lat="46.57548" lon="5.98088">
        <ele>898</ele>
        <time>2019-08-08T12:49:02Z</time>
      </trkpt>
      <trkpt lat="46.57548" lon="5.98081">
        <ele>898.2</ele>
        <time>2019-08-08T12:49:06Z</time>
      </trkpt>
      <trkpt lat="46.57549" lon="5.98074">
        <ele>898.1</ele>
        <time>2019-08-08T12:49:09Z</time>
      </trkpt>
      <trkpt lat="46.57549" lon="5.98066">
        <ele>898</ele>
        <time>2019-08-08T12:49:12Z</time>
      </trkpt>
      <trkpt lat="46.5755" lon="5.98059">
        <ele>897.6</ele>
        <time>2019-08-08T12:49:16Z</time>
      </trkpt>
      <trkpt lat="46.57549" lon="5.98052">
        <ele>897</ele>
        <time>2019-08-08T12:49:22Z</time>
      </trkpt>
      <trkpt lat="46.57549" lon="5.98044">
        <ele>896.3</ele>
        <time>2019-08-08T12:49:27Z</time>
      </trkpt>
      <trkpt lat="46.5755" lon="5.98037">
        <ele>895.8</ele>
        <time>2019-08-08T12:49:31Z</time>
      </trkpt>
      <trkpt lat="46.57551" lon="5.98031">
        <ele>895.1</ele>
        <time>2019-08-08T12:49:36Z</time>
      </trkpt>
      <trkpt lat="46.57553" lon="5.98024">
        <ele>894.1</ele>
        <time>2019-08-08T12:49:42Z</time>
      </trkpt>
      <trkpt lat="46.57554" lon="5.98016">
        <ele>893.3</ele>
        <time>2019-08-08T12:49:47Z</time>
      </trkpt>
      <trkpt lat="46.57555" lon="5.98009">
        <ele>892.7</ele>
        <time>2019-08-08T12:49:52Z</time>
      </trkpt>
      <trkpt lat="46.57556" lon="5.98002">
        <ele>892.1</ele>
        <time>2019-08-08T12:49:57Z</time>
      </trkpt>
      <trkpt lat="46.57557" lon="5.97995">
        <ele>891.7</ele>
        <time>2019-08-08T12:50:02Z</time>
      </trkpt>
      <trkpt lat="46.57558" lon="5.97988">
        <ele>891.3</ele>
        <time>2019-08-08T12:50:08Z</time>
      </trkpt>
      <trkpt lat="46.5756" lon="5.97982">
        <ele>890.6</ele>
        <time>2019-08-08T12:50:13Z</time>
      </trkpt>
      <trkpt lat="46.57562" lon="5.97975">
        <ele>889.5</ele>
        <time>2019-08-08T12:50:18Z</time>
      </trkpt>
      <trkpt lat="46.57565" lon="5.97955">
        <ele>887.9</ele>
        <time>2019-08-08T12:50:31Z</time>
      </trkpt>
      <trkpt lat="46.57567" lon="5.97949">
        <ele>888.2</ele>
        <time>2019-08-08T12:50:36Z</time>
      </trkpt>
      <trkpt lat="46.57567" lon="5.97942">
        <ele>888.6</ele>
        <time>2019-08-08T12:50:44Z</time>
      </trkpt>
      <trkpt lat="46.57568" lon="5.97934">
        <ele>889</ele>
        <time>2019-08-08T12:50:47Z</time>
      </trkpt>
      <trkpt lat="46.57566" lon="5.97926">
        <ele>889.4</ele>
        <time>2019-08-08T12:50:50Z</time>
      </trkpt>
      <trkpt lat="46.57565" lon="5.97917">
        <ele>890.2</ele>
        <time>2019-08-08T12:50:55Z</time>
      </trkpt>
      <trkpt lat="46.57564" lon="5.97909">
        <ele>890.6</ele>
        <time>2019-08-08T12:50:58Z</time>
      </trkpt>
      <trkpt lat="46.57562" lon="5.97903">
        <ele>891</ele>
        <time>2019-08-08T12:51:01Z</time>
      </trkpt>
      <trkpt lat="46.57561" lon="5.97896">
        <ele>891.4</ele>
        <time>2019-08-08T12:51:05Z</time>
      </trkpt>
      <trkpt lat="46.57561" lon="5.97889">
        <ele>891.9</ele>
        <time>2019-08-08T12:51:09Z</time>
      </trkpt>
      <trkpt lat="46.57562" lon="5.97881">
        <ele>892.5</ele>
        <time>2019-08-08T12:51:15Z</time>
      </trkpt>
      <trkpt lat="46.57562" lon="5.97874">
        <ele>893</ele>
        <time>2019-08-08T12:51:21Z</time>
      </trkpt>
      <trkpt lat="46.57564" lon="5.97867">
        <ele>893.1</ele>
        <time>2019-08-08T12:51:27Z</time>
      </trkpt>
      <trkpt lat="46.57565" lon="5.9786">
        <ele>893</ele>
        <time>2019-08-08T12:51:32Z</time>
      </trkpt>
      <trkpt lat="46.57565" lon="5.97853">
        <ele>892.8</ele>
        <time>2019-08-08T12:51:37Z</time>
      </trkpt>
      <trkpt lat="46.57564" lon="5.97845">
        <ele>892.7</ele>
        <time>2019-08-08T12:51:42Z</time>
      </trkpt>
      <trkpt lat="46.57562" lon="5.97839">
        <ele>892.9</ele>
        <time>2019-08-08T12:51:46Z</time>
      </trkpt>
      <trkpt lat="46.57558" lon="5.97828">
        <ele>893.1</ele>
        <time>2019-08-08T12:51:55Z</time>
      </trkpt>
      <trkpt lat="46.57554" lon="5.97822">
        <ele>892.7</ele>
        <time>2019-08-08T12:52:00Z</time>
      </trkpt>
      <trkpt lat="46.57551" lon="5.97817">
        <ele>892.3</ele>
        <time>2019-08-08T12:52:05Z</time>
      </trkpt>
      <trkpt lat="46.57548" lon="5.9781">
        <ele>892</ele>
        <time>2019-08-08T12:52:10Z</time>
      </trkpt>
      <trkpt lat="46.57545" lon="5.97803">
        <ele>891.6</ele>
        <time>2019-08-08T12:52:14Z</time>
      </trkpt>
      <trkpt lat="46.57544" lon="5.97796">
        <ele>891.1</ele>
        <time>2019-08-08T12:52:19Z</time>
      </trkpt>
      <trkpt lat="46.57541" lon="5.9779">
        <ele>890.3</ele>
        <time>2019-08-08T12:52:26Z</time>
      </trkpt>
      <trkpt lat="46.57537" lon="5.97784">
        <ele>890</ele>
        <time>2019-08-08T12:52:31Z</time>
      </trkpt>
      <trkpt lat="46.57534" lon="5.97778">
        <ele>889.7</ele>
        <time>2019-08-08T12:52:36Z</time>
      </trkpt>
      <trkpt lat="46.57531" lon="5.97772">
        <ele>889.7</ele>
        <time>2019-08-08T12:52:40Z</time>
      </trkpt>
      <trkpt lat="46.5753" lon="5.97765">
        <ele>889.7</ele>
        <time>2019-08-08T12:52:44Z</time>
      </trkpt>
      <trkpt lat="46.57527" lon="5.97758">
        <ele>889.8</ele>
        <time>2019-08-08T12:52:49Z</time>
      </trkpt>
      <trkpt lat="46.57525" lon="5.97752">
        <ele>889.9</ele>
        <time>2019-08-08T12:52:53Z</time>
      </trkpt>
      <trkpt lat="46.57523" lon="5.97745">
        <ele>889.8</ele>
        <time>2019-08-08T12:52:57Z</time>
      </trkpt>
      <trkpt lat="46.57521" lon="5.97739">
        <ele>889.4</ele>
        <time>2019-08-08T12:53:02Z</time>
      </trkpt>
      <trkpt lat="46.57518" lon="5.97732">
        <ele>888.7</ele>
        <time>2019-08-08T12:53:07Z</time>
      </trkpt>
      <trkpt lat="46.57517" lon="5.97725">
        <ele>888.1</ele>
        <time>2019-08-08T12:53:12Z</time>
      </trkpt>
      <trkpt lat="46.57514" lon="5.97719">
        <ele>887.3</ele>
        <time>2019-08-08T12:53:17Z</time>
      </trkpt>
      <trkpt lat="46.57512" lon="5.97713">
        <ele>887</ele>
        <time>2019-08-08T12:53:21Z</time>
      </trkpt>
      <trkpt lat="46.57508" lon="5.97707">
        <ele>887</ele>
        <time>2019-08-08T12:53:25Z</time>
      </trkpt>
      <trkpt lat="46.57504" lon="5.97701">
        <ele>887.2</ele>
        <time>2019-08-08T12:53:29Z</time>
      </trkpt>
      <trkpt lat="46.57502" lon="5.97695">
        <ele>887.3</ele>
        <time>2019-08-08T12:53:33Z</time>
      </trkpt>
      <trkpt lat="46.57498" lon="5.9769">
        <ele>887.6</ele>
        <time>2019-08-08T12:53:37Z</time>
      </trkpt>
      <trkpt lat="46.57495" lon="5.97685">
        <ele>888.1</ele>
        <time>2019-08-08T12:53:39Z</time>
      </trkpt>
      <trkpt lat="46.57492" lon="5.97678">
        <ele>889.1</ele>
        <time>2019-08-08T12:53:42Z</time>
      </trkpt>
      <trkpt lat="46.5749" lon="5.9767">
        <ele>890.2</ele>
        <time>2019-08-08T12:53:45Z</time>
      </trkpt>
      <trkpt lat="46.5749" lon="5.97662">
        <ele>891.4</ele>
        <time>2019-08-08T12:53:49Z</time>
      </trkpt>
      <trkpt lat="46.57489" lon="5.97655">
        <ele>892.8</ele>
        <time>2019-08-08T12:53:54Z</time>
      </trkpt>
      <trkpt lat="46.57487" lon="5.97649">
        <ele>894.2</ele>
        <time>2019-08-08T12:54:01Z</time>
      </trkpt>
      <trkpt lat="46.57485" lon="5.97643">
        <ele>894.7</ele>
        <time>2019-08-08T12:54:10Z</time>
      </trkpt>
      <trkpt lat="46.57484" lon="5.97635">
        <ele>894.4</ele>
        <time>2019-08-08T12:54:15Z</time>
      </trkpt>
      <trkpt lat="46.57484" lon="5.97628">
        <ele>893.9</ele>
        <time>2019-08-08T12:54:19Z</time>
      </trkpt>
      <trkpt lat="46.57483" lon="5.97621">
        <ele>893.1</ele>
        <time>2019-08-08T12:54:24Z</time>
      </trkpt>
      <trkpt lat="46.57482" lon="5.97613">
        <ele>892.7</ele>
        <time>2019-08-08T12:54:27Z</time>
      </trkpt>
      <trkpt lat="46.57481" lon="5.97607">
        <ele>892.6</ele>
        <time>2019-08-08T12:54:30Z</time>
      </trkpt>
      <trkpt lat="46.57477" lon="5.97601">
        <ele>892.6</ele>
        <time>2019-08-08T12:54:33Z</time>
      </trkpt>
      <trkpt lat="46.57475" lon="5.97595">
        <ele>892.8</ele>
        <time>2019-08-08T12:54:38Z</time>
      </trkpt>
      <trkpt lat="46.57474" lon="5.97588">
        <ele>893.1</ele>
        <time>2019-08-08T12:54:43Z</time>
      </trkpt>
      <trkpt lat="46.57474" lon="5.97581">
        <ele>893.5</ele>
        <time>2019-08-08T12:54:47Z</time>
      </trkpt>
      <trkpt lat="46.57473" lon="5.97574">
        <ele>894</ele>
        <time>2019-08-08T12:54:51Z</time>
      </trkpt>
      <trkpt lat="46.57474" lon="5.97566">
        <ele>894.7</ele>
        <time>2019-08-08T12:54:56Z</time>
      </trkpt>
      <trkpt lat="46.57474" lon="5.97558">
        <ele>894.9</ele>
        <time>2019-08-08T12:55:01Z</time>
      </trkpt>
      <trkpt lat="46.57478" lon="5.97547">
        <ele>894.8</ele>
        <time>2019-08-08T12:55:17Z</time>
      </trkpt>
      <trkpt lat="46.5748" lon="5.9754">
        <ele>894.4</ele>
        <time>2019-08-08T12:55:21Z</time>
      </trkpt>
      <trkpt lat="46.57473" lon="5.97533">
        <ele>894.1</ele>
        <time>2019-08-08T12:55:30Z</time>
      </trkpt>
      <trkpt lat="46.57468" lon="5.97529">
        <ele>894.5</ele>
        <time>2019-08-08T12:55:34Z</time>
      </trkpt>
      <trkpt lat="46.57467" lon="5.97522">
        <ele>894.8</ele>
        <time>2019-08-08T12:55:38Z</time>
      </trkpt>
      <trkpt lat="46.57469" lon="5.97514">
        <ele>895</ele>
        <time>2019-08-08T12:55:42Z</time>
      </trkpt>
      <trkpt lat="46.57471" lon="5.97508">
        <ele>895.1</ele>
        <time>2019-08-08T12:55:46Z</time>
      </trkpt>
      <trkpt lat="46.57474" lon="5.97502">
        <ele>894.7</ele>
        <time>2019-08-08T12:55:51Z</time>
      </trkpt>
      <trkpt lat="46.57477" lon="5.97496">
        <ele>894.4</ele>
        <time>2019-08-08T12:55:55Z</time>
      </trkpt>
      <trkpt lat="46.57479" lon="5.9749">
        <ele>894.2</ele>
        <time>2019-08-08T12:55:58Z</time>
      </trkpt>
      <trkpt lat="46.57481" lon="5.97483">
        <ele>893.9</ele>
        <time>2019-08-08T12:56:02Z</time>
      </trkpt>
      <trkpt lat="46.57483" lon="5.97477">
        <ele>893.5</ele>
        <time>2019-08-08T12:56:08Z</time>
      </trkpt>
      <trkpt lat="46.57484" lon="5.9747">
        <ele>892.9</ele>
        <time>2019-08-08T12:56:15Z</time>
      </trkpt>
      <trkpt lat="46.57468" lon="5.97459">
        <ele>892.5</ele>
        <time>2019-08-08T12:56:36Z</time>
      </trkpt>
      <trkpt lat="46.57463" lon="5.97458">
        <ele>893</ele>
        <time>2019-08-08T12:56:39Z</time>
      </trkpt>
      <trkpt lat="46.57458" lon="5.97461">
        <ele>894.6</ele>
        <time>2019-08-08T12:56:45Z</time>
      </trkpt>
      <trkpt lat="46.57456" lon="5.97467">
        <ele>896.4</ele>
        <time>2019-08-08T12:56:51Z</time>
      </trkpt>
      <trkpt lat="46.57453" lon="5.97473">
        <ele>897.5</ele>
        <time>2019-08-08T12:56:57Z</time>
      </trkpt>
      <trkpt lat="46.5745" lon="5.97481">
        <ele>897.8</ele>
        <time>2019-08-08T12:57:01Z</time>
      </trkpt>
      <trkpt lat="46.57448" lon="5.97487">
        <ele>897.9</ele>
        <time>2019-08-08T12:57:04Z</time>
      </trkpt>
      <trkpt lat="46.57445" lon="5.97493">
        <ele>898.1</ele>
        <time>2019-08-08T12:57:08Z</time>
      </trkpt>
      <trkpt lat="46.57441" lon="5.9749">
        <ele>898.4</ele>
        <time>2019-08-08T12:57:14Z</time>
      </trkpt>
      <trkpt lat="46.57436" lon="5.97478">
        <ele>887.2</ele>
        <time>2019-08-08T12:59:28Z</time>
      </trkpt>
      <trkpt lat="46.57435" lon="5.97472">
        <ele>888.6</ele>
        <time>2019-08-08T12:59:32Z</time>
      </trkpt>
      <trkpt lat="46.57435" lon="5.97465">
        <ele>889.7</ele>
        <time>2019-08-08T12:59:37Z</time>
      </trkpt>
      <trkpt lat="46.57438" lon="5.97471">
        <ele>890.7</ele>
        <time>2019-08-08T13:00:01Z</time>
      </trkpt>
    </trkseg>
  </trk>
</gpx>